| time (UTC) | temp F | wind direction | speed MPH | gust MPH | rain 1hr in | rain 24hr in | rain mn in | humidity % | barometer mb |
| 20260903233230 | 86 | 41 | 0.0 | 0.0 | 0.00 | 0.00 | 0.00 | 60 | 1012.7 |
| 20260903233159 | 86 | 41 | 0.0 | 0.0 | 0.00 | 0.00 | 0.00 | 60 | 1012.7 |
| 20260903233040 | 86 | 41 | 0.0 | 0.0 | 0.00 | 0.00 | 0.00 | 60 | 1012.7 |
| 20260903232939 | 86 | 38 | 0.0 | 0.0 | 0.00 | 0.00 | 0.00 | 60 | 1012.7 |
| 20260903232839 | 86 | 41 | 0.0 | 0.0 | 0.00 | 0.00 | 0.00 | 59 | 1012.7 |
| 20260903232757 | 86 | 41 | 0.0 | 0.0 | 0.00 | 0.00 | 0.00 | 59 | 1012.6 |
| 20260903232634 | 87 | 37 | 0.0 | 0.0 | 0.00 | 0.00 | 0.00 | 59 | 1012.6 |
| 20260903232533 | 87 | 41 | 0.0 | 0.0 | 0.00 | 0.00 | 0.00 | 59 | 1012.6 |
| 20260903232432 | 87 | 41 | 0.0 | 0.0 | 0.00 | 0.00 | 0.00 | 59 | 1012.6 |
| 20260903232330 | 87 | 41 | 0.0 | 0.0 | 0.00 | 0.00 | 0.00 | 59 | 1012.6 |
| 20260903232232 | 87 | 41 | 0.0 | 0.0 | 0.00 | 0.00 | 0.00 | 59 | 1012.6 |
| 20260903232130 | 87 | 41 | 0.0 | 0.0 | 0.00 | 0.00 | 0.00 | 59 | 1012.6 |
| 20260903232029 | 87 | 41 | 0.0 | 0.0 | 0.00 | 0.00 | 0.00 | 59 | 1012.6 |
| 20260903231928 | 87 | 41 | 0.0 | 0.0 | 0.00 | 0.00 | 0.00 | 59 | 1012.6 |
| 20260903231829 | 87 | 40 | 0.0 | 0.0 | 0.00 | 0.00 | 0.00 | 59 | 1012.6 |
| 20260903231759 | 87 | 40 | 0.0 | 0.0 | 0.00 | 0.00 | 0.00 | 59 | 1012.6 |
| 20260903231647 | 87 | 41 | 0.0 | 0.0 | 0.00 | 0.00 | 0.00 | 59 | 1012.6 |
| 20260903231529 | 87 | 34 | 0.0 | 0.0 | 0.00 | 0.00 | 0.00 | 59 | 1012.6 |
| 20260903231427 | 87 | 41 | 0.0 | 0.0 | 0.00 | 0.00 | 0.00 | 59 | 1012.6 |
| 20260903231325 | 87 | 42 | 0.0 | 0.0 | 0.00 | 0.00 | 0.00 | 59 | 1012.6 |
| 20260903231243 | 87 | 41 | 0.0 | 0.0 | 0.00 | 0.00 | 0.00 | 59 | 1012.7 |
| 20260903231142 | 87 | 37 | 0.0 | 0.0 | 0.00 | 0.00 | 0.00 | 59 | 1012.7 |
| 20260903231040 | 87 | 41 | 0.0 | 1.0 | 0.00 | 0.00 | 0.00 | 59 | 1012.7 |
| 20260903230938 | 87 | 41 | 0.0 | 2.0 | 0.00 | 0.00 | 0.00 | 58 | 1012.7 |
| 20260903230840 | 87 | 41 | 0.0 | 2.0 | 0.00 | 0.00 | 0.00 | 58 | 1012.7 |
| 20260903230739 | 87 | 38 | 0.0 | 2.0 | 0.00 | 0.00 | 0.00 | 58 | 1012.7 |
| 20260903230636 | 87 | 40 | 0.0 | 3.0 | 0.00 | 0.00 | 0.00 | 58 | 1012.7 |
| 20260903230533 | 87 | 42 | 0.0 | 3.0 | 0.00 | 0.00 | 0.00 | 58 | 1012.7 |
| 20260903230431 | 87 | 41 | 0.0 | 3.0 | 0.00 | 0.00 | 0.00 | 59 | 1012.7 |
| 20260903230329 | 87 | 41 | 0.0 | 3.0 | 0.00 | 0.00 | 0.00 | 59 | 1012.7 |
| 20260903230238 | 87 | 40 | 0.0 | 3.0 | 0.00 | 0.00 | 0.00 | 59 | 1012.7 |
| 20260903230150 | 87 | 38 | 1.0 | 3.0 | 0.00 | 0.00 | 0.00 | 58 | 1012.7 |
| 20260903230031 | 87 | 40 | 0.0 | 3.0 | 0.00 | 0.00 | 0.00 | 58 | 1012.7 |
| 20260903225949 | 87 | 41 | 0.0 | 3.0 | 0.00 | 0.00 | 0.00 | 58 | 1012.7 |
| 20260903225847 | 87 | 37 | 1.0 | 3.0 | 0.00 | 0.00 | 0.00 | 58 | 1012.7 |
| 20260903225746 | 87 | 40 | 2.0 | 3.0 | 0.00 | 0.00 | 0.00 | 58 | 1012.6 |
| 20260903225704 | 87 | 38 | 2.0 | 3.0 | 0.00 | 0.00 | 0.00 | 58 | 1012.6 |
| 20260903225543 | 87 | 40 | 1.0 | 2.0 | 0.00 | 0.00 | 0.00 | 58 | 1012.6 |
| 20260903225441 | 87 | 41 | 1.0 | 2.0 | 0.00 | 0.00 | 0.00 | 57 | 1012.6 |
| 20260903225340 | 87 | 41 | 1.0 | 2.0 | 0.00 | 0.00 | 0.00 | 57 | 1012.6 |
| 20260903225243 | 87 | 41 | 1.0 | 2.0 | 0.00 | 0.00 | 0.00 | 57 | 1012.6 |
| 20260903225142 | 87 | 41 | 0.0 | 3.0 | 0.00 | 0.00 | 0.00 | 57 | 1012.6 |
| 20260903225041 | 87 | 41 | 0.0 | 3.0 | 0.00 | 0.00 | 0.00 | 56 | 1012.6 |
| 20260903224959 | 87 | 40 | 0.0 | 5.0 | 0.00 | 0.00 | 0.00 | 56 | 1012.6 |
| 20260903224857 | 87 | 41 | 0.0 | 5.0 | 0.00 | 0.00 | 0.00 | 56 | 1012.6 |
| 20260903224754 | 87 | 41 | 0.0 | 5.0 | 0.00 | 0.00 | 0.00 | 56 | 1012.6 |
| 20260903224703 | 87 | 40 | 0.0 | 5.0 | 0.00 | 0.00 | 0.00 | 56 | 1012.6 |
| 20260903224539 | 87 | 41 | 1.0 | 5.0 | 0.00 | 0.00 | 0.00 | 56 | 1012.6 |
| 20260903224438 | 87 | 41 | 1.0 | 5.0 | 0.00 | 0.00 | 0.00 | 56 | 1012.6 |
| 20260903224401 | 87 | 41 | 1.0 | 5.0 | 0.00 | 0.00 | 0.00 | 56 | 1012.6 |
| 20260903224238 | 87 | 41 | 2.0 | 5.0 | 0.00 | 0.00 | 0.00 | 56 | 1012.4 |
| 20260903224136 | 87 | 40 | 3.0 | 5.0 | 0.00 | 0.00 | 0.00 | 56 | 1012.4 |
| 20260903224036 | 87 | 41 | 3.0 | 5.0 | 0.00 | 0.00 | 0.00 | 56 | 1012.4 |
| 20260903223936 | 87 | 38 | 1.0 | 3.0 | 0.00 | 0.00 | 0.00 | 56 | 1012.4 |
| 20260903223835 | 87 | 41 | 1.0 | 3.0 | 0.00 | 0.00 | 0.00 | 56 | 1012.4 |
| 20260903223733 | 87 | 37 | 0.0 | 3.0 | 0.00 | 0.00 | 0.00 | 56 | 1012.4 |
| 20260903223635 | 87 | 41 | 2.0 | 3.0 | 0.00 | 0.00 | 0.00 | 56 | 1012.4 |
| 20260903223534 | 87 | 41 | 0.0 | 3.0 | 0.00 | 0.00 | 0.00 | 56 | 1012.4 |
| 20260903223432 | 87 | 41 | 1.0 | 3.0 | 0.00 | 0.00 | 0.00 | 56 | 1012.4 |
| 20260903223330 | 87 | 38 | 0.0 | 3.0 | 0.00 | 0.00 | 0.00 | 56 | 1012.4 |
| 20260903223251 | 87 | 40 | 1.0 | 3.0 | 0.00 | 0.00 | 0.00 | 56 | 1012.4 |
| 20260903223223 | 87 | 41 | 1.0 | 3.0 | 0.00 | 0.00 | 0.00 | 56 | 1012.4 |
| 20260903223037 | 87 | 41 | 2.0 | 4.0 | 0.00 | 0.00 | 0.00 | 56 | 1012.4 |
| 20260903222937 | 87 | 40 | 2.0 | 5.0 | 0.00 | 0.00 | 0.00 | 56 | 1012.4 |
| 20260903222901 | 87 | 40 | 2.0 | 5.0 | 0.00 | 0.00 | 0.00 | 56 | 1012.4 |
| 20260903222739 | 87 | 40 | 3.0 | 5.0 | 0.00 | 0.00 | 0.00 | 55 | 1012.4 |
| 20260903222657 | 87 | 40 | 2.0 | 5.0 | 0.00 | 0.00 | 0.00 | 55 | 1012.4 |
| 20260903222555 | 87 | 40 | 1.0 | 5.0 | 0.00 | 0.00 | 0.00 | 55 | 1012.4 |
| 20260903222433 | 87 | 40 | 0.0 | 5.0 | 0.00 | 0.00 | 0.00 | 55 | 1012.4 |
| 20260903222331 | 87 | 40 | 1.0 | 5.0 | 0.00 | 0.00 | 0.00 | 55 | 1012.4 |
| 20260903222229 | 87 | 40 | 2.0 | 5.0 | 0.00 | 0.00 | 0.00 | 55 | 1012.4 |
| 20260903222149 | 87 | 40 | 3.0 | 5.0 | 0.00 | 0.00 | 0.00 | 56 | 1012.4 |
| 20260903222031 | 87 | 35 | 2.0 | 5.0 | 0.00 | 0.00 | 0.00 | 56 | 1012.4 |
| 20260903221929 | 87 | 40 | 2.0 | 5.0 | 0.00 | 0.00 | 0.00 | 56 | 1012.4 |
| 20260903221828 | 87 | 40 | 0.0 | 5.0 | 0.00 | 0.00 | 0.00 | 56 | 1012.4 |
| 20260903221738 | 87 | 40 | 3.0 | 5.0 | 0.00 | 0.00 | 0.00 | 56 | 1012.4 |
| 20260903221646 | 87 | 40 | 4.0 | 5.0 | 0.00 | 0.00 | 0.00 | 56 | 1012.4 |
| 20260903221524 | 87 | 35 | 2.0 | 5.0 | 0.00 | 0.00 | 0.00 | 55 | 1012.4 |
| 20260903221441 | 87 | 37 | 1.0 | 5.0 | 0.00 | 0.00 | 0.00 | 55 | 1012.4 |
| 20260903221324 | 87 | 35 | 3.0 | 5.0 | 0.00 | 0.00 | 0.00 | 55 | 1012.4 |
| 20260903221243 | 87 | 32 | 3.0 | 5.0 | 0.00 | 0.00 | 0.00 | 55 | 1012.4 |
| 20260903221142 | 87 | 35 | 1.0 | 2.0 | 0.00 | 0.00 | 0.00 | 55 | 1012.4 |
| 20260903221041 | 87 | 35 | 0.0 | 1.0 | 0.00 | 0.00 | 0.00 | 55 | 1012.4 |
| 20260903220939 | 87 | 35 | 0.0 | 1.0 | 0.00 | 0.00 | 0.00 | 54 | 1012.4 |
| 20260903220837 | 87 | 35 | 0.0 | 1.0 | 0.00 | 0.00 | 0.00 | 55 | 1012.4 |
| 20260903220757 | 87 | 35 | 0.0 | 1.0 | 0.00 | 0.00 | 0.00 | 55 | 1012.4 |
| 20260903220633 | 87 | 35 | 0.0 | 1.0 | 0.00 | 0.00 | 0.00 | 55 | 1012.4 |
| 20260903220536 | 87 | 35 | 0.0 | 1.0 | 0.00 | 0.00 | 0.00 | 54 | 1012.4 |
| 20260903220435 | 87 | 35 | 0.0 | 2.0 | 0.00 | 0.00 | 0.00 | 54 | 1012.4 |
| 20260903220336 | 87 | 32 | 0.0 | 2.0 | 0.00 | 0.00 | 0.00 | 54 | 1012.4 |
| 20260903220244 | 87 | 34 | 0.0 | 2.0 | 0.00 | 0.00 | 0.00 | 54 | 1012.4 |
| 20260903220153 | 87 | 34 | 0.0 | 2.0 | 0.00 | 0.00 | 0.00 | 55 | 1012.4 |
| 20260903220029 | 87 | 35 | 0.0 | 2.0 | 0.00 | 0.00 | 0.00 | 55 | 1012.4 |
| 20260903215948 | 87 | 35 | 0.0 | 3.0 | 0.00 | 0.00 | 0.00 | 55 | 1012.4 |
| 20260903215829 | 87 | 34 | 0.0 | 3.0 | 0.00 | 0.00 | 0.00 | 54 | 1012.4 |
| 20260903215727 | 87 | 35 | 0.0 | 3.0 | 0.00 | 0.00 | 0.00 | 54 | 1012.4 |
| 20260903215626 | 87 | 35 | 2.0 | 3.0 | 0.00 | 0.00 | 0.00 | 54 | 1012.4 |
| 20260903215524 | 87 | 34 | 1.0 | 3.0 | 0.00 | 0.00 | 0.00 | 53 | 1012.4 |
| 20260903215441 | 87 | 35 | 1.0 | 3.0 | 0.00 | 0.00 | 0.00 | 53 | 1012.4 |
| 20260903215340 | 87 | 35 | 1.0 | 3.0 | 0.00 | 0.00 | 0.00 | 52 | 1012.4 |
| 20260903215239 | 87 | 34 | 2.0 | 3.0 | 0.00 | 0.00 | 0.00 | 52 | 1012.4 |
| 20260903215142 | 87 | 35 | 2.0 | 5.0 | 0.00 | 0.00 | 0.00 | 53 | 1012.4 |
| 20260903215039 | 87 | 35 | 2.0 | 5.0 | 0.00 | 0.00 | 0.00 | 54 | 1012.4 |
| 20260903214937 | 87 | 34 | 2.0 | 5.0 | 0.00 | 0.00 | 0.00 | 55 | 1012.4 |
| 20260903214835 | 87 | 34 | 2.0 | 5.0 | 0.00 | 0.00 | 0.00 | 55 | 1012.4 |
| 20260903214733 | 87 | 35 | 2.0 | 5.0 | 0.00 | 0.00 | 0.00 | 55 | 1012.4 |
| 20260903214701 | 87 | 35 | 2.0 | 6.0 | 0.00 | 0.00 | 0.00 | 55 | 1012.4 |
| 20260903214539 | 87 | 35 | 2.0 | 6.0 | 0.00 | 0.00 | 0.00 | 53 | 1012.4 |
| 20260903214458 | 87 | 37 | 2.0 | 6.0 | 0.00 | 0.00 | 0.00 | 52 | 1012.4 |
| 20260903214338 | 87 | 34 | 3.0 | 6.0 | 0.00 | 0.00 | 0.00 | 52 | 1012.4 |
| 20260903214237 | 87 | 35 | 4.0 | 6.0 | 0.00 | 0.00 | 0.00 | 53 | 1012.6 |
| 20260903214134 | 87 | 34 | 4.0 | 6.0 | 0.00 | 0.00 | 0.00 | 53 | 1012.6 |
| 20260903214033 | 87 | 37 | 3.0 | 6.0 | 0.00 | 0.00 | 0.00 | 53 | 1012.6 |
| 20260903213931 | 87 | 32 | 3.0 | 6.0 | 0.00 | 0.00 | 0.00 | 55 | 1012.6 |
| 20260903213830 | 87 | 37 | 4.0 | 6.0 | 0.00 | 0.00 | 0.00 | 55 | 1012.6 |
| 20260903213727 | 87 | 37 | 2.0 | 6.0 | 0.00 | 0.00 | 0.00 | 54 | 1012.6 |
| 20260903213631 | 87 | 35 | 2.0 | 6.0 | 0.00 | 0.00 | 0.00 | 53 | 1012.6 |
| 20260903213530 | 87 | 38 | 2.0 | 6.0 | 0.00 | 0.00 | 0.00 | 53 | 1012.6 |
| 20260903213447 | 87 | 37 | 3.0 | 6.0 | 0.00 | 0.00 | 0.00 | 55 | 1012.6 |
| 20260903213325 | 87 | 37 | 3.0 | 7.0 | 0.00 | 0.00 | 0.00 | 55 | 1012.6 |
| 20260903213244 | 87 | 38 | 3.0 | 7.0 | 0.00 | 0.00 | 0.00 | 55 | 1012.6 |
| 20260903213154 | 87 | 37 | 4.0 | 7.0 | 0.00 | 0.00 | 0.00 | 54 | 1012.6 |
| 20260903213030 | 87 | 35 | 3.0 | 7.0 | 0.00 | 0.00 | 0.00 | 55 | 1012.6 |
| 20260903212928 | 87 | 38 | 3.0 | 7.0 | 0.00 | 0.00 | 0.00 | 55 | 1012.6 |
| 20260903212850 | 87 | 38 | 2.0 | 7.0 | 0.00 | 0.00 | 0.00 | 56 | 1012.6 |
| 20260903212728 | 87 | 37 | 4.0 | 7.0 | 0.00 | 0.00 | 0.00 | 56 | 1012.6 |
| 20260903212647 | 87 | 38 | 5.0 | 7.0 | 0.00 | 0.00 | 0.00 | 55 | 1012.6 |
| 20260903212544 | 87 | 37 | 5.0 | 7.0 | 0.00 | 0.00 | 0.00 | 58 | 1012.6 |
| 20260903212502 | 87 | 37 | 6.0 | 7.0 | 0.00 | 0.00 | 0.00 | 57 | 1012.6 |
| 20260903212339 | 87 | 38 | 5.0 | 7.0 | 0.00 | 0.00 | 0.00 | 57 | 1012.6 |
| 20260903212238 | 87 | 34 | 4.0 | 7.0 | 0.00 | 0.00 | 0.00 | 57 | 1012.6 |
| 20260903212134 | 87 | 35 | 3.0 | 7.0 | 0.00 | 0.00 | 0.00 | 56 | 1012.6 |
| 20260903212037 | 87 | 35 | 4.0 | 7.0 | 0.00 | 0.00 | 0.00 | 56 | 1012.6 |
| 20260903211935 | 87 | 37 | 6.0 | 7.0 | 0.00 | 0.00 | 0.00 | 56 | 1012.6 |
| 20260903211833 | 87 | 34 | 5.0 | 7.0 | 0.00 | 0.00 | 0.00 | 57 | 1012.6 |
| 20260903211732 | 87 | 32 | 5.0 | 7.0 | 0.00 | 0.00 | 0.00 | 57 | 1012.6 |
| 20260903211702 | 87 | 30 | 5.0 | 8.0 | 0.00 | 0.00 | 0.00 | 56 | 1012.6 |
| 20260903211542 | 87 | 34 | 5.0 | 8.0 | 0.00 | 0.00 | 0.00 | 56 | 1012.6 |
| 20260903211438 | 87 | 30 | 5.0 | 8.0 | 0.00 | 0.00 | 0.00 | 56 | 1012.6 |
| 20260903211337 | 87 | 31 | 5.0 | 8.0 | 0.00 | 0.00 | 0.00 | 56 | 1012.6 |
| 20260903211240 | 87 | 31 | 4.0 | 8.0 | 0.00 | 0.00 | 0.00 | 56 | 1013.7 |
| 20260903211142 | 87 | 31 | 4.0 | 8.0 | 0.00 | 0.00 | 0.00 | 56 | 1013.7 |
| 20260903211041 | 87 | 31 | 4.0 | 10.0 | 0.00 | 0.00 | 0.00 | 55 | 1013.7 |
| 20260903210938 | 87 | 31 | 5.0 | 10.0 | 0.00 | 0.00 | 0.00 | 55 | 1013.7 |
| 20260903210836 | 87 | 28 | 6.0 | 12.0 | 0.00 | 0.00 | 0.00 | 54 | 1013.7 |
| 20260903210735 | 88 | 28 | 7.0 | 12.0 | 0.00 | 0.00 | 0.00 | 54 | 1013.7 |
| 20260903210636 | 88 | 25 | 6.0 | 12.0 | 0.00 | 0.00 | 0.00 | 54 | 1013.7 |
| 20260903210540 | 88 | 32 | 4.0 | 12.0 | 0.00 | 0.00 | 0.00 | 55 | 1013.7 |
| 20260903210458 | 88 | 32 | 5.0 | 12.0 | 0.00 | 0.00 | 0.00 | 55 | 1013.7 |
| 20260903210336 | 88 | 34 | 7.0 | 12.0 | 0.00 | 0.00 | 0.00 | 56 | 1013.7 |
| 20260903210253 | 88 | 34 | 8.0 | 12.0 | 0.00 | 0.00 | 0.00 | 54 | 1013.7 |
| 20260903210203 | 88 | 47 | 9.0 | 12.0 | 0.00 | 0.00 | 0.00 | 54 | 1013.7 |
| 20260903210040 | 88 | 25 | 9.0 | 12.0 | 0.00 | 0.00 | 0.00 | 54 | 1013.7 |
| 20260903205938 | 89 | 21 | 7.0 | 12.0 | 0.00 | 0.00 | 0.00 | 55 | 1013.7 |
| 20260903205836 | 89 | 42 | 7.0 | 12.0 | 0.00 | 0.00 | 0.00 | 54 | 1013.7 |
| 20260903205739 | 89 | 10 | 8.0 | 12.0 | 0.00 | 0.00 | 0.00 | 53 | 1013.7 |
| 20260903205637 | 89 | 24 | 10.0 | 12.0 | 0.00 | 0.00 | 0.00 | 53 | 1013.7 |
| 20260903205536 | 89 | 27 | 9.0 | 12.0 | 0.00 | 0.00 | 0.00 | 53 | 1013.7 |
| 20260903205435 | 89 | 42 | 8.0 | 12.0 | 0.00 | 0.00 | 0.00 | 53 | 1013.7 |
| 20260903205331 | 90 | 32 | 8.0 | 12.0 | 0.00 | 0.00 | 0.00 | 52 | 1013.7 |
| 20260903205230 | 90 | 48 | 7.0 | 12.0 | 0.00 | 0.00 | 0.00 | 51 | 1013.7 |
| 20260903205128 | 90 | 21 | 8.0 | 12.0 | 0.00 | 0.00 | 0.00 | 50 | 1013.7 |
| 20260903205034 | 90 | 8 | 9.0 | 12.0 | 0.00 | 0.00 | 0.00 | 50 | 1013.7 |
| 20260903204933 | 90 | 51 | 8.0 | 12.0 | 0.00 | 0.00 | 0.00 | 49 | 1013.7 |
| 20260903204830 | 90 | 35 | 9.0 | 12.0 | 0.00 | 0.00 | 0.00 | 49 | 1013.7 |
| 20260903204750 | 90 | 37 | 9.0 | 12.0 | 0.00 | 0.00 | 0.00 | 49 | 1013.7 |
| 20260903204659 | 90 | 32 | 8.0 | 12.0 | 0.00 | 0.00 | 0.00 | 48 | 1013.7 |
| 20260903204536 | 90 | 31 | 6.0 | 10.0 | 0.00 | 0.00 | 0.00 | 48 | 1013.7 |
| 20260903204455 | 90 | 3 | 6.0 | 10.0 | 0.00 | 0.00 | 0.00 | 47 | 1013.7 |
| 20260903204332 | 90 | 38 | 6.0 | 8.0 | 0.00 | 0.00 | 0.00 | 48 | 1013.7 |
| 20260903204234 | 90 | 49 | 7.0 | 8.0 | 0.00 | 0.00 | 0.00 | 50 | 1013.8 |
| 20260903204133 | 90 | 56 | 6.0 | 8.0 | 0.00 | 0.00 | 0.00 | 50 | 1013.8 |
| 20260903204030 | 90 | 343 | 5.0 | 7.0 | 0.00 | 0.00 | 0.00 | 48 | 1013.8 |
| 20260903203947 | 90 | 23 | 5.0 | 7.0 | 0.00 | 0.00 | 0.00 | 47 | 1013.8 |
| 20260903203825 | 90 | 359 | 3.0 | 6.0 | 0.00 | 0.00 | 0.00 | 51 | 1013.8 |
| 20260903203742 | 90 | 261 | 1.0 | 3.0 | 0.00 | 0.00 | 0.00 | 50 | 1013.8 |
| 20260903203640 | 90 | 243 | 0.0 | 3.0 | 0.00 | 0.00 | 0.00 | 51 | 1013.8 |
| 20260903203559 | 90 | 246 | 0.0 | 4.0 | 0.00 | 0.00 | 0.00 | 52 | 1013.8 |
| 20260903203436 | 90 | 244 | 1.0 | 5.0 | 0.00 | 0.00 | 0.00 | 53 | 1013.8 |
| 20260903203339 | 90 | 243 | 2.0 | 6.0 | 0.00 | 0.00 | 0.00 | 52 | 1013.8 |
| 20260903203237 | 90 | 247 | 0.0 | 6.0 | 0.00 | 0.00 | 0.00 | 52 | 1013.8 |
| 20260903203206 | 90 | 246 | 0.0 | 6.0 | 0.00 | 0.00 | 0.00 | 50 | 1013.8 |
| 20260903203041 | 90 | 246 | 0.0 | 6.0 | 0.00 | 0.00 | 0.00 | 50 | 1013.8 |
| 20260903202939 | 90 | 244 | 0.0 | 6.0 | 0.00 | 0.00 | 0.00 | 49 | 1013.8 |
| 20260903202838 | 90 | 246 | 0.0 | 6.0 | 0.00 | 0.00 | 0.00 | 48 | 1013.8 |
| 20260903202757 | 90 | 246 | 1.0 | 6.0 | 0.00 | 0.00 | 0.00 | 50 | 1014.0 |
| 20260903202633 | 90 | 246 | 4.0 | 6.0 | 0.00 | 0.00 | 0.00 | 51 | 1014.0 |
| 20260903202555 | 90 | 246 | 2.0 | 6.0 | 0.00 | 0.00 | 0.00 | 52 | 1014.0 |
| 20260903202433 | 90 | 247 | 1.0 | 6.0 | 0.00 | 0.00 | 0.00 | 51 | 1014.0 |
| 20260903202334 | 90 | 247 | 2.0 | 8.0 | 0.00 | 0.00 | 0.00 | 52 | 1014.0 |
| 20260903202231 | 90 | 240 | 1.0 | 8.0 | 0.00 | 0.00 | 0.00 | 51 | 1014.0 |
| 20260903202130 | 90 | 243 | 0.0 | 8.0 | 0.00 | 0.00 | 0.00 | 50 | 1014.0 |
| 20260903202029 | 90 | 243 | 0.0 | 8.0 | 0.00 | 0.00 | 0.00 | 51 | 1014.0 |
| 20260903201949 | 90 | 240 | 2.0 | 8.0 | 0.00 | 0.00 | 0.00 | 51 | 1014.0 |
| 20260903201830 | 90 | 243 | 2.0 | 8.0 | 0.00 | 0.00 | 0.00 | 51 | 1014.0 |
| 20260903201758 | 90 | 209 | 1.0 | 8.0 | 0.00 | 0.00 | 0.00 | 51 | 1014.0 |
| 20260903201645 | 90 | 206 | 3.0 | 8.0 | 0.00 | 0.00 | 0.00 | 51 | 1014.0 |
| 20260903201542 | 90 | 226 | 4.0 | 8.0 | 0.00 | 0.00 | 0.00 | 50 | 1014.0 |
| 20260903201442 | 90 | 215 | 5.0 | 8.0 | 0.00 | 0.00 | 0.00 | 50 | 1014.0 |
| 20260903201342 | 90 | 184 | 1.0 | 8.0 | 0.00 | 0.00 | 0.00 | 50 | 1014.0 |
| 20260903201240 | 90 | 182 | 2.0 | 8.0 | 0.00 | 0.00 | 0.00 | 50 | 1014.2 |
| 20260903201139 | 90 | 176 | 2.0 | 8.0 | 0.00 | 0.00 | 0.00 | 51 | 1014.2 |
| 20260903201042 | 90 | 236 | 3.0 | 8.0 | 0.00 | 0.00 | 0.00 | 51 | 1014.2 |
| 20260903201000 | 90 | 237 | 5.0 | 8.0 | 0.00 | 0.00 | 0.00 | 51 | 1014.2 |
| 20260903200838 | 90 | 175 | 3.0 | 5.0 | 0.00 | 0.00 | 0.00 | 50 | 1014.2 |
| 20260903200735 | 90 | 171 | 2.0 | 7.0 | 0.00 | 0.00 | 0.00 | 51 | 1014.2 |
| 20260903200634 | 90 | 172 | 1.0 | 8.0 | 0.00 | 0.00 | 0.00 | 50 | 1014.2 |
| 20260903200532 | 90 | 172 | 2.0 | 8.0 | 0.00 | 0.00 | 0.00 | 50 | 1014.2 |
| 20260903200429 | 90 | 174 | 1.0 | 8.0 | 0.00 | 0.00 | 0.00 | 50 | 1014.2 |
| 20260903200327 | 90 | 172 | 2.0 | 8.0 | 0.00 | 0.00 | 0.00 | 50 | 1014.2 |
| 20260903200241 | 90 | 172 | 3.0 | 8.0 | 0.00 | 0.00 | 0.00 | 49 | 1014.2 |
| 20260903200152 | 90 | 128 | 2.0 | 8.0 | 0.00 | 0.00 | 0.00 | 49 | 1014.2 |
| 20260903200050 | 90 | 126 | 3.0 | 8.0 | 0.00 | 0.00 | 0.00 | 52 | 1014.2 |
| 20260903195926 | 90 | 127 | 6.0 | 8.0 | 0.00 | 0.00 | 0.00 | 51 | 1014.2 |
| 20260903195845 | 90 | 134 | 4.0 | 8.0 | 0.00 | 0.00 | 0.00 | 50 | 1014.2 |
| 20260903195742 | 90 | 138 | 6.0 | 8.0 | 0.00 | 0.00 | 0.00 | 51 | 1014.3 |
| 20260903195642 | 90 | 127 | 3.0 | 5.0 | 0.00 | 0.00 | 0.00 | 50 | 1014.3 |
| 20260903195541 | 90 | 130 | 2.0 | 5.0 | 0.00 | 0.00 | 0.00 | 50 | 1014.3 |
| 20260903195443 | 90 | 128 | 1.0 | 3.0 | 0.00 | 0.00 | 0.00 | 50 | 1014.3 |
| 20260903195402 | 89 | 130 | 1.0 | 3.0 | 0.00 | 0.00 | 0.00 | 49 | 1014.3 |
| 20260903195238 | 89 | 128 | 2.0 | 3.0 | 0.00 | 0.00 | 0.00 | 49 | 1014.3 |
| 20260903195137 | 89 | 124 | 2.0 | 5.0 | 0.00 | 0.00 | 0.00 | 52 | 1014.3 |
| 20260903195035 | 90 | 127 | 1.0 | 5.0 | 0.00 | 0.00 | 0.00 | 52 | 1014.3 |
| 20260903194954 | 90 | 121 | 0.0 | 5.0 | 0.00 | 0.00 | 0.00 | 50 | 1014.3 |
| 20260903194832 | 90 | 120 | 0.0 | 5.0 | 0.00 | 0.00 | 0.00 | 50 | 1014.3 |
| 20260903194729 | 90 | 121 | 0.0 | 5.0 | 0.00 | 0.00 | 0.00 | 51 | 1014.3 |
| 20260903194703 | 90 | 121 | 0.0 | 5.0 | 0.00 | 0.00 | 0.00 | 49 | 1014.3 |
| 20260903194540 | 90 | 120 | 0.0 | 5.0 | 0.00 | 0.00 | 0.00 | 50 | 1014.3 |
| 20260903194439 | 90 | 119 | 1.0 | 5.0 | 0.00 | 0.00 | 0.00 | 51 | 1014.3 |
| 20260903194338 | 90 | 121 | 3.0 | 5.0 | 0.00 | 0.00 | 0.00 | 53 | 1014.3 |
| 20260903194236 | 90 | 119 | 2.0 | 3.0 | 0.00 | 0.00 | 0.00 | 53 | 1014.3 |
| 20260903194154 | 90 | 116 | 1.0 | 3.0 | 0.00 | 0.00 | 0.00 | 53 | 1014.3 |
| 20260903194032 | 90 | 113 | 0.0 | 3.0 | 0.00 | 0.00 | 0.00 | 53 | 1014.3 |
| 20260903193935 | 90 | 114 | 0.0 | 3.0 | 0.00 | 0.00 | 0.00 | 53 | 1014.3 |
| 20260903193833 | 90 | 113 | 0.0 | 3.0 | 0.00 | 0.00 | 0.00 | 53 | 1014.3 |
| 20260903193732 | 90 | 113 | 0.0 | 3.0 | 0.00 | 0.00 | 0.00 | 52 | 1014.3 |
| 20260903193630 | 90 | 113 | 2.0 | 5.0 | 0.00 | 0.00 | 0.00 | 52 | 1014.3 |
| 20260903193527 | 90 | 114 | 1.0 | 5.0 | 0.00 | 0.00 | 0.00 | 52 | 1014.3 |
| 20260903193424 | 90 | 112 | 0.0 | 5.0 | 0.00 | 0.00 | 0.00 | 52 | 1014.3 |
| 20260903193344 | 90 | 113 | 0.0 | 5.0 | 0.00 | 0.00 | 0.00 | 53 | 1014.3 |
| 20260903193258 | 90 | 114 | 2.0 | 5.0 | 0.00 | 0.00 | 0.00 | 53 | 1014.3 |
| 20260903193147 | 90 | 114 | 2.0 | 5.0 | 0.00 | 0.00 | 0.00 | 53 | 1014.3 |
| 20260903193048 | 90 | 112 | 0.0 | 5.0 | 0.00 | 0.00 | 0.00 | 52 | 1014.3 |
| 20260903193007 | 90 | 110 | 1.0 | 5.0 | 0.00 | 0.00 | 0.00 | 50 | 1014.3 |
| 20260903192905 | 90 | 113 | 3.0 | 5.0 | 0.00 | 0.00 | 0.00 | 53 | 1014.3 |
| 20260903192742 | 90 | 110 | 3.0 | 5.0 | 0.00 | 0.00 | 0.00 | 51 | 1014.6 |
| 20260903192640 | 90 | 116 | 3.0 | 5.0 | 0.00 | 0.00 | 0.00 | 52 | 1014.6 |
| 20260903192538 | 90 | 113 | 4.0 | 5.0 | 0.00 | 0.00 | 0.00 | 53 | 1014.6 |
| 20260903192436 | 90 | 136 | 2.0 | 6.0 | 0.00 | 0.00 | 0.00 | 51 | 1014.6 |
| 20260903192339 | 90 | 110 | 2.0 | 6.0 | 0.00 | 0.00 | 0.00 | 50 | 1014.6 |
| 20260903192238 | 90 | 109 | 1.0 | 6.0 | 0.00 | 0.00 | 0.00 | 50 | 1014.6 |
| 20260903192136 | 90 | 106 | 0.0 | 6.0 | 0.00 | 0.00 | 0.00 | 54 | 1014.6 |
| 20260903192057 | 90 | 103 | 1.0 | 6.0 | 0.00 | 0.00 | 0.00 | 51 | 1014.6 |
| 20260903191934 | 90 | 109 | 2.0 | 6.0 | 0.00 | 0.00 | 0.00 | 52 | 1014.6 |
| 20260903191853 | 90 | 110 | 1.0 | 6.0 | 0.00 | 0.00 | 0.00 | 50 | 1014.6 |
| 20260903191731 | 90 | 109 | 0.0 | 6.0 | 0.00 | 0.00 | 0.00 | 50 | 1014.6 |
| 20260903191700 | 90 | 109 | 2.0 | 6.0 | 0.00 | 0.00 | 0.00 | 50 | 1014.6 |
| 20260903191603 | 90 | 107 | 2.0 | 6.0 | 0.00 | 0.00 | 0.00 | 50 | 1014.6 |
| 20260903191439 | 90 | 34 | 1.0 | 3.0 | 0.00 | 0.00 | 0.00 | 49 | 1014.6 |
| 20260903191339 | 90 | 35 | 1.0 | 3.0 | 0.00 | 0.00 | 0.00 | 48 | 1014.6 |
| 20260903191258 | 90 | 35 | 1.0 | 3.0 | 0.00 | 0.00 | 0.00 | 48 | 1014.7 |
| 20260903191136 | 90 | 35 | 1.0 | 3.0 | 0.00 | 0.00 | 0.00 | 47 | 1014.7 |
| 20260903191035 | 90 | 35 | 1.0 | 3.0 | 0.00 | 0.00 | 0.00 | 47 | 1014.7 |
| 20260903190932 | 90 | 32 | 2.0 | 3.0 | 0.00 | 0.00 | 0.00 | 48 | 1014.7 |
| 20260903190835 | 90 | 35 | 1.0 | 3.0 | 0.00 | 0.00 | 0.00 | 48 | 1014.7 |
| 20260903190733 | 90 | 34 | 0.0 | 3.0 | 0.00 | 0.00 | 0.00 | 48 | 1014.7 |
| 20260903190632 | 90 | 35 | 0.0 | 3.0 | 0.00 | 0.00 | 0.00 | 48 | 1014.7 |
| 20260903190530 | 90 | 35 | 0.0 | 4.0 | 0.00 | 0.00 | 0.00 | 49 | 1014.7 |
| 20260903190448 | 90 | 35 | 1.0 | 4.0 | 0.00 | 0.00 | 0.00 | 51 | 1014.7 |
| 20260903190326 | 90 | 35 | 1.0 | 5.0 | 0.00 | 0.00 | 0.00 | 50 | 1014.7 |
| 20260903190224 | 90 | 37 | 2.0 | 7.0 | 0.00 | 0.00 | 0.00 | 50 | 1014.7 |
| 20260903190155 | 90 | 35 | 2.0 | 7.0 | 0.00 | 0.00 | 0.00 | 50 | 1014.7 |
| 20260903190035 | 90 | 37 | 2.0 | 7.0 | 0.00 | 0.00 | 0.00 | 50 | 1014.7 |
| 20260903185933 | 90 | 34 | 2.0 | 7.0 | 0.00 | 0.00 | 0.00 | 50 | 1014.7 |
| 20260903185834 | 90 | 37 | 2.0 | 7.0 | 0.00 | 0.00 | 0.00 | 50 | 1014.7 |
| 20260903185733 | 90 | 37 | 3.0 | 7.0 | 0.00 | 0.00 | 0.00 | 50 | 1014.8 |
| 20260903185632 | 90 | 40 | 1.0 | 7.0 | 0.00 | 0.00 | 0.00 | 50 | 1014.8 |
| 20260903185531 | 90 | 40 | 3.0 | 7.0 | 0.00 | 0.00 | 0.00 | 49 | 1014.8 |
| 20260903185435 | 90 | 41 | 5.0 | 7.0 | 0.00 | 0.00 | 0.00 | 49 | 1014.8 |
| 20260903185355 | 90 | 44 | 6.0 | 7.0 | 0.00 | 0.00 | 0.00 | 50 | 1014.8 |
| 20260903185232 | 90 | 25 | 6.0 | 7.0 | 0.00 | 0.00 | 0.00 | 50 | 1014.8 |
| 20260903185131 | 90 | 47 | 3.0 | 7.0 | 0.00 | 0.00 | 0.00 | 52 | 1014.8 |
| 20260903185030 | 90 | 49 | 4.0 | 7.0 | 0.00 | 0.00 | 0.00 | 51 | 1014.8 |
| 20260903184929 | 90 | 49 | 5.0 | 7.0 | 0.00 | 0.00 | 0.00 | 50 | 1014.8 |
| 20260903184826 | 90 | 48 | 3.0 | 7.0 | 0.00 | 0.00 | 0.00 | 50 | 1014.8 |
| 20260903184724 | 90 | 48 | 3.0 | 7.0 | 0.00 | 0.00 | 0.00 | 51 | 1014.8 |
| 20260903184655 | 90 | 205 | 0.0 | 3.0 | 0.00 | 0.00 | 0.00 | 51 | 1014.8 |
| 20260903184532 | 90 | 199 | 0.0 | 3.0 | 0.00 | 0.00 | 0.00 | 50 | 1014.8 |
| 20260903184451 | 90 | 198 | 1.0 | 6.0 | 0.00 | 0.00 | 0.00 | 49 | 1014.8 |
| 20260903184327 | 90 | 192 | 1.0 | 6.0 | 0.00 | 0.00 | 0.00 | 51 | 1014.8 |
| 20260903184227 | 90 | 195 | 0.0 | 6.0 | 0.00 | 0.00 | 0.00 | 49 | 1014.8 |
| 20260903184126 | 90 | 196 | 0.0 | 6.0 | 0.00 | 0.00 | 0.00 | 49 | 1014.8 |
| 20260903184025 | 90 | 196 | 1.0 | 6.0 | 0.00 | 0.00 | 0.00 | 50 | 1014.8 |
| 20260903183924 | 90 | 192 | 0.0 | 6.0 | 0.00 | 0.00 | 0.00 | 50 | 1014.8 |
| 20260903183827 | 90 | 192 | 1.0 | 6.0 | 0.00 | 0.00 | 0.00 | 50 | 1014.8 |
| 20260903183725 | 90 | 192 | 1.0 | 6.0 | 0.00 | 0.00 | 0.00 | 52 | 1014.8 |
| 20260903183642 | 90 | 192 | 3.0 | 6.0 | 0.00 | 0.00 | 0.00 | 51 | 1014.8 |
| 20260903183540 | 90 | 191 | 4.0 | 6.0 | 0.00 | 0.00 | 0.00 | 51 | 1014.8 |
| 20260903183439 | 90 | 138 | 2.0 | 4.0 | 0.00 | 0.00 | 0.00 | 51 | 1014.8 |
| 20260903183336 | 90 | 1 | 2.0 | 3.0 | 0.00 | 0.00 | 0.00 | 50 | 1014.8 |
| 20260903183253 | 90 | 344 | 1.0 | 3.0 | 0.00 | 0.00 | 0.00 | 49 | 1014.8 |
| 20260903183203 | 89 | 346 | 0.0 | 3.0 | 0.00 | 0.00 | 0.00 | 49 | 1014.8 |
| 20260903183024 | 89 | 346 | 1.0 | 3.0 | 0.00 | 0.00 | 0.00 | 50 | 1014.8 |
| 20260903182942 | 89 | 344 | 1.0 | 3.0 | 0.00 | 0.00 | 0.00 | 50 | 1014.8 |
| 20260903182900 | 89 | 344 | 1.0 | 3.0 | 0.00 | 0.00 | 0.00 | 51 | 1014.8 |
| 20260903182757 | 89 | 346 | 1.0 | 3.0 | 0.00 | 0.00 | 0.00 | 51 | 1015.2 |
| 20260903182634 | 89 | 344 | 0.0 | 3.0 | 0.00 | 0.00 | 0.00 | 51 | 1015.2 |
| 20260903182533 | 89 | 344 | 0.0 | 3.0 | 0.00 | 0.00 | 0.00 | 50 | 1015.2 |
| 20260903182431 | 89 | 344 | 2.0 | 5.0 | 0.00 | 0.00 | 0.00 | 51 | 1015.2 |
| 20260903182329 | 89 | 360 | 0.0 | 5.0 | 0.00 | 0.00 | 0.00 | 51 | 1015.2 |
| 20260903182231 | 89 | 360 | 0.0 | 5.0 | 0.00 | 0.00 | 0.00 | 51 | 1015.2 |
| 20260903182130 | 89 | 360 | 0.0 | 5.0 | 0.00 | 0.00 | 0.00 | 52 | 1015.2 |
| 20260903182031 | 89 | 360 | 0.0 | 5.0 | 0.00 | 0.00 | 0.00 | 52 | 1015.2 |
| 20260903181930 | 89 | 360 | 1.0 | 5.0 | 0.00 | 0.00 | 0.00 | 52 | 1015.2 |
| 20260903181828 | 89 | 1 | 2.0 | 5.0 | 0.00 | 0.00 | 0.00 | 51 | 1015.2 |
| 20260903181758 | 89 | 1 | 2.0 | 5.0 | 0.00 | 0.00 | 0.00 | 51 | 1015.2 |
| 20260903181645 | 89 | 1 | 3.0 | 5.0 | 0.00 | 0.00 | 0.00 | 51 | 1015.2 |
| 20260903181543 | 89 | 326 | 2.0 | 3.0 | 0.00 | 0.00 | 0.00 | 52 | 1015.2 |
| 20260903181446 | 89 | 326 | 0.0 | 2.0 | 0.00 | 0.00 | 0.00 | 53 | 1015.2 |
| 20260903181342 | 89 | 326 | 0.0 | 2.0 | 0.00 | 0.00 | 0.00 | 53 | 1015.2 |
| 20260903181240 | 89 | 323 | 0.0 | 2.0 | 0.00 | 0.00 | 0.00 | 51 | 1015.4 |
| 20260903181139 | 89 | 326 | 0.0 | 2.0 | 0.00 | 0.00 | 0.00 | 52 | 1015.4 |
| 20260903181036 | 89 | 323 | 0.0 | 2.0 | 0.00 | 0.00 | 0.00 | 50 | 1015.4 |
| 20260903180934 | 89 | 325 | 0.0 | 3.0 | 0.00 | 0.00 | 0.00 | 53 | 1015.4 |
| 20260903180833 | 89 | 323 | 0.0 | 3.0 | 0.00 | 0.00 | 0.00 | 54 | 1015.4 |
| 20260903180736 | 89 | 325 | 0.0 | 3.0 | 0.00 | 0.00 | 0.00 | 55 | 1015.4 |
| 20260903180635 | 89 | 325 | 1.0 | 4.0 | 0.00 | 0.00 | 0.00 | 53 | 1015.4 |
| 20260903180532 | 89 | 326 | 2.0 | 5.0 | 0.00 | 0.00 | 0.00 | 53 | 1015.4 |
| 20260903180431 | 89 | 328 | 2.0 | 6.0 | 0.00 | 0.00 | 0.00 | 50 | 1015.4 |
| 20260903180331 | 89 | 326 | 1.0 | 6.0 | 0.00 | 0.00 | 0.00 | 50 | 1015.4 |
| 20260903180231 | 89 | 326 | 2.0 | 6.0 | 0.00 | 0.00 | 0.00 | 52 | 1015.4 |
| 20260903180202 | 89 | 326 | 2.0 | 6.0 | 0.00 | 0.00 | 0.00 | 53 | 1015.4 |
| 20260903180042 | 89 | 326 | 1.0 | 6.0 | 0.00 | 0.00 | 0.00 | 53 | 1015.4 |
| 20260903175940 | 89 | 325 | 1.0 | 6.0 | 0.00 | 0.00 | 0.00 | 54 | 1015.4 |
| 20260903175838 | 89 | 326 | 2.0 | 6.0 | 0.00 | 0.00 | 0.00 | 55 | 1015.4 |
| 20260903175736 | 89 | 326 | 3.0 | 6.0 | 0.00 | 0.00 | 0.00 | 56 | 1015.5 |
| 20260903175635 | 89 | 325 | 4.0 | 6.0 | 0.00 | 0.00 | 0.00 | 55 | 1015.5 |
| 20260903175533 | 89 | 360 | 0.0 | 6.0 | 0.00 | 0.00 | 0.00 | 53 | 1015.5 |
| 20260903175431 | 89 | 25 | 0.0 | 3.0 | 0.00 | 0.00 | 0.00 | 54 | 1015.5 |
| 20260903175334 | 89 | 27 | 1.0 | 4.0 | 0.00 | 0.00 | 0.00 | 53 | 1015.5 |
| 20260903175233 | 89 | 24 | 2.0 | 4.0 | 0.00 | 0.00 | 0.00 | 51 | 1015.5 |
| 20260903175132 | 89 | 27 | 2.0 | 5.0 | 0.00 | 0.00 | 0.00 | 51 | 1015.5 |
| 20260903175032 | 89 | 21 | 1.0 | 5.0 | 0.00 | 0.00 | 0.00 | 53 | 1015.5 |
| 20260903174934 | 89 | 24 | 0.0 | 6.0 | 0.00 | 0.00 | 0.00 | 51 | 1015.5 |
| 20260903174832 | 89 | 24 | 0.0 | 6.0 | 0.00 | 0.00 | 0.00 | 50 | 1015.5 |
| 20260903174731 | 89 | 27 | 1.0 | 6.0 | 0.00 | 0.00 | 0.00 | 51 | 1015.5 |
| 20260903174703 | 89 | 25 | 2.0 | 6.0 | 0.00 | 0.00 | 0.00 | 51 | 1015.5 |
| 20260903174541 | 89 | 25 | 3.0 | 6.0 | 0.00 | 0.00 | 0.00 | 50 | 1015.5 |
| 20260903174438 | 89 | 25 | 2.0 | 6.0 | 0.00 | 0.00 | 0.00 | 50 | 1015.5 |
| 20260903174337 | 89 | 25 | 3.0 | 6.0 | 0.00 | 0.00 | 0.00 | 51 | 1015.5 |
| 20260903174235 | 89 | 25 | 3.0 | 6.0 | 0.00 | 0.00 | 0.00 | 52 | 1015.6 |
| 20260903174133 | 89 | 25 | 2.0 | 6.0 | 0.00 | 0.00 | 0.00 | 54 | 1015.6 |
| 20260903174032 | 89 | 23 | 1.0 | 3.0 | 0.00 | 0.00 | 0.00 | 53 | 1015.6 |
| 20260903173933 | 89 | 23 | 1.0 | 3.0 | 0.00 | 0.00 | 0.00 | 53 | 1015.6 |
| 20260903173833 | 89 | 23 | 0.0 | 3.0 | 0.00 | 0.00 | 0.00 | 54 | 1015.6 |
| 20260903173732 | 89 | 23 | 0.0 | 4.0 | 0.00 | 0.00 | 0.00 | 54 | 1015.6 |
| 20260903173631 | 89 | 24 | 0.0 | 4.0 | 0.00 | 0.00 | 0.00 | 54 | 1015.6 |
| 20260903173530 | 89 | 23 | 1.0 | 4.0 | 0.00 | 0.00 | 0.00 | 55 | 1015.6 |
| 20260903173430 | 89 | 23 | 1.0 | 4.0 | 0.00 | 0.00 | 0.00 | 53 | 1015.6 |
| 20260903173332 | 89 | 21 | 1.0 | 4.0 | 0.00 | 0.00 | 0.00 | 54 | 1015.6 |
| 20260903173302 | 89 | 23 | 2.0 | 4.0 | 0.00 | 0.00 | 0.00 | 56 | 1015.6 |
| 20260903173152 | 89 | 23 | 1.0 | 4.0 | 0.00 | 0.00 | 0.00 | 56 | 1015.6 |
| 20260903173028 | 89 | 24 | 2.0 | 6.0 | 0.00 | 0.00 | 0.00 | 55 | 1015.6 |
| 20260903172946 | 89 | 23 | 3.0 | 6.0 | 0.00 | 0.00 | 0.00 | 55 | 1015.6 |
| 20260903172905 | 89 | 24 | 2.0 | 6.0 | 0.00 | 0.00 | 0.00 | 55 | 1015.6 |
| 20260903172803 | 89 | 27 | 1.0 | 6.0 | 0.00 | 0.00 | 0.00 | 55 | 1015.9 |
| 20260903172702 | 89 | 28 | 1.0 | 6.0 | 0.00 | 0.00 | 0.00 | 54 | 1015.9 |
| 20260903172540 | 89 | 24 | 0.0 | 6.0 | 0.00 | 0.00 | 0.00 | 53 | 1015.9 |
| 20260903172438 | 89 | 28 | 2.0 | 6.0 | 0.00 | 0.00 | 0.00 | 54 | 1015.9 |
| 20260903172340 | 89 | 28 | 2.0 | 6.0 | 0.00 | 0.00 | 0.00 | 52 | 1015.9 |
| 20260903172238 | 88 | 27 | 3.0 | 6.0 | 0.00 | 0.00 | 0.00 | 53 | 1015.9 |
| 20260903172158 | 88 | 25 | 2.0 | 6.0 | 0.00 | 0.00 | 0.00 | 52 | 1015.9 |
| 20260903172034 | 88 | 21 | 1.0 | 5.0 | 0.00 | 0.00 | 0.00 | 51 | 1015.9 |
| 20260903171933 | 88 | 21 | 2.0 | 5.0 | 0.00 | 0.00 | 0.00 | 53 | 1015.9 |
| 20260903171831 | 88 | 20 | 3.0 | 5.0 | 0.00 | 0.00 | 0.00 | 52 | 1015.9 |
| 20260903171741 | 88 | 20 | 3.0 | 5.0 | 0.00 | 0.00 | 0.00 | 53 | 1015.9 |
| 20260903171655 | 88 | 20 | 2.0 | 5.0 | 0.00 | 0.00 | 0.00 | 53 | 1015.9 |
| 20260903171553 | 88 | 18 | 3.0 | 5.0 | 0.00 | 0.00 | 0.00 | 53 | 1015.9 |
| 20260903171430 | 88 | 20 | 2.0 | 4.0 | 0.00 | 0.00 | 0.00 | 54 | 1015.9 |
| 20260903171328 | 88 | 17 | 1.0 | 4.0 | 0.00 | 0.00 | 0.00 | 54 | 1015.9 |
| 20260903171227 | 88 | 21 | 2.0 | 4.0 | 0.00 | 0.00 | 0.00 | 56 | 1016.1 |
| 20260903171124 | 88 | 21 | 1.0 | 4.0 | 0.00 | 0.00 | 0.00 | 56 | 1016.1 |
| 20260903171042 | 88 | 21 | 1.0 | 5.0 | 0.00 | 0.00 | 0.00 | 55 | 1016.1 |
| 20260903170939 | 88 | 21 | 1.0 | 5.0 | 0.00 | 0.00 | 0.00 | 54 | 1016.1 |
| 20260903170840 | 88 | 21 | 1.0 | 5.0 | 0.00 | 0.00 | 0.00 | 53 | 1016.1 |
| 20260903170739 | 89 | 21 | 1.0 | 5.0 | 0.00 | 0.00 | 0.00 | 55 | 1016.1 |
| 20260903170637 | 89 | 23 | 2.0 | 5.0 | 0.00 | 0.00 | 0.00 | 56 | 1016.1 |
| 20260903170535 | 89 | 20 | 3.0 | 5.0 | 0.00 | 0.00 | 0.00 | 56 | 1016.1 |
| 20260903170433 | 89 | 20 | 2.0 | 5.0 | 0.00 | 0.00 | 0.00 | 54 | 1016.1 |
| 20260903170332 | 89 | 20 | 2.0 | 5.0 | 0.00 | 0.00 | 0.00 | 53 | 1016.1 |
| 20260903170241 | 89 | 23 | 4.0 | 5.0 | 0.00 | 0.00 | 0.00 | 53 | 1016.1 |
| 20260903170151 | 89 | 21 | 3.0 | 5.0 | 0.00 | 0.00 | 0.00 | 53 | 1016.1 |
| 20260903170032 | 89 | 24 | 2.0 | 5.0 | 0.00 | 0.00 | 0.00 | 53 | 1016.1 |
| 20260903165953 | 89 | 24 | 0.0 | 3.0 | 0.00 | 0.00 | 0.00 | 55 | 1016.1 |
| 20260903165831 | 89 | 23 | 0.0 | 3.0 | 0.00 | 0.00 | 0.00 | 55 | 1016.1 |
| 20260903165729 | 89 | 23 | 2.0 | 3.0 | 0.00 | 0.00 | 0.00 | 54 | 1016.2 |
| 20260903165630 | 89 | 24 | 2.0 | 3.0 | 0.00 | 0.00 | 0.00 | 54 | 1016.2 |
| 20260903165548 | 89 | 24 | 1.0 | 3.0 | 0.00 | 0.00 | 0.00 | 54 | 1016.2 |
| 20260903165427 | 89 | 23 | 0.0 | 3.0 | 0.00 | 0.00 | 0.00 | 53 | 1016.2 |
| 20260903165333 | 89 | 24 | 1.0 | 3.0 | 0.00 | 0.00 | 0.00 | 53 | 1016.2 |
| 20260903165231 | 89 | 25 | 2.0 | 3.0 | 0.00 | 0.00 | 0.00 | 54 | 1016.2 |
| 20260903165130 | 89 | 23 | 0.0 | 5.0 | 0.00 | 0.00 | 0.00 | 53 | 1016.2 |
| 20260903165028 | 89 | 18 | 2.0 | 5.0 | 0.00 | 0.00 | 0.00 | 53 | 1016.2 |
| 20260903164947 | 89 | 25 | 2.0 | 5.0 | 0.00 | 0.00 | 0.00 | 53 | 1016.2 |
| 20260903164905 | 89 | 21 | 2.0 | 5.0 | 0.00 | 0.00 | 0.00 | 54 | 1016.2 |
| 20260903164801 | 89 | 24 | 2.0 | 5.0 | 0.00 | 0.00 | 0.00 | 54 | 1016.2 |
| 20260903164711 | 89 | 25 | 2.0 | 5.0 | 0.00 | 0.00 | 0.00 | 54 | 1016.2 |
| 20260903164549 | 88 | 25 | 2.0 | 5.0 | 0.00 | 0.00 | 0.00 | 55 | 1016.2 |
| 20260903164446 | 88 | 24 | 2.0 | 7.0 | 0.00 | 0.00 | 0.00 | 55 | 1016.2 |
| 20260903164348 | 88 | 25 | 3.0 | 7.0 | 0.00 | 0.00 | 0.00 | 55 | 1016.2 |
| 20260903164246 | 88 | 24 | 3.0 | 7.0 | 0.00 | 0.00 | 0.00 | 55 | 1016.3 |
| 20260903164204 | 88 | 24 | 3.0 | 7.0 | 0.00 | 0.00 | 0.00 | 55 | 1016.3 |
| 20260903164041 | 88 | 24 | 3.0 | 7.0 | 0.00 | 0.00 | 0.00 | 54 | 1016.3 |
| 20260903163939 | 88 | 20 | 1.0 | 7.0 | 0.00 | 0.00 | 0.00 | 52 | 1016.3 |
| 20260903163837 | 88 | 21 | 1.0 | 7.0 | 0.00 | 0.00 | 0.00 | 51 | 1016.3 |
| 20260903163737 | 88 | 23 | 1.0 | 7.0 | 0.00 | 0.00 | 0.00 | 52 | 1016.3 |
| 20260903163634 | 88 | 23 | 3.0 | 7.0 | 0.00 | 0.00 | 0.00 | 53 | 1016.3 |
| 20260903163536 | 88 | 21 | 3.0 | 7.0 | 0.00 | 0.00 | 0.00 | 54 | 1016.3 |
| 20260903163435 | 88 | 6 | 1.0 | 5.0 | 0.00 | 0.00 | 0.00 | 54 | 1016.3 |
| 20260903163333 | 88 | 7 | 0.0 | 5.0 | 0.00 | 0.00 | 0.00 | 55 | 1016.3 |
| 20260903163243 | 88 | 6 | 1.0 | 5.0 | 0.00 | 0.00 | 0.00 | 56 | 1016.3 |
| 20260903163153 | 88 | 6 | 2.0 | 5.0 | 0.00 | 0.00 | 0.00 | 54 | 1016.3 |
| 20260903163032 | 88 | 6 | 2.0 | 5.0 | 0.00 | 0.00 | 0.00 | 53 | 1016.3 |
| 20260903162930 | 88 | 3 | 3.0 | 5.0 | 0.00 | 0.00 | 0.00 | 55 | 1016.3 |
| 20260903162833 | 88 | 7 | 2.0 | 5.0 | 0.00 | 0.00 | 0.00 | 55 | 1016.3 |
| 20260903162732 | 88 | 7 | 2.0 | 5.0 | 0.00 | 0.00 | 0.00 | 54 | 1016.5 |
| 20260903162650 | 88 | 10 | 3.0 | 5.0 | 0.00 | 0.00 | 0.00 | 53 | 1016.5 |
| 20260903162528 | 88 | 11 | 4.0 | 5.0 | 0.00 | 0.00 | 0.00 | 53 | 1016.5 |
| 20260903162425 | 88 | 10 | 2.0 | 5.0 | 0.00 | 0.00 | 0.00 | 54 | 1016.5 |
| 20260903162343 | 88 | 8 | 1.0 | 5.0 | 0.00 | 0.00 | 0.00 | 54 | 1016.5 |
| 20260903162242 | 87 | 8 | 2.0 | 5.0 | 0.00 | 0.00 | 0.00 | 54 | 1016.5 |
| 20260903162124 | 87 | 7 | 3.0 | 5.0 | 0.00 | 0.00 | 0.00 | 53 | 1016.5 |
| 20260903162043 | 87 | 8 | 1.0 | 4.0 | 0.00 | 0.00 | 0.00 | 52 | 1016.5 |
| 20260903161942 | 87 | 10 | 2.0 | 4.0 | 0.00 | 0.00 | 0.00 | 53 | 1016.5 |
| 20260903161839 | 87 | 10 | 3.0 | 4.0 | 0.00 | 0.00 | 0.00 | 54 | 1016.5 |
| 20260903161757 | 87 | 10 | 3.0 | 4.0 | 0.00 | 0.00 | 0.00 | 54 | 1016.5 |
| 20260903161706 | 87 | 10 | 0.0 | 4.0 | 0.00 | 0.00 | 0.00 | 53 | 1016.5 |
| 20260903161542 | 87 | 10 | 0.0 | 3.0 | 0.00 | 0.00 | 0.00 | 53 | 1016.5 |
| 20260903161440 | 87 | 8 | 1.0 | 3.0 | 0.00 | 0.00 | 0.00 | 53 | 1016.5 |
| 20260903161343 | 87 | 10 | 2.0 | 3.0 | 0.00 | 0.00 | 0.00 | 54 | 1016.5 |
| 20260903161241 | 87 | 10 | 2.0 | 3.0 | 0.00 | 0.00 | 0.00 | 53 | 1016.6 |
| 20260903161159 | 87 | 10 | 2.0 | 5.0 | 0.00 | 0.00 | 0.00 | 53 | 1016.6 |
| 20260903161037 | 87 | 7 | 1.0 | 5.0 | 0.00 | 0.00 | 0.00 | 54 | 1016.6 |
| 20260903160955 | 87 | 8 | 1.0 | 5.0 | 0.00 | 0.00 | 0.00 | 57 | 1016.6 |
| 20260903160832 | 87 | 10 | 0.0 | 5.0 | 0.00 | 0.00 | 0.00 | 56 | 1016.6 |
| 20260903160731 | 87 | 8 | 0.0 | 5.0 | 0.00 | 0.00 | 0.00 | 56 | 1016.6 |
| 20260903160627 | 87 | 8 | 2.0 | 5.0 | 0.00 | 0.00 | 0.00 | 56 | 1016.6 |
| 20260903160528 | 87 | 7 | 2.0 | 5.0 | 0.00 | 0.00 | 0.00 | 58 | 1016.6 |
| 20260903160427 | 87 | 8 | 2.0 | 5.0 | 0.00 | 0.00 | 0.00 | 58 | 1016.6 |
| 20260903160326 | 87 | 10 | 4.0 | 5.0 | 0.00 | 0.00 | 0.00 | 57 | 1016.6 |
| 20260903160235 | 87 | 10 | 0.0 | 3.0 | 0.00 | 0.00 | 0.00 | 56 | 1016.6 |
| 20260903160147 | 87 | 8 | 1.0 | 3.0 | 0.00 | 0.00 | 0.00 | 56 | 1016.6 |
| 20260903160043 | 86 | 8 | 1.0 | 3.0 | 0.00 | 0.00 | 0.00 | 55 | 1016.6 |
| 20260903155940 | 86 | 8 | 1.0 | 3.0 | 0.00 | 0.00 | 0.00 | 56 | 1016.6 |
| 20260903155839 | 86 | 7 | 1.0 | 3.0 | 0.00 | 0.00 | 0.00 | 55 | 1016.6 |
| 20260903155742 | 86 | 7 | 0.0 | 3.0 | 0.00 | 0.00 | 0.00 | 55 | 1016.6 |
| 20260903155640 | 86 | 8 | 0.0 | 3.0 | 0.00 | 0.00 | 0.00 | 56 | 1016.6 |
| 20260903155558 | 86 | 8 | 1.0 | 3.0 | 0.00 | 0.00 | 0.00 | 56 | 1016.6 |
| 20260903155436 | 86 | 8 | 2.0 | 3.0 | 0.00 | 0.00 | 0.00 | 59 | 1016.6 |
| 20260903155334 | 86 | 8 | 2.0 | 3.0 | 0.00 | 0.00 | 0.00 | 58 | 1016.6 |
| 20260903155232 | 86 | 8 | 1.0 | 3.0 | 0.00 | 0.00 | 0.00 | 59 | 1016.6 |
| 20260903155130 | 86 | 8 | 2.0 | 3.0 | 0.00 | 0.00 | 0.00 | 61 | 1016.6 |
| 20260903155032 | 86 | 10 | 1.0 | 3.0 | 0.00 | 0.00 | 0.00 | 62 | 1016.6 |
| 20260903154949 | 86 | 8 | 2.0 | 3.0 | 0.00 | 0.00 | 0.00 | 62 | 1016.6 |
| 20260903154828 | 86 | 8 | 0.0 | 3.0 | 0.00 | 0.00 | 0.00 | 61 | 1016.6 |
| 20260903154727 | 86 | 8 | 2.0 | 3.0 | 0.00 | 0.00 | 0.00 | 61 | 1016.6 |
| 20260903154658 | 86 | 23 | 2.0 | 3.0 | 0.00 | 0.00 | 0.00 | 61 | 1016.6 |
| 20260903154535 | 86 | 24 | 2.0 | 3.0 | 0.00 | 0.00 | 0.00 | 62 | 1016.6 |
| 20260903154433 | 85 | 30 | 0.0 | 4.0 | 0.00 | 0.00 | 0.00 | 64 | 1016.6 |
| 20260903154336 | 85 | 27 | 0.0 | 5.0 | 0.00 | 0.00 | 0.00 | 64 | 1016.6 |
| 20260903154235 | 85 | 28 | 0.0 | 5.0 | 0.00 | 0.00 | 0.00 | 64 | 1015.7 |
| 20260903154133 | 85 | 28 | 0.0 | 5.0 | 0.00 | 0.00 | 0.00 | 64 | 1015.7 |
| 20260903154032 | 85 | 28 | 1.0 | 5.0 | 0.00 | 0.00 | 0.00 | 63 | 1015.7 |
| 20260903153953 | 85 | 30 | 2.0 | 5.0 | 0.00 | 0.00 | 0.00 | 63 | 1015.7 |
| 20260903153830 | 85 | 30 | 1.0 | 5.0 | 0.00 | 0.00 | 0.00 | 63 | 1015.7 |
| 20260903153730 | 85 | 30 | 2.0 | 5.0 | 0.00 | 0.00 | 0.00 | 64 | 1015.7 |
| 20260903153634 | 85 | 28 | 2.0 | 5.0 | 0.00 | 0.00 | 0.00 | 65 | 1015.7 |
| 20260903153530 | 85 | 30 | 3.0 | 5.0 | 0.00 | 0.00 | 0.00 | 65 | 1015.7 |
| 20260903153427 | 85 | 45 | 0.0 | 2.0 | 0.00 | 0.00 | 0.00 | 65 | 1015.7 |
| 20260903153325 | 85 | 47 | 0.0 | 2.0 | 0.00 | 0.00 | 0.00 | 63 | 1015.7 |
| 20260903153244 | 85 | 47 | 1.0 | 3.0 | 0.00 | 0.00 | 0.00 | 63 | 1015.7 |
| 20260903153216 | 85 | 47 | 1.0 | 3.0 | 0.00 | 0.00 | 0.00 | 62 | 1015.7 |
| 20260903153031 | 85 | 45 | 2.0 | 3.0 | 0.00 | 0.00 | 0.00 | 62 | 1015.7 |
| 20260903152948 | 85 | 47 | 2.0 | 3.0 | 0.00 | 0.00 | 0.00 | 66 | 1015.7 |
| 20260903152826 | 84 | 47 | 1.0 | 3.0 | 0.00 | 0.00 | 0.00 | 65 | 1015.7 |
| 20260903152727 | 84 | 47 | 0.0 | 3.0 | 0.00 | 0.00 | 0.00 | 64 | 1016.5 |
| 20260903152626 | 84 | 47 | 1.0 | 3.0 | 0.00 | 0.00 | 0.00 | 64 | 1016.5 |
| 20260903152526 | 84 | 45 | 0.0 | 3.0 | 0.00 | 0.00 | 0.00 | 65 | 1016.5 |
| 20260903152424 | 84 | 40 | 2.0 | 3.0 | 0.00 | 0.00 | 0.00 | 64 | 1016.5 |
| 20260903152343 | 84 | 47 | 1.0 | 3.0 | 0.00 | 0.00 | 0.00 | 64 | 1016.5 |
| 20260903152222 | 84 | 47 | 2.0 | 3.0 | 0.00 | 0.00 | 0.00 | 65 | 1016.5 |
| 20260903152126 | 84 | 47 | 2.0 | 3.0 | 0.00 | 0.00 | 0.00 | 66 | 1016.5 |
| 20260903152027 | 84 | 47 | 2.0 | 3.0 | 0.00 | 0.00 | 0.00 | 68 | 1016.5 |
| 20260903151926 | 84 | 47 | 0.0 | 3.0 | 0.00 | 0.00 | 0.00 | 69 | 1016.5 |
| 20260903151826 | 84 | 48 | 0.0 | 3.0 | 0.00 | 0.00 | 0.00 | 68 | 1016.5 |
| 20260903151735 | 84 | 47 | 1.0 | 3.0 | 0.00 | 0.00 | 0.00 | 68 | 1016.5 |
| 20260903151645 | 84 | 47 | 1.0 | 3.0 | 0.00 | 0.00 | 0.00 | 68 | 1016.5 |
| 20260903151542 | 84 | 47 | 1.0 | 3.0 | 0.00 | 0.00 | 0.00 | 68 | 1016.5 |
| 20260903151441 | 84 | 48 | 2.0 | 4.0 | 0.00 | 0.00 | 0.00 | 70 | 1016.5 |
| 20260903151343 | 84 | 48 | 2.0 | 4.0 | 0.00 | 0.00 | 0.00 | 71 | 1016.5 |
| 20260903151243 | 84 | 48 | 2.0 | 5.0 | 0.00 | 0.00 | 0.00 | 71 | 1016.4 |
| 20260903151201 | 84 | 49 | 1.0 | 5.0 | 0.00 | 0.00 | 0.00 | 71 | 1016.4 |
| 20260903151041 | 84 | 49 | 0.0 | 5.0 | 0.00 | 0.00 | 0.00 | 71 | 1016.4 |
| 20260903150940 | 84 | 52 | 1.0 | 5.0 | 0.00 | 0.00 | 0.00 | 70 | 1016.4 |
| 20260903150838 | 84 | 51 | 2.0 | 5.0 | 0.00 | 0.00 | 0.00 | 70 | 1016.4 |
| 20260903150739 | 84 | 52 | 2.0 | 5.0 | 0.00 | 0.00 | 0.00 | 70 | 1016.4 |
| 20260903150642 | 83 | 54 | 3.0 | 5.0 | 0.00 | 0.00 | 0.00 | 70 | 1016.4 |
| 20260903150540 | 83 | 52 | 3.0 | 5.0 | 0.00 | 0.00 | 0.00 | 71 | 1016.4 |
| 20260903150459 | 83 | 56 | 3.0 | 5.0 | 0.00 | 0.00 | 0.00 | 71 | 1016.4 |
| 20260903150337 | 83 | 56 | 2.0 | 5.0 | 0.00 | 0.00 | 0.00 | 71 | 1016.4 |
| 20260903150235 | 83 | 56 | 1.0 | 2.0 | 0.00 | 0.00 | 0.00 | 71 | 1016.4 |
| 20260903150204 | 83 | 49 | 0.0 | 2.0 | 0.00 | 0.00 | 0.00 | 71 | 1016.4 |
| 20260903150041 | 83 | 56 | 0.0 | 1.0 | 0.00 | 0.00 | 0.00 | 72 | 1016.4 |
| 20260903145939 | 83 | 54 | 0.0 | 1.0 | 0.00 | 0.00 | 0.00 | 72 | 1016.4 |
| 20260903145841 | 83 | 54 | 1.0 | 1.0 | 0.00 | 0.00 | 0.00 | 71 | 1016.4 |
| 20260903145759 | 83 | 56 | 0.0 | 0.0 | 0.00 | 0.00 | 0.00 | 71 | 1015.6 |
| 20260903145656 | 83 | 58 | 0.0 | 0.0 | 0.00 | 0.00 | 0.00 | 71 | 1015.6 |
| 20260903145534 | 83 | 56 | 0.0 | 0.0 | 0.00 | 0.00 | 0.00 | 71 | 1015.6 |
| 20260903145432 | 83 | 56 | 0.0 | 0.0 | 0.00 | 0.00 | 0.00 | 71 | 1015.6 |
| 20260903145330 | 83 | 56 | 0.0 | 0.0 | 0.00 | 0.00 | 0.00 | 71 | 1015.6 |
| 20260903145232 | 83 | 56 | 0.0 | 0.0 | 0.00 | 0.00 | 0.00 | 71 | 1015.6 |
| 20260903145136 | 83 | 55 | 0.0 | 0.0 | 0.00 | 0.00 | 0.00 | 71 | 1015.6 |
| 20260903145035 | 83 | 56 | 0.0 | 1.0 | 0.00 | 0.00 | 0.00 | 71 | 1015.6 |
| 20260903144933 | 83 | 52 | 0.0 | 1.0 | 0.00 | 0.00 | 0.00 | 71 | 1015.6 |
| 20260903144830 | 83 | 56 | 0.0 | 1.0 | 0.00 | 0.00 | 0.00 | 71 | 1015.6 |
| 20260903144728 | 83 | 56 | 0.0 | 1.0 | 0.00 | 0.00 | 0.00 | 71 | 1015.6 |
| 20260903144658 | 83 | 55 | 0.0 | 1.0 | 0.00 | 0.00 | 0.00 | 70 | 1015.6 |
| 20260903144536 | 82 | 56 | 0.0 | 1.0 | 0.00 | 0.00 | 0.00 | 70 | 1015.6 |
| 20260903144439 | 82 | 56 | 0.0 | 1.0 | 0.00 | 0.00 | 0.00 | 70 | 1015.6 |
| 20260903144357 | 82 | 54 | 0.0 | 1.0 | 0.00 | 0.00 | 0.00 | 69 | 1015.6 |
| 20260903144255 | 82 | 56 | 0.0 | 1.0 | 0.00 | 0.00 | 0.00 | 70 | 1015.6 |
| 20260903144133 | 82 | 56 | 0.0 | 1.0 | 0.00 | 0.00 | 0.00 | 69 | 1015.6 |
| 20260903144030 | 82 | 56 | 0.0 | 1.0 | 0.00 | 0.00 | 0.00 | 68 | 1015.6 |
| 20260903143930 | 82 | 54 | 1.0 | 1.0 | 0.00 | 0.00 | 0.00 | 69 | 1015.6 |
| 20260903143851 | 82 | 56 | 0.0 | 1.0 | 0.00 | 0.00 | 0.00 | 70 | 1015.6 |
| 20260903143729 | 82 | 56 | 0.0 | 1.0 | 0.00 | 0.00 | 0.00 | 69 | 1015.6 |
| 20260903143630 | 82 | 56 | 0.0 | 1.0 | 0.00 | 0.00 | 0.00 | 70 | 1015.6 |
| 20260903143529 | 82 | 56 | 0.0 | 1.0 | 0.00 | 0.00 | 0.00 | 71 | 1015.6 |
| 20260903143427 | 82 | 55 | 0.0 | 1.0 | 0.00 | 0.00 | 0.00 | 71 | 1015.6 |
| 20260903143327 | 82 | 56 | 0.0 | 1.0 | 0.00 | 0.00 | 0.00 | 71 | 1015.6 |
| 20260903143225 | 82 | 56 | 0.0 | 1.0 | 0.00 | 0.00 | 0.00 | 71 | 1015.6 |
| 20260903143155 | 82 | 56 | 0.0 | 0.0 | 0.00 | 0.00 | 0.00 | 70 | 1015.6 |
| 20260903143030 | 82 | 56 | 0.0 | 2.0 | 0.00 | 0.00 | 0.00 | 70 | 1015.6 |
| 20260903142932 | 82 | 55 | 0.0 | 2.0 | 0.00 | 0.00 | 0.00 | 71 | 1015.6 |
| 20260903142831 | 82 | 56 | 0.0 | 2.0 | 0.00 | 0.00 | 0.00 | 70 | 1015.6 |
| 20260903142729 | 82 | 56 | 0.0 | 2.0 | 0.00 | 0.00 | 0.00 | 70 | 1015.6 |
| 20260903142627 | 82 | 55 | 0.0 | 2.0 | 0.00 | 0.00 | 0.00 | 70 | 1015.6 |
| 20260903142525 | 82 | 56 | 0.0 | 2.0 | 0.00 | 0.00 | 0.00 | 69 | 1015.6 |
| 20260903142443 | 82 | 56 | 0.0 | 3.0 | 0.00 | 0.00 | 0.00 | 69 | 1015.6 |
| 20260903142342 | 82 | 56 | 0.0 | 3.0 | 0.00 | 0.00 | 0.00 | 69 | 1015.6 |
| 20260903142224 | 82 | 56 | 1.0 | 3.0 | 0.00 | 0.00 | 0.00 | 69 | 1015.6 |
| 20260903142143 | 82 | 55 | 1.0 | 3.0 | 0.00 | 0.00 | 0.00 | 69 | 1015.6 |
| 20260903142042 | 82 | 55 | 0.0 | 3.0 | 0.00 | 0.00 | 0.00 | 69 | 1015.6 |
| 20260903141940 | 82 | 54 | 1.0 | 3.0 | 0.00 | 0.00 | 0.00 | 69 | 1015.6 |
| 20260903141838 | 82 | 56 | 1.0 | 3.0 | 0.00 | 0.00 | 0.00 | 71 | 1015.6 |
| 20260903141757 | 81 | 58 | 1.0 | 3.0 | 0.00 | 0.00 | 0.00 | 71 | 1015.6 |
| 20260903141704 | 81 | 56 | 2.0 | 3.0 | 0.00 | 0.00 | 0.00 | 71 | 1015.6 |
| 20260903141525 | 81 | 54 | 0.0 | 2.0 | 0.00 | 0.00 | 0.00 | 70 | 1015.6 |
| 20260903141425 | 81 | 56 | 0.0 | 2.0 | 0.00 | 0.00 | 0.00 | 70 | 1015.6 |
| 20260903141343 | 81 | 56 | 0.0 | 2.0 | 0.00 | 0.00 | 0.00 | 70 | 1015.6 |
| 20260903141240 | 81 | 56 | 0.0 | 2.0 | 0.00 | 0.00 | 0.00 | 70 | 1015.6 |
| 20260903141200 | 81 | 56 | 1.0 | 2.0 | 0.00 | 0.00 | 0.00 | 70 | 1015.6 |
| 20260903141037 | 81 | 55 | 1.0 | 2.0 | 0.00 | 0.00 | 0.00 | 71 | 1015.6 |
| 20260903140934 | 81 | 56 | 1.0 | 2.0 | 0.00 | 0.00 | 0.00 | 71 | 1015.6 |
| 20260903140833 | 81 | 55 | 0.0 | 1.0 | 0.00 | 0.00 | 0.00 | 71 | 1015.6 |
| 20260903140735 | 81 | 54 | 0.0 | 1.0 | 0.00 | 0.00 | 0.00 | 71 | 1015.6 |
| 20260903140653 | 81 | 56 | 0.0 | 1.0 | 0.00 | 0.00 | 0.00 | 71 | 1015.6 |
| 20260903140530 | 81 | 56 | 0.0 | 2.0 | 0.00 | 0.00 | 0.00 | 71 | 1015.6 |
| 20260903140429 | 81 | 56 | 0.0 | 2.0 | 0.00 | 0.00 | 0.00 | 71 | 1015.6 |
| 20260903140327 | 81 | 56 | 0.0 | 2.0 | 0.00 | 0.00 | 0.00 | 71 | 1015.6 |
| 20260903140225 | 81 | 56 | 0.0 | 3.0 | 0.00 | 0.00 | 0.00 | 70 | 1015.6 |
| 20260903140156 | 81 | 54 | 0.0 | 3.0 | 0.00 | 0.00 | 0.00 | 70 | 1015.6 |
| 20260903140031 | 81 | 55 | 0.0 | 3.0 | 0.00 | 0.00 | 0.00 | 68 | 1015.6 |
| 20260903135934 | 81 | 54 | 0.0 | 3.0 | 0.00 | 0.00 | 0.00 | 69 | 1015.6 |
| 20260903135833 | 81 | 56 | 0.0 | 3.0 | 0.00 | 0.00 | 0.00 | 69 | 1015.6 |
| 20260903135732 | 81 | 55 | 1.0 | 3.0 | 0.00 | 0.00 | 0.00 | 69 | 1015.6 |
| 20260903135630 | 81 | 55 | 1.0 | 3.0 | 0.00 | 0.00 | 0.00 | 70 | 1015.6 |
| 20260903135529 | 81 | 54 | 1.0 | 3.0 | 0.00 | 0.00 | 0.00 | 69 | 1015.6 |
| 20260903135427 | 81 | 56 | 1.0 | 3.0 | 0.00 | 0.00 | 0.00 | 68 | 1015.6 |
| 20260903135327 | 81 | 56 | 0.0 | 2.0 | 0.00 | 0.00 | 0.00 | 68 | 1015.6 |
| 20260903135230 | 81 | 56 | 1.0 | 2.0 | 0.00 | 0.00 | 0.00 | 68 | 1015.6 |
| 20260903135128 | 81 | 55 | 1.0 | 2.0 | 0.00 | 0.00 | 0.00 | 69 | 1015.6 |
| 20260903135027 | 81 | 55 | 0.0 | 2.0 | 0.00 | 0.00 | 0.00 | 69 | 1015.6 |
| 20260903134945 | 81 | 56 | 0.0 | 2.0 | 0.00 | 0.00 | 0.00 | 69 | 1015.6 |
| 20260903134903 | 80 | 56 | 0.0 | 2.0 | 0.00 | 0.00 | 0.00 | 68 | 1015.6 |
| 20260903134740 | 80 | 56 | 0.0 | 2.0 | 0.00 | 0.00 | 0.00 | 69 | 1015.6 |
| 20260903134648 | 80 | 56 | 0.0 | 2.0 | 0.00 | 0.00 | 0.00 | 69 | 1015.6 |
| 20260903134525 | 80 | 56 | 0.0 | 2.0 | 0.00 | 0.00 | 0.00 | 69 | 1015.6 |
| 20260903134448 | 80 | 56 | 1.0 | 2.0 | 0.00 | 0.00 | 0.00 | 69 | 1015.6 |
| 20260903134325 | 80 | 55 | 0.0 | 1.0 | 0.00 | 0.00 | 0.00 | 69 | 1015.6 |
| 20260903134224 | 80 | 56 | 0.0 | 0.0 | 0.00 | 0.00 | 0.00 | 69 | 1015.4 |
| 20260903134143 | 80 | 56 | 0.0 | 0.0 | 0.00 | 0.00 | 0.00 | 70 | 1015.4 |
| 20260903134101 | 80 | 56 | 0.0 | 0.0 | 0.00 | 0.00 | 0.00 | 70 | 1015.4 |
| 20260903133957 | 80 | 56 | 0.0 | 0.0 | 0.00 | 0.00 | 0.00 | 70 | 1015.4 |
| 20260903133837 | 80 | 56 | 0.0 | 2.0 | 0.00 | 0.00 | 0.00 | 70 | 1015.4 |
| 20260903133754 | 80 | 51 | 0.0 | 2.0 | 0.00 | 0.00 | 0.00 | 70 | 1015.4 |
| 20260903133631 | 80 | 56 | 0.0 | 2.0 | 0.00 | 0.00 | 0.00 | 70 | 1015.4 |
| 20260903133535 | 80 | 56 | 0.0 | 2.0 | 0.00 | 0.00 | 0.00 | 71 | 1015.4 |
| 20260903133453 | 80 | 55 | 0.0 | 2.0 | 0.00 | 0.00 | 0.00 | 70 | 1015.4 |
| 20260903133330 | 80 | 56 | 0.0 | 2.0 | 0.00 | 0.00 | 0.00 | 70 | 1015.4 |
| 20260903133249 | 80 | 56 | 0.0 | 2.0 | 0.00 | 0.00 | 0.00 | 70 | 1015.4 |
| 20260903133221 | 80 | 55 | 0.0 | 2.0 | 0.00 | 0.00 | 0.00 | 70 | 1015.4 |
| 20260903133036 | 80 | 56 | 0.0 | 2.0 | 0.00 | 0.00 | 0.00 | 70 | 1015.4 |
| 20260903132937 | 80 | 56 | 0.0 | 2.0 | 0.00 | 0.00 | 0.00 | 70 | 1015.4 |
| 20260903132836 | 80 | 52 | 0.0 | 1.0 | 0.00 | 0.00 | 0.00 | 70 | 1015.4 |
| 20260903132740 | 80 | 56 | 0.0 | 1.0 | 0.00 | 0.00 | 0.00 | 70 | 1015.6 |
| 20260903132638 | 79 | 55 | 0.0 | 1.0 | 0.00 | 0.00 | 0.00 | 71 | 1015.6 |
| 20260903132537 | 79 | 55 | 0.0 | 1.0 | 0.00 | 0.00 | 0.00 | 71 | 1015.6 |
| 20260903132500 | 79 | 56 | 0.0 | 1.0 | 0.00 | 0.00 | 0.00 | 71 | 1015.6 |
| 20260903132337 | 79 | 55 | 0.0 | 1.0 | 0.00 | 0.00 | 0.00 | 71 | 1015.6 |
| 20260903132236 | 79 | 56 | 0.0 | 1.0 | 0.00 | 0.00 | 0.00 | 71 | 1015.6 |
| 20260903132155 | 79 | 56 | 0.0 | 1.0 | 0.00 | 0.00 | 0.00 | 71 | 1015.6 |
| 20260903132052 | 79 | 54 | 0.0 | 1.0 | 0.00 | 0.00 | 0.00 | 71 | 1015.6 |
| 20260903131935 | 79 | 55 | 0.0 | 1.0 | 0.00 | 0.00 | 0.00 | 71 | 1015.6 |
| 20260903131837 | 79 | 55 | 1.0 | 1.0 | 0.00 | 0.00 | 0.00 | 70 | 1015.6 |
| 20260903131756 | 79 | 56 | 0.0 | 1.0 | 0.00 | 0.00 | 0.00 | 71 | 1015.6 |
| 20260903131726 | 79 | 56 | 0.0 | 0.0 | 0.00 | 0.00 | 0.00 | 71 | 1015.6 |
| 20260903131543 | 79 | 56 | 0.0 | 0.0 | 0.00 | 0.00 | 0.00 | 71 | 1015.6 |
| 20260903131442 | 79 | 55 | 0.0 | 0.0 | 0.00 | 0.00 | 0.00 | 71 | 1015.6 |
| 20260903131340 | 79 | 56 | 0.0 | 0.0 | 0.00 | 0.00 | 0.00 | 71 | 1015.6 |
| 20260903131225 | 79 | 56 | 0.0 | 0.0 | 0.00 | 0.00 | 0.00 | 72 | 1015.6 |
| 20260903131123 | 79 | 55 | 0.0 | 0.0 | 0.00 | 0.00 | 0.00 | 72 | 1015.6 |
| 20260903131043 | 79 | 56 | 0.0 | 0.0 | 0.00 | 0.00 | 0.00 | 72 | 1015.6 |
| 20260903130941 | 79 | 54 | 0.0 | 0.0 | 0.00 | 0.00 | 0.00 | 73 | 1015.6 |
| 20260903130840 | 79 | 55 | 0.0 | 0.0 | 0.00 | 0.00 | 0.00 | 74 | 1015.6 |
| 20260903130737 | 79 | 56 | 0.0 | 0.0 | 0.00 | 0.00 | 0.00 | 75 | 1015.6 |
| 20260903130636 | 79 | 56 | 0.0 | 0.0 | 0.00 | 0.00 | 0.00 | 75 | 1015.6 |
| 20260903130539 | 79 | 56 | 0.0 | 0.0 | 0.00 | 0.00 | 0.00 | 75 | 1015.6 |
| 20260903130437 | 79 | 56 | 0.0 | 0.0 | 0.00 | 0.00 | 0.00 | 75 | 1015.6 |
| 20260903130356 | 78 | 56 | 0.0 | 0.0 | 0.00 | 0.00 | 0.00 | 75 | 1015.6 |
| 20260903130253 | 78 | 56 | 0.0 | 0.0 | 0.00 | 0.00 | 0.00 | 75 | 1015.6 |
| 20260903130202 | 78 | 56 | 0.0 | 0.0 | 0.00 | 0.00 | 0.00 | 75 | 1015.6 |
| 20260903130100 | 78 | 56 | 0.0 | 0.0 | 0.00 | 0.00 | 0.00 | 75 | 1015.6 |
| 20260903125937 | 78 | 56 | 0.0 | 0.0 | 0.00 | 0.00 | 0.00 | 75 | 1015.6 |
| 20260903125835 | 78 | 55 | 0.0 | 0.0 | 0.00 | 0.00 | 0.00 | 75 | 1015.6 |
| 20260903125734 | 78 | 56 | 0.0 | 0.0 | 0.00 | 0.00 | 0.00 | 75 | 1015.7 |
| 20260903125636 | 78 | 56 | 0.0 | 0.0 | 0.00 | 0.00 | 0.00 | 75 | 1015.7 |
| 20260903125534 | 78 | 56 | 0.0 | 0.0 | 0.00 | 0.00 | 0.00 | 75 | 1015.7 |
| 20260903125433 | 78 | 56 | 0.0 | 0.0 | 0.00 | 0.00 | 0.00 | 75 | 1015.7 |
| 20260903125332 | 78 | 55 | 0.0 | 0.0 | 0.00 | 0.00 | 0.00 | 75 | 1015.7 |
| 20260903125230 | 78 | 56 | 0.0 | 0.0 | 0.00 | 0.00 | 0.00 | 75 | 1015.7 |
| 20260903125129 | 78 | 55 | 0.0 | 0.0 | 0.00 | 0.00 | 0.00 | 75 | 1015.7 |
| 20260903125031 | 78 | 56 | 0.0 | 0.0 | 0.00 | 0.00 | 0.00 | 75 | 1015.7 |
| 20260903124929 | 78 | 56 | 0.0 | 1.0 | 0.00 | 0.00 | 0.00 | 75 | 1015.7 |
| 20260903124828 | 78 | 52 | 0.0 | 1.0 | 0.00 | 0.00 | 0.00 | 75 | 1015.7 |
| 20260903124726 | 78 | 56 | 0.0 | 1.0 | 0.00 | 0.00 | 0.00 | 75 | 1015.7 |
| 20260903124655 | 78 | 56 | 0.0 | 1.0 | 0.00 | 0.00 | 0.00 | 75 | 1015.7 |
| 20260903124533 | 78 | 58 | 0.0 | 1.0 | 0.00 | 0.00 | 0.00 | 75 | 1015.7 |
| 20260903124432 | 78 | 58 | 0.0 | 1.0 | 0.00 | 0.00 | 0.00 | 75 | 1015.7 |
| 20260903124335 | 78 | 58 | 0.0 | 1.0 | 0.00 | 0.00 | 0.00 | 75 | 1015.7 |
| 20260903124233 | 78 | 56 | 0.0 | 1.0 | 0.00 | 0.00 | 0.00 | 75 | 1015.6 |
| 20260903124131 | 78 | 55 | 0.0 | 1.0 | 0.00 | 0.00 | 0.00 | 75 | 1015.6 |
| 20260903124029 | 78 | 54 | 1.0 | 1.0 | 0.00 | 0.00 | 0.00 | 75 | 1015.6 |
| 20260903123928 | 78 | 55 | 1.0 | 1.0 | 0.00 | 0.00 | 0.00 | 75 | 1015.6 |
| 20260903123832 | 78 | 58 | 1.0 | 1.0 | 0.00 | 0.00 | 0.00 | 75 | 1015.6 |
| 20260903123731 | 78 | 56 | 0.0 | 0.0 | 0.00 | 0.00 | 0.00 | 75 | 1015.6 |
| 20260903123654 | 78 | 56 | 0.0 | 0.0 | 0.00 | 0.00 | 0.00 | 75 | 1015.6 |
| 20260903123552 | 78 | 56 | 0.0 | 0.0 | 0.00 | 0.00 | 0.00 | 75 | 1015.6 |
| 20260903123451 | 78 | 56 | 0.0 | 0.0 | 0.00 | 0.00 | 0.00 | 74 | 1015.6 |
| 20260903123328 | 78 | 56 | 0.0 | 0.0 | 0.00 | 0.00 | 0.00 | 74 | 1015.6 |
| 20260903123237 | 78 | 56 | 0.0 | 0.0 | 0.00 | 0.00 | 0.00 | 74 | 1015.6 |
| 20260903123148 | 78 | 56 | 0.0 | 1.0 | 0.00 | 0.00 | 0.00 | 74 | 1015.6 |
| 20260903123045 | 78 | 56 | 0.0 | 1.0 | 0.00 | 0.00 | 0.00 | 74 | 1015.6 |
| 20260903122942 | 78 | 55 | 0.0 | 2.0 | 0.00 | 0.00 | 0.00 | 74 | 1015.6 |
| 20260903122900 | 78 | 56 | 0.0 | 2.0 | 0.00 | 0.00 | 0.00 | 74 | 1015.6 |
| 20260903122737 | 78 | 55 | 0.0 | 2.0 | 0.00 | 0.00 | 0.00 | 74 | 1015.5 |
| 20260903122640 | 78 | 56 | 0.0 | 2.0 | 0.00 | 0.00 | 0.00 | 74 | 1015.5 |
| 20260903122559 | 78 | 55 | 0.0 | 2.0 | 0.00 | 0.00 | 0.00 | 74 | 1015.5 |
| 20260903122435 | 78 | 56 | 0.0 | 2.0 | 0.00 | 0.00 | 0.00 | 74 | 1015.5 |
| 20260903122333 | 78 | 54 | 0.0 | 2.0 | 0.00 | 0.00 | 0.00 | 74 | 1015.5 |
| 20260903122231 | 78 | 56 | 1.0 | 2.0 | 0.00 | 0.00 | 0.00 | 74 | 1015.5 |
| 20260903122128 | 78 | 56 | 1.0 | 2.0 | 0.00 | 0.00 | 0.00 | 74 | 1015.5 |
| 20260903122028 | 78 | 56 | 1.0 | 2.0 | 0.00 | 0.00 | 0.00 | 74 | 1015.5 |
| 20260903121930 | 77 | 56 | 1.0 | 2.0 | 0.00 | 0.00 | 0.00 | 74 | 1015.5 |
| 20260903121828 | 77 | 58 | 1.0 | 2.0 | 0.00 | 0.00 | 0.00 | 74 | 1015.5 |
| 20260903121737 | 77 | 56 | 1.0 | 2.0 | 0.00 | 0.00 | 0.00 | 74 | 1015.5 |
| 20260903121646 | 77 | 58 | 2.0 | 2.0 | 0.00 | 0.00 | 0.00 | 73 | 1015.5 |
| 20260903121524 | 77 | 56 | 1.0 | 2.0 | 0.00 | 0.00 | 0.00 | 73 | 1015.5 |
| 20260903121443 | 77 | 56 | 2.0 | 2.0 | 0.00 | 0.00 | 0.00 | 73 | 1015.5 |
| 20260903121341 | 77 | 56 | 1.0 | 2.0 | 0.00 | 0.00 | 0.00 | 73 | 1015.5 |
| 20260903121222 | 77 | 56 | 1.0 | 2.0 | 0.00 | 0.00 | 0.00 | 73 | 1015.3 |
| 20260903121125 | 77 | 56 | 1.0 | 2.0 | 0.00 | 0.00 | 0.00 | 73 | 1015.3 |
| 20260903121027 | 77 | 56 | 1.0 | 2.0 | 0.00 | 0.00 | 0.00 | 72 | 1015.3 |
| 20260903120926 | 77 | 56 | 2.0 | 2.0 | 0.00 | 0.00 | 0.00 | 72 | 1015.3 |
| 20260903120825 | 77 | 55 | 2.0 | 2.0 | 0.00 | 0.00 | 0.00 | 72 | 1015.3 |
| 20260903120743 | 77 | 56 | 1.0 | 2.0 | 0.00 | 0.00 | 0.00 | 73 | 1015.3 |
| 20260903120625 | 77 | 56 | 2.0 | 3.0 | 0.00 | 0.00 | 0.00 | 73 | 1015.3 |
| 20260903120543 | 77 | 54 | 2.0 | 3.0 | 0.00 | 0.00 | 0.00 | 73 | 1015.3 |
| 20260903120501 | 77 | 56 | 1.0 | 3.0 | 0.00 | 0.00 | 0.00 | 73 | 1015.3 |
| 20260903120339 | 77 | 55 | 1.0 | 3.0 | 0.00 | 0.00 | 0.00 | 72 | 1015.3 |
| 20260903120238 | 77 | 56 | 1.0 | 3.0 | 0.00 | 0.00 | 0.00 | 72 | 1015.3 |
| 20260903120208 | 77 | 54 | 1.0 | 3.0 | 0.00 | 0.00 | 0.00 | 73 | 1015.3 |
| 20260903120104 | 77 | 56 | 1.0 | 3.0 | 0.00 | 0.00 | 0.00 | 73 | 1015.3 |
| 20260903115942 | 77 | 55 | 2.0 | 3.0 | 0.00 | 0.00 | 0.00 | 73 | 1015.3 |
| 20260903115824 | 77 | 56 | 2.0 | 3.0 | 0.00 | 0.00 | 0.00 | 73 | 1015.3 |
| 20260903115743 | 77 | 56 | 2.0 | 3.0 | 0.00 | 0.00 | 0.00 | 73 | 1015.3 |
| 20260903115703 | 77 | 58 | 2.0 | 3.0 | 0.00 | 0.00 | 0.00 | 73 | 1015.3 |
| 20260903115600 | 77 | 54 | 2.0 | 3.0 | 0.00 | 0.00 | 0.00 | 73 | 1015.3 |
| 20260903115437 | 77 | 56 | 1.0 | 3.0 | 0.00 | 0.00 | 0.00 | 73 | 1015.3 |
| 20260903115335 | 77 | 56 | 2.0 | 3.0 | 0.00 | 0.00 | 0.00 | 73 | 1015.3 |
| 20260903115233 | 77 | 58 | 2.0 | 3.0 | 0.00 | 0.00 | 0.00 | 73 | 1015.3 |
| 20260903115132 | 77 | 56 | 2.0 | 3.0 | 0.00 | 0.00 | 0.00 | 73 | 1015.3 |
| 20260903115033 | 77 | 58 | 2.0 | 3.0 | 0.00 | 0.00 | 0.00 | 72 | 1015.3 |
| 20260903114933 | 77 | 56 | 2.0 | 3.0 | 0.00 | 0.00 | 0.00 | 72 | 1015.3 |
| 20260903114833 | 77 | 56 | 2.0 | 3.0 | 0.00 | 0.00 | 0.00 | 72 | 1015.3 |
| 20260903114750 | 77 | 56 | 1.0 | 3.0 | 0.00 | 0.00 | 0.00 | 72 | 1015.3 |
| 20260903114721 | 77 | 56 | 1.0 | 3.0 | 0.00 | 0.00 | 0.00 | 71 | 1015.3 |
| 20260903114538 | 77 | 56 | 2.0 | 3.0 | 0.00 | 0.00 | 0.00 | 71 | 1015.3 |
| 20260903114437 | 77 | 56 | 2.0 | 3.0 | 0.00 | 0.00 | 0.00 | 71 | 1015.3 |
| 20260903114335 | 77 | 55 | 2.0 | 3.0 | 0.00 | 0.00 | 0.00 | 71 | 1015.3 |
| 20260903114236 | 77 | 54 | 2.0 | 3.0 | 0.00 | 0.00 | 0.00 | 71 | 1015.2 |
| 20260903114135 | 77 | 55 | 2.0 | 3.0 | 0.00 | 0.00 | 0.00 | 71 | 1015.2 |
| 20260903114033 | 77 | 56 | 1.0 | 3.0 | 0.00 | 0.00 | 0.00 | 71 | 1015.2 |
| 20260903113934 | 77 | 56 | 1.0 | 3.0 | 0.00 | 0.00 | 0.00 | 71 | 1015.2 |
| 20260903113832 | 77 | 58 | 1.0 | 3.0 | 0.00 | 0.00 | 0.00 | 71 | 1015.2 |
| 20260903113731 | 77 | 54 | 2.0 | 3.0 | 0.00 | 0.00 | 0.00 | 71 | 1015.2 |
| 20260903113630 | 77 | 56 | 1.0 | 3.0 | 0.00 | 0.00 | 0.00 | 71 | 1015.2 |
| 20260903113532 | 77 | 56 | 1.0 | 3.0 | 0.00 | 0.00 | 0.00 | 71 | 1015.2 |
| 20260903113432 | 77 | 54 | 2.0 | 3.0 | 0.00 | 0.00 | 0.00 | 71 | 1015.2 |
| 20260903113330 | 77 | 56 | 2.0 | 3.0 | 0.00 | 0.00 | 0.00 | 72 | 1015.2 |
| 20260903113226 | 77 | 56 | 2.0 | 3.0 | 0.00 | 0.00 | 0.00 | 71 | 1015.2 |
| 20260903113157 | 77 | 55 | 2.0 | 3.0 | 0.00 | 0.00 | 0.00 | 71 | 1015.2 |
| 20260903113037 | 77 | 56 | 3.0 | 3.0 | 0.00 | 0.00 | 0.00 | 72 | 1015.2 |
| 20260903112936 | 77 | 56 | 3.0 | 3.0 | 0.00 | 0.00 | 0.00 | 71 | 1015.2 |
| 20260903112839 | 77 | 55 | 3.0 | 3.0 | 0.00 | 0.00 | 0.00 | 71 | 1015.2 |
| 20260903112738 | 77 | 56 | 3.0 | 3.0 | 0.00 | 0.00 | 0.00 | 71 | 1015.1 |
| 20260903112657 | 77 | 55 | 3.0 | 3.0 | 0.00 | 0.00 | 0.00 | 71 | 1015.1 |
| 20260903112534 | 77 | 56 | 3.0 | 3.0 | 0.00 | 0.00 | 0.00 | 71 | 1015.1 |
| 20260903112432 | 77 | 56 | 2.0 | 3.0 | 0.00 | 0.00 | 0.00 | 71 | 1015.1 |
| 20260903112350 | 77 | 56 | 2.0 | 3.0 | 0.00 | 0.00 | 0.00 | 71 | 1015.1 |
| 20260903112227 | 77 | 56 | 2.0 | 3.0 | 0.00 | 0.00 | 0.00 | 71 | 1015.1 |
| 20260903112125 | 77 | 58 | 1.0 | 3.0 | 0.00 | 0.00 | 0.00 | 71 | 1015.1 |
| 20260903112028 | 77 | 54 | 2.0 | 3.0 | 0.00 | 0.00 | 0.00 | 72 | 1015.1 |
| 20260903111926 | 77 | 55 | 1.0 | 3.0 | 0.00 | 0.00 | 0.00 | 72 | 1015.1 |
| 20260903111825 | 77 | 55 | 1.0 | 3.0 | 0.00 | 0.00 | 0.00 | 72 | 1015.1 |
| 20260903111735 | 77 | 51 | 1.0 | 3.0 | 0.00 | 0.00 | 0.00 | 72 | 1015.1 |
| 20260903111645 | 77 | 52 | 1.0 | 3.0 | 0.00 | 0.00 | 0.00 | 73 | 1015.1 |
| 20260903111524 | 77 | 56 | 2.0 | 3.0 | 0.00 | 0.00 | 0.00 | 72 | 1015.1 |
| 20260903111443 | 77 | 56 | 2.0 | 3.0 | 0.00 | 0.00 | 0.00 | 72 | 1015.1 |
| 20260903111326 | 77 | 55 | 2.0 | 3.0 | 0.00 | 0.00 | 0.00 | 72 | 1015.1 |
| 20260903111225 | 77 | 54 | 2.0 | 3.0 | 0.00 | 0.00 | 0.00 | 72 | 1014.8 |
| 20260903111143 | 77 | 55 | 2.0 | 3.0 | 0.00 | 0.00 | 0.00 | 72 | 1014.8 |
| 20260903111042 | 77 | 56 | 2.0 | 3.0 | 0.00 | 0.00 | 0.00 | 72 | 1014.8 |
| 20260903110940 | 77 | 55 | 2.0 | 5.0 | 0.00 | 0.00 | 0.00 | 72 | 1014.8 |
| 20260903110838 | 77 | 55 | 2.0 | 5.0 | 0.00 | 0.00 | 0.00 | 72 | 1014.8 |
| 20260903110734 | 77 | 56 | 2.0 | 5.0 | 0.00 | 0.00 | 0.00 | 73 | 1014.8 |
| 20260903110633 | 77 | 56 | 2.0 | 5.0 | 0.00 | 0.00 | 0.00 | 73 | 1014.8 |
| 20260903110535 | 77 | 56 | 3.0 | 5.0 | 0.00 | 0.00 | 0.00 | 73 | 1014.8 |
| 20260903110433 | 77 | 54 | 2.0 | 5.0 | 0.00 | 0.00 | 0.00 | 72 | 1014.8 |
| 20260903110331 | 77 | 58 | 2.0 | 5.0 | 0.00 | 0.00 | 0.00 | 72 | 1014.8 |
| 20260903110229 | 77 | 58 | 2.0 | 5.0 | 0.00 | 0.00 | 0.00 | 72 | 1014.8 |
| 20260903110200 | 77 | 56 | 3.0 | 5.0 | 0.00 | 0.00 | 0.00 | 72 | 1014.8 |
| 20260903110037 | 77 | 58 | 3.0 | 5.0 | 0.00 | 0.00 | 0.00 | 72 | 1014.8 |
| 20260903105935 | 77 | 56 | 3.0 | 5.0 | 0.00 | 0.00 | 0.00 | 72 | 1014.8 |
| 20260903105837 | 77 | 56 | 3.0 | 5.0 | 0.00 | 0.00 | 0.00 | 72 | 1014.8 |
| 20260903105736 | 77 | 56 | 3.0 | 5.0 | 0.00 | 0.00 | 0.00 | 73 | 1014.7 |
| 20260903105633 | 77 | 56 | 3.0 | 5.0 | 0.00 | 0.00 | 0.00 | 73 | 1014.7 |
| 20260903105552 | 77 | 56 | 3.0 | 5.0 | 0.00 | 0.00 | 0.00 | 73 | 1014.7 |
| 20260903105429 | 77 | 56 | 3.0 | 5.0 | 0.00 | 0.00 | 0.00 | 72 | 1014.7 |
| 20260903105327 | 77 | 56 | 3.0 | 5.0 | 0.00 | 0.00 | 0.00 | 73 | 1014.7 |
| 20260903105226 | 77 | 56 | 3.0 | 5.0 | 0.00 | 0.00 | 0.00 | 73 | 1014.7 |
| 20260903105148 | 77 | 56 | 4.0 | 5.0 | 0.00 | 0.00 | 0.00 | 73 | 1014.7 |
| 20260903105045 | 77 | 58 | 3.0 | 5.0 | 0.00 | 0.00 | 0.00 | 73 | 1014.7 |
| 20260903104941 | 77 | 56 | 3.0 | 6.0 | 0.00 | 0.00 | 0.00 | 73 | 1014.7 |
| 20260903104901 | 77 | 56 | 3.0 | 6.0 | 0.00 | 0.00 | 0.00 | 73 | 1014.7 |
| 20260903104819 | 77 | 56 | 3.0 | 6.0 | 0.00 | 0.00 | 0.00 | 73 | 1014.7 |
| 20260903104704 | 77 | 58 | 4.0 | 6.0 | 0.00 | 0.00 | 0.00 | 73 | 1014.7 |
| 20260903104542 | 77 | 54 | 4.0 | 6.0 | 0.00 | 0.00 | 0.00 | 73 | 1014.7 |
| 20260903104440 | 77 | 55 | 4.0 | 6.0 | 0.00 | 0.00 | 0.00 | 73 | 1014.7 |
| 20260903104338 | 77 | 58 | 4.0 | 6.0 | 0.00 | 0.00 | 0.00 | 73 | 1014.7 |
| 20260903104256 | 77 | 56 | 4.0 | 6.0 | 0.00 | 0.00 | 0.00 | 74 | 1014.6 |
| 20260903104135 | 77 | 54 | 4.0 | 6.0 | 0.00 | 0.00 | 0.00 | 74 | 1014.6 |
| 20260903104034 | 77 | 55 | 3.0 | 6.0 | 0.00 | 0.00 | 0.00 | 74 | 1014.6 |
| 20260903103932 | 77 | 56 | 5.0 | 6.0 | 0.00 | 0.00 | 0.00 | 74 | 1014.6 |
| 20260903103830 | 77 | 56 | 4.0 | 6.0 | 0.00 | 0.00 | 0.00 | 74 | 1014.6 |
| 20260903103752 | 77 | 56 | 4.0 | 6.0 | 0.00 | 0.00 | 0.00 | 74 | 1014.6 |
| 20260903103628 | 77 | 56 | 5.0 | 6.0 | 0.00 | 0.00 | 0.00 | 75 | 1014.6 |
| 20260903103527 | 77 | 55 | 4.0 | 6.0 | 0.00 | 0.00 | 0.00 | 75 | 1014.6 |
| 20260903103430 | 77 | 56 | 4.0 | 6.0 | 0.00 | 0.00 | 0.00 | 75 | 1014.6 |
| 20260903103331 | 77 | 55 | 4.0 | 6.0 | 0.00 | 0.00 | 0.00 | 75 | 1014.6 |
| 20260903103240 | 77 | 56 | 3.0 | 6.0 | 0.00 | 0.00 | 0.00 | 75 | 1014.6 |
| 20260903103150 | 77 | 56 | 3.0 | 6.0 | 0.00 | 0.00 | 0.00 | 75 | 1014.6 |
| 20260903103027 | 77 | 56 | 4.0 | 6.0 | 0.00 | 0.00 | 0.00 | 75 | 1014.6 |
| 20260903102924 | 77 | 56 | 4.0 | 6.0 | 0.00 | 0.00 | 0.00 | 75 | 1014.6 |
| 20260903102843 | 77 | 56 | 4.0 | 6.0 | 0.00 | 0.00 | 0.00 | 75 | 1014.6 |
| 20260903102725 | 77 | 56 | 4.0 | 6.0 | 0.00 | 0.00 | 0.00 | 75 | 1014.5 |
| 20260903102642 | 77 | 51 | 4.0 | 6.0 | 0.00 | 0.00 | 0.00 | 75 | 1014.5 |
| 20260903102541 | 77 | 56 | 5.0 | 6.0 | 0.00 | 0.00 | 0.00 | 75 | 1014.5 |
| 20260903102440 | 77 | 56 | 5.0 | 6.0 | 0.00 | 0.00 | 0.00 | 75 | 1014.5 |
| 20260903102339 | 77 | 56 | 5.0 | 6.0 | 0.00 | 0.00 | 0.00 | 75 | 1014.5 |
| 20260903102237 | 77 | 54 | 5.0 | 6.0 | 0.00 | 0.00 | 0.00 | 75 | 1014.5 |
| 20260903102135 | 77 | 56 | 5.0 | 6.0 | 0.00 | 0.00 | 0.00 | 75 | 1014.5 |
| 20260903102037 | 77 | 56 | 5.0 | 6.0 | 0.00 | 0.00 | 0.00 | 75 | 1014.5 |
| 20260903101935 | 77 | 56 | 5.0 | 6.0 | 0.00 | 0.00 | 0.00 | 75 | 1014.5 |
| 20260903101833 | 77 | 55 | 5.0 | 6.0 | 0.00 | 0.00 | 0.00 | 75 | 1014.5 |
| 20260903101742 | 77 | 55 | 5.0 | 6.0 | 0.00 | 0.00 | 0.00 | 75 | 1014.5 |
| 20260903101651 | 77 | 55 | 5.0 | 6.0 | 0.00 | 0.00 | 0.00 | 75 | 1014.5 |
| 20260903101529 | 77 | 52 | 5.0 | 6.0 | 0.00 | 0.00 | 0.00 | 74 | 1014.5 |
| 20260903101427 | 77 | 54 | 5.0 | 6.0 | 0.00 | 0.00 | 0.00 | 74 | 1014.5 |
| 20260903101329 | 77 | 55 | 4.0 | 6.0 | 0.00 | 0.00 | 0.00 | 74 | 1014.5 |
| 20260903101247 | 77 | 45 | 5.0 | 6.0 | 0.00 | 0.00 | 0.00 | 74 | 1014.5 |
| 20260903101205 | 77 | 48 | 5.0 | 6.0 | 0.00 | 0.00 | 0.00 | 74 | 1014.5 |
| 20260903101103 | 77 | 44 | 4.0 | 6.0 | 0.00 | 0.00 | 0.00 | 74 | 1014.5 |
| 20260903100940 | 77 | 44 | 5.0 | 6.0 | 0.00 | 0.00 | 0.00 | 74 | 1014.5 |
| 20260903100900 | 77 | 45 | 4.0 | 6.0 | 0.00 | 0.00 | 0.00 | 74 | 1014.5 |
| 20260903100736 | 77 | 45 | 4.0 | 6.0 | 0.00 | 0.00 | 0.00 | 74 | 1014.5 |
| 20260903100634 | 77 | 42 | 3.0 | 6.0 | 0.00 | 0.00 | 0.00 | 73 | 1014.5 |
| 20260903100531 | 77 | 44 | 4.0 | 6.0 | 0.00 | 0.00 | 0.00 | 73 | 1014.5 |
| 20260903100433 | 77 | 41 | 4.0 | 6.0 | 0.00 | 0.00 | 0.00 | 73 | 1014.5 |
| 20260903100351 | 77 | 44 | 4.0 | 6.0 | 0.00 | 0.00 | 0.00 | 72 | 1014.5 |
| 20260903100238 | 77 | 44 | 4.0 | 6.0 | 0.00 | 0.00 | 0.00 | 72 | 1014.5 |
| 20260903100147 | 77 | 44 | 5.0 | 6.0 | 0.00 | 0.00 | 0.00 | 72 | 1014.5 |
| 20260903100027 | 77 | 45 | 5.0 | 6.0 | 0.00 | 0.00 | 0.00 | 72 | 1014.5 |
| 20260903095947 | 77 | 44 | 4.0 | 6.0 | 0.00 | 0.00 | 0.00 | 72 | 1014.5 |
| 20260903095843 | 77 | 44 | 4.0 | 6.0 | 0.00 | 0.00 | 0.00 | 72 | 1014.5 |
| 20260903095742 | 77 | 41 | 4.0 | 6.0 | 0.00 | 0.00 | 0.00 | 72 | 1015.3 |
| 20260903095624 | 77 | 42 | 4.0 | 6.0 | 0.00 | 0.00 | 0.00 | 72 | 1015.3 |
| 20260903095544 | 77 | 42 | 4.0 | 6.0 | 0.00 | 0.00 | 0.00 | 72 | 1015.3 |
| 20260903095442 | 77 | 42 | 4.0 | 6.0 | 0.00 | 0.00 | 0.00 | 72 | 1015.3 |
| 20260903095341 | 77 | 42 | 5.0 | 6.0 | 0.00 | 0.00 | 0.00 | 72 | 1015.3 |
| 20260903095240 | 77 | 42 | 4.0 | 6.0 | 0.00 | 0.00 | 0.00 | 72 | 1015.3 |
| 20260903095139 | 77 | 41 | 4.0 | 6.0 | 0.00 | 0.00 | 0.00 | 73 | 1015.3 |
| 20260903095057 | 77 | 41 | 4.0 | 6.0 | 0.00 | 0.00 | 0.00 | 72 | 1015.3 |
| 20260903094934 | 78 | 41 | 4.0 | 6.0 | 0.00 | 0.00 | 0.00 | 72 | 1015.3 |
| 20260903094838 | 78 | 41 | 5.0 | 6.0 | 0.00 | 0.00 | 0.00 | 72 | 1015.3 |
| 20260903094735 | 78 | 38 | 5.0 | 6.0 | 0.00 | 0.00 | 0.00 | 72 | 1015.3 |
| 20260903094704 | 78 | 41 | 4.0 | 6.0 | 0.00 | 0.00 | 0.00 | 72 | 1015.3 |
| 20260903094541 | 78 | 42 | 5.0 | 6.0 | 0.00 | 0.00 | 0.00 | 72 | 1015.3 |
| 20260903094441 | 78 | 41 | 5.0 | 6.0 | 0.00 | 0.00 | 0.00 | 72 | 1015.3 |
| 20260903094340 | 78 | 40 | 5.0 | 6.0 | 0.00 | 0.00 | 0.00 | 72 | 1015.3 |
| 20260903094258 | 78 | 41 | 5.0 | 6.0 | 0.00 | 0.00 | 0.00 | 72 | 1015.3 |
| 20260903094139 | 78 | 25 | 5.0 | 6.0 | 0.00 | 0.00 | 0.00 | 71 | 1015.3 |
| 20260903094037 | 78 | 24 | 5.0 | 6.0 | 0.00 | 0.00 | 0.00 | 71 | 1015.3 |
| 20260903093935 | 78 | 21 | 4.0 | 5.0 | 0.00 | 0.00 | 0.00 | 71 | 1015.3 |
| 20260903093853 | 78 | 23 | 4.0 | 5.0 | 0.00 | 0.00 | 0.00 | 71 | 1015.3 |
| 20260903093732 | 78 | 23 | 4.0 | 5.0 | 0.00 | 0.00 | 0.00 | 71 | 1015.3 |
| 20260903093652 | 78 | 21 | 3.0 | 5.0 | 0.00 | 0.00 | 0.00 | 71 | 1015.3 |
| 20260903093549 | 78 | 8 | 4.0 | 5.0 | 0.00 | 0.00 | 0.00 | 71 | 1015.3 |
| 20260903093426 | 78 | 3 | 5.0 | 5.0 | 0.00 | 0.00 | 0.00 | 71 | 1015.3 |
| 20260903093326 | 78 | 3 | 5.0 | 5.0 | 0.00 | 0.00 | 0.00 | 71 | 1015.3 |
| 20260903093300 | 78 | 4 | 5.0 | 5.0 | 0.00 | 0.00 | 0.00 | 71 | 1015.3 |
| 20260903093148 | 78 | 4 | 3.0 | 5.0 | 0.00 | 0.00 | 0.00 | 71 | 1015.3 |
| 20260903093025 | 78 | 360 | 3.0 | 5.0 | 0.00 | 0.00 | 0.00 | 71 | 1015.3 |
| 20260903092945 | 78 | 4 | 4.0 | 5.0 | 0.00 | 0.00 | 0.00 | 71 | 1015.3 |
| 20260903092844 | 78 | 4 | 4.0 | 5.0 | 0.00 | 0.00 | 0.00 | 71 | 1015.3 |
| 20260903092742 | 78 | 4 | 4.0 | 5.0 | 0.00 | 0.00 | 0.00 | 70 | 1015.3 |
| 20260903092640 | 78 | 4 | 4.0 | 5.0 | 0.00 | 0.00 | 0.00 | 70 | 1015.3 |
| 20260903092537 | 78 | 6 | 4.0 | 5.0 | 0.00 | 0.00 | 0.00 | 70 | 1015.3 |
| 20260903092435 | 78 | 4 | 3.0 | 5.0 | 0.00 | 0.00 | 0.00 | 70 | 1015.3 |
| 20260903092340 | 78 | 328 | 3.0 | 5.0 | 0.00 | 0.00 | 0.00 | 69 | 1015.3 |
| 20260903092259 | 78 | 326 | 4.0 | 5.0 | 0.00 | 0.00 | 0.00 | 69 | 1015.3 |
| 20260903092135 | 78 | 323 | 4.0 | 5.0 | 0.00 | 0.00 | 0.00 | 69 | 1015.3 |
| 20260903092033 | 78 | 328 | 3.0 | 5.0 | 0.00 | 0.00 | 0.00 | 69 | 1015.3 |
| 20260903091930 | 78 | 328 | 3.0 | 5.0 | 0.00 | 0.00 | 0.00 | 69 | 1015.3 |
| 20260903091829 | 78 | 316 | 3.0 | 5.0 | 0.00 | 0.00 | 0.00 | 69 | 1015.3 |
| 20260903091737 | 78 | 326 | 4.0 | 5.0 | 0.00 | 0.00 | 0.00 | 69 | 1015.3 |
| 20260903091647 | 78 | 329 | 4.0 | 5.0 | 0.00 | 0.00 | 0.00 | 70 | 1015.3 |
| 20260903091530 | 78 | 328 | 4.0 | 5.0 | 0.00 | 0.00 | 0.00 | 70 | 1015.3 |
| 20260903091429 | 78 | 325 | 3.0 | 5.0 | 0.00 | 0.00 | 0.00 | 70 | 1015.3 |
| 20260903091328 | 78 | 326 | 4.0 | 5.0 | 0.00 | 0.00 | 0.00 | 70 | 1015.3 |
| 20260903091225 | 78 | 328 | 3.0 | 5.0 | 0.00 | 0.00 | 0.00 | 70 | 1014.4 |
| 20260903091142 | 78 | 328 | 2.0 | 5.0 | 0.00 | 0.00 | 0.00 | 69 | 1014.4 |
| 20260903091101 | 78 | 328 | 3.0 | 5.0 | 0.00 | 0.00 | 0.00 | 69 | 1014.4 |
| 20260903090938 | 78 | 326 | 3.0 | 5.0 | 0.00 | 0.00 | 0.00 | 70 | 1014.4 |
| 20260903090836 | 78 | 326 | 3.0 | 5.0 | 0.00 | 0.00 | 0.00 | 70 | 1014.4 |
| 20260903090739 | 78 | 328 | 3.0 | 5.0 | 0.00 | 0.00 | 0.00 | 69 | 1014.4 |
| 20260903090637 | 78 | 330 | 2.0 | 4.0 | 0.00 | 0.00 | 0.00 | 70 | 1014.4 |
| 20260903090534 | 78 | 328 | 3.0 | 4.0 | 0.00 | 0.00 | 0.00 | 69 | 1014.4 |
| 20260903090433 | 78 | 326 | 3.0 | 4.0 | 0.00 | 0.00 | 0.00 | 69 | 1014.4 |
| 20260903090352 | 78 | 328 | 3.0 | 4.0 | 0.00 | 0.00 | 0.00 | 69 | 1014.4 |
| 20260903090239 | 78 | 325 | 3.0 | 4.0 | 0.00 | 0.00 | 0.00 | 68 | 1014.4 |
| 20260903090148 | 78 | 329 | 3.0 | 4.0 | 0.00 | 0.00 | 0.00 | 68 | 1014.4 |
| 20260903090025 | 78 | 325 | 3.0 | 5.0 | 0.00 | 0.00 | 0.00 | 68 | 1014.4 |
| 20260903085950 | 78 | 328 | 3.0 | 5.0 | 0.00 | 0.00 | 0.00 | 67 | 1014.4 |
| 20260903085848 | 78 | 326 | 3.0 | 5.0 | 0.00 | 0.00 | 0.00 | 67 | 1014.4 |
| 20260903085725 | 78 | 328 | 3.0 | 5.0 | 0.00 | 0.00 | 0.00 | 67 | 1014.3 |
| 20260903085643 | 78 | 326 | 3.0 | 5.0 | 0.00 | 0.00 | 0.00 | 67 | 1014.3 |
| 20260903085542 | 78 | 328 | 3.0 | 5.0 | 0.00 | 0.00 | 0.00 | 67 | 1014.3 |
| 20260903085500 | 78 | 326 | 3.0 | 5.0 | 0.00 | 0.00 | 0.00 | 67 | 1014.3 |
| 20260903085338 | 78 | 304 | 3.0 | 5.0 | 0.00 | 0.00 | 0.00 | 67 | 1014.3 |
| 20260903085237 | 78 | 328 | 3.0 | 5.0 | 0.00 | 0.00 | 0.00 | 67 | 1014.3 |
| 20260903085139 | 78 | 360 | 3.0 | 3.0 | 0.00 | 0.00 | 0.00 | 67 | 1014.3 |
| 20260903085058 | 78 | 360 | 3.0 | 3.0 | 0.00 | 0.00 | 0.00 | 67 | 1014.3 |
| 20260903084936 | 78 | 360 | 3.0 | 3.0 | 0.00 | 0.00 | 0.00 | 67 | 1014.3 |
| 20260903084833 | 78 | 360 | 3.0 | 3.0 | 0.00 | 0.00 | 0.00 | 67 | 1014.3 |
| 20260903084803 | 78 | 360 | 3.0 | 3.0 | 0.00 | 0.00 | 0.00 | 67 | 1014.3 |
| 20260903084651 | 78 | 359 | 3.0 | 3.0 | 0.00 | 0.00 | 0.00 | 67 | 1014.3 |
| 20260903084529 | 78 | 357 | 3.0 | 3.0 | 0.00 | 0.00 | 0.00 | 67 | 1014.3 |
| 20260903084448 | 78 | 360 | 3.0 | 3.0 | 0.00 | 0.00 | 0.00 | 67 | 1014.3 |
| 20260903084326 | 78 | 359 | 3.0 | 3.0 | 0.00 | 0.00 | 0.00 | 67 | 1014.3 |
| 20260903084228 | 78 | 360 | 3.0 | 3.0 | 0.00 | 0.00 | 0.00 | 67 | 1015.1 |
| 20260903084127 | 78 | 360 | 3.0 | 3.0 | 0.00 | 0.00 | 0.00 | 67 | 1015.1 |
| 20260903084024 | 78 | 360 | 3.0 | 3.0 | 0.00 | 0.00 | 0.00 | 67 | 1015.1 |
| 20260903083924 | 78 | 360 | 3.0 | 3.0 | 0.00 | 0.00 | 0.00 | 67 | 1015.1 |
| 20260903083841 | 78 | 360 | 3.0 | 3.0 | 0.00 | 0.00 | 0.00 | 67 | 1015.1 |
| 20260903083739 | 78 | 360 | 3.0 | 3.0 | 0.00 | 0.00 | 0.00 | 67 | 1015.1 |
| 20260903083637 | 79 | 360 | 3.0 | 3.0 | 0.00 | 0.00 | 0.00 | 67 | 1015.1 |
| 20260903083540 | 79 | 356 | 3.0 | 3.0 | 0.00 | 0.00 | 0.00 | 67 | 1015.1 |
| 20260903083438 | 79 | 360 | 3.0 | 3.0 | 0.00 | 0.00 | 0.00 | 67 | 1015.1 |
| 20260903083337 | 79 | 359 | 2.0 | 3.0 | 0.00 | 0.00 | 0.00 | 68 | 1015.1 |
| 20260903083235 | 79 | 356 | 0.0 | 0.0 | 0.00 | 0.00 | 0.00 | 68 | 1015.1 |
| 20260903083205 | 79 | 360 | 0.0 | 0.0 | 0.00 | 0.00 | 0.00 | 67 | 1015.1 |
| 20260903083042 | 79 | 357 | 0.0 | 0.0 | 0.00 | 0.00 | 0.00 | 67 | 1015.1 |
| 20260903082925 | 79 | 360 | 0.0 | 0.0 | 0.00 | 0.00 | 0.00 | 68 | 1015.1 |
| 20260903082842 | 79 | 360 | 0.0 | 0.0 | 0.00 | 0.00 | 0.00 | 68 | 1015.1 |
| 20260903082740 | 79 | 360 | 0.0 | 0.0 | 0.00 | 0.00 | 0.00 | 68 | 1014.4 |
| 20260903082639 | 79 | 360 | 0.0 | 0.0 | 0.00 | 0.00 | 0.00 | 68 | 1014.4 |
| 20260903082537 | 79 | 360 | 0.0 | 0.0 | 0.00 | 0.00 | 0.00 | 68 | 1014.4 |
| 20260903082434 | 79 | 360 | 0.0 | 0.0 | 0.00 | 0.00 | 0.00 | 68 | 1014.4 |
| 20260903082353 | 79 | 360 | 0.0 | 0.0 | 0.00 | 0.00 | 0.00 | 68 | 1014.4 |
| 20260903082229 | 79 | 360 | 0.0 | 0.0 | 0.00 | 0.00 | 0.00 | 68 | 1014.4 |
| 20260903082132 | 79 | 359 | 0.0 | 0.0 | 0.00 | 0.00 | 0.00 | 68 | 1014.4 |
| 20260903082030 | 79 | 360 | 0.0 | 0.0 | 0.00 | 0.00 | 0.00 | 68 | 1014.4 |
| 20260903081926 | 79 | 360 | 0.0 | 0.0 | 0.00 | 0.00 | 0.00 | 68 | 1014.4 |
| 20260903081825 | 79 | 360 | 0.0 | 0.0 | 0.00 | 0.00 | 0.00 | 68 | 1014.4 |
| 20260903081724 | 79 | 360 | 0.0 | 0.0 | 0.00 | 0.00 | 0.00 | 68 | 1014.4 |
| 20260903081654 | 79 | 360 | 0.0 | 0.0 | 0.00 | 0.00 | 0.00 | 68 | 1014.4 |
| 20260903081532 | 79 | 360 | 0.0 | 0.0 | 0.00 | 0.00 | 0.00 | 68 | 1014.4 |
| 20260903081428 | 79 | 360 | 0.0 | 0.0 | 0.00 | 0.00 | 0.00 | 68 | 1014.4 |
| 20260903081331 | 78 | 354 | 0.0 | 0.0 | 0.00 | 0.00 | 0.00 | 68 | 1014.4 |
| 20260903081251 | 78 | 360 | 0.0 | 0.0 | 0.00 | 0.00 | 0.00 | 68 | 1014.3 |
| 20260903081148 | 78 | 360 | 0.0 | 0.0 | 0.00 | 0.00 | 0.00 | 68 | 1014.3 |
| 20260903081107 | 78 | 360 | 0.0 | 0.0 | 0.00 | 0.00 | 0.00 | 68 | 1014.3 |
| 20260903080944 | 78 | 357 | 0.0 | 0.0 | 0.00 | 0.00 | 0.00 | 68 | 1014.3 |
| 20260903080903 | 78 | 360 | 0.0 | 0.0 | 0.00 | 0.00 | 0.00 | 68 | 1014.3 |
| 20260903080740 | 78 | 359 | 0.0 | 0.0 | 0.00 | 0.00 | 0.00 | 68 | 1014.3 |
| 20260903080638 | 78 | 360 | 0.0 | 0.0 | 0.00 | 0.00 | 0.00 | 68 | 1014.3 |
| 20260903080536 | 78 | 360 | 0.0 | 0.0 | 0.00 | 0.00 | 0.00 | 68 | 1014.3 |
| 20260903080438 | 78 | 357 | 0.0 | 0.0 | 0.00 | 0.00 | 0.00 | 68 | 1014.3 |
| 20260903080336 | 78 | 360 | 0.0 | 0.0 | 0.00 | 0.00 | 0.00 | 68 | 1014.3 |
| 20260903080225 | 78 | 360 | 0.0 | 0.0 | 0.00 | 0.00 | 0.00 | 68 | 1014.3 |
| 20260903075937 | 78 | 360 | 0.0 | 0.0 | 0.00 | 0.00 | 0.00 | 68 | 1014.3 |
| 20260903075835 | 78 | 360 | 0.0 | 0.0 | 0.00 | 0.00 | 0.00 | 68 | 1014.3 |
| 20260903075752 | 78 | 360 | 0.0 | 0.0 | 0.00 | 0.00 | 0.00 | 68 | 1014.4 |
| 20260903075630 | 78 | 357 | 0.0 | 0.0 | 0.00 | 0.00 | 0.00 | 68 | 1014.4 |
| 20260903075533 | 78 | 360 | 0.0 | 0.0 | 0.00 | 0.00 | 0.00 | 68 | 1014.4 |
| 20260903075431 | 78 | 360 | 0.0 | 0.0 | 0.00 | 0.00 | 0.00 | 68 | 1014.4 |
| 20260903075350 | 78 | 360 | 0.0 | 0.0 | 0.00 | 0.00 | 0.00 | 68 | 1014.4 |
| 20260903075228 | 78 | 360 | 0.0 | 0.0 | 0.00 | 0.00 | 0.00 | 68 | 1014.4 |
| 20260903075127 | 78 | 360 | 0.0 | 0.0 | 0.00 | 0.00 | 0.00 | 68 | 1014.4 |
| 20260903075046 | 78 | 360 | 0.0 | 0.0 | 0.00 | 0.00 | 0.00 | 68 | 1014.4 |
| 20260903075004 | 78 | 360 | 0.0 | 0.0 | 0.00 | 0.00 | 0.00 | 68 | 1014.4 |
| 20260903074841 | 79 | 360 | 0.0 | 0.0 | 0.00 | 0.00 | 0.00 | 68 | 1014.4 |
| 20260903074724 | 79 | 360 | 0.0 | 0.0 | 0.00 | 0.00 | 0.00 | 68 | 1014.4 |
| 20260903074654 | 78 | 360 | 0.0 | 0.0 | 0.00 | 0.00 | 0.00 | 68 | 1014.4 |
| 20260903074532 | 79 | 360 | 0.0 | 0.0 | 0.00 | 0.00 | 0.00 | 68 | 1014.4 |
| 20260903074430 | 79 | 357 | 0.0 | 0.0 | 0.00 | 0.00 | 0.00 | 68 | 1014.4 |
| 20260903074330 | 79 | 360 | 0.0 | 0.0 | 0.00 | 0.00 | 0.00 | 68 | 1014.4 |
| 20260903074231 | 79 | 360 | 0.0 | 0.0 | 0.00 | 0.00 | 0.00 | 68 | 1014.4 |
| 20260903074127 | 79 | 360 | 0.0 | 0.0 | 0.00 | 0.00 | 0.00 | 68 | 1014.4 |
| 20260903074029 | 79 | 360 | 0.0 | 0.0 | 0.00 | 0.00 | 0.00 | 68 | 1014.4 |
| 20260903073947 | 79 | 360 | 0.0 | 0.0 | 0.00 | 0.00 | 0.00 | 68 | 1014.4 |
| 20260903073846 | 79 | 360 | 0.0 | 0.0 | 0.00 | 0.00 | 0.00 | 68 | 1014.4 |
| 20260903073748 | 79 | 360 | 0.0 | 0.0 | 0.00 | 0.00 | 0.00 | 68 | 1014.4 |
| 20260903073645 | 79 | 360 | 0.0 | 0.0 | 0.00 | 0.00 | 0.00 | 68 | 1014.4 |
| 20260903073603 | 79 | 359 | 0.0 | 0.0 | 0.00 | 0.00 | 0.00 | 68 | 1014.4 |
| 20260903073441 | 79 | 360 | 0.0 | 0.0 | 0.00 | 0.00 | 0.00 | 68 | 1014.4 |
| 20260903073339 | 79 | 360 | 0.0 | 0.0 | 0.00 | 0.00 | 0.00 | 68 | 1014.4 |
| 20260903073258 | 79 | 357 | 0.0 | 0.0 | 0.00 | 0.00 | 0.00 | 68 | 1014.4 |
| 20260903073208 | 79 | 360 | 0.0 | 0.0 | 0.00 | 0.00 | 0.00 | 68 | 1014.4 |
| 20260903073030 | 79 | 360 | 0.0 | 0.0 | 0.00 | 0.00 | 0.00 | 68 | 1014.4 |
| 20260903072929 | 79 | 359 | 0.0 | 0.0 | 0.00 | 0.00 | 0.00 | 68 | 1014.4 |
| 20260903072828 | 79 | 360 | 0.0 | 0.0 | 0.00 | 0.00 | 0.00 | 68 | 1014.4 |
| 20260903072725 | 79 | 360 | 0.0 | 0.0 | 0.00 | 0.00 | 0.00 | 68 | 1014.4 |
| 20260903072643 | 79 | 359 | 0.0 | 0.0 | 0.00 | 0.00 | 0.00 | 68 | 1014.4 |
| 20260903072524 | 79 | 360 | 0.0 | 0.0 | 0.00 | 0.00 | 0.00 | 68 | 1014.4 |
| 20260903072427 | 79 | 360 | 0.0 | 0.0 | 0.00 | 0.00 | 0.00 | 68 | 1014.4 |
| 20260903072325 | 79 | 359 | 0.0 | 0.0 | 0.00 | 0.00 | 0.00 | 68 | 1014.4 |
| 20260903072242 | 79 | 360 | 0.0 | 0.0 | 0.00 | 0.00 | 0.00 | 68 | 1014.4 |
| 20260903072141 | 79 | 360 | 0.0 | 0.0 | 0.00 | 0.00 | 0.00 | 68 | 1014.4 |
| 20260903072042 | 79 | 360 | 0.0 | 0.0 | 0.00 | 0.00 | 0.00 | 68 | 1014.4 |
| 20260903072002 | 79 | 360 | 0.0 | 0.0 | 0.00 | 0.00 | 0.00 | 68 | 1014.4 |
| 20260903071859 | 79 | 360 | 0.0 | 0.0 | 0.00 | 0.00 | 0.00 | 68 | 1014.4 |
| 20260903071704 | 79 | 360 | 0.0 | 0.0 | 0.00 | 0.00 | 0.00 | 68 | 1014.4 |
| 20260903071525 | 79 | 360 | 0.0 | 0.0 | 0.00 | 0.00 | 0.00 | 68 | 1014.4 |
| 20260903071443 | 79 | 360 | 0.0 | 0.0 | 0.00 | 0.00 | 0.00 | 68 | 1014.4 |
| 20260903071341 | 79 | 360 | 0.0 | 0.0 | 0.00 | 0.00 | 0.00 | 68 | 1014.4 |
| 20260903071240 | 79 | 359 | 0.0 | 0.0 | 0.00 | 0.00 | 0.00 | 68 | 1014.4 |
| 20260903071137 | 79 | 360 | 0.0 | 0.0 | 0.00 | 0.00 | 0.00 | 68 | 1014.4 |
| 20260903071035 | 79 | 360 | 0.0 | 0.0 | 0.00 | 0.00 | 0.00 | 68 | 1014.4 |
| 20260903070934 | 79 | 360 | 0.0 | 0.0 | 0.00 | 0.00 | 0.00 | 68 | 1014.4 |
| 20260903070837 | 79 | 360 | 0.0 | 0.0 | 0.00 | 0.00 | 0.00 | 68 | 1014.4 |
| 20260903070736 | 79 | 360 | 0.0 | 0.0 | 0.00 | 0.00 | 0.00 | 68 | 1014.4 |
| 20260903070635 | 79 | 360 | 0.0 | 0.0 | 0.00 | 0.00 | 0.00 | 69 | 1014.4 |
| 20260903070534 | 79 | 359 | 0.0 | 0.0 | 0.00 | 0.00 | 0.00 | 68 | 1014.4 |
| 20260903070453 | 79 | 360 | 0.0 | 0.0 | 0.00 | 0.00 | 0.00 | 68 | 1014.4 |
| 20260903070351 | 79 | 360 | 0.0 | 0.0 | 0.00 | 0.00 | 0.00 | 68 | 1014.4 |
| 20260903070228 | 79 | 360 | 0.0 | 0.0 | 0.00 | 0.00 | 0.00 | 68 | 1014.4 |
| 20260903070200 | 79 | 360 | 0.0 | 0.0 | 0.00 | 0.00 | 0.00 | 68 | 1014.4 |
| 20260903070041 | 79 | 360 | 0.0 | 0.0 | 0.00 | 0.00 | 0.00 | 68 | 1014.4 |
| 20260903065939 | 79 | 360 | 0.0 | 0.0 | 0.00 | 0.00 | 0.00 | 68 | 1014.4 |
| 20260903065837 | 79 | 360 | 0.0 | 0.0 | 0.00 | 0.00 | 0.00 | 68 | 1014.4 |
| 20260903065737 | 79 | 360 | 0.0 | 0.0 | 0.00 | 0.00 | 0.00 | 68 | 1015.4 |
| 20260903065637 | 79 | 360 | 0.0 | 0.0 | 0.00 | 0.00 | 0.00 | 68 | 1015.4 |
| 20260903065535 | 79 | 360 | 0.0 | 0.0 | 0.00 | 0.00 | 0.00 | 68 | 1015.4 |
| 20260903065439 | 79 | 360 | 0.0 | 0.0 | 0.00 | 0.00 | 0.00 | 68 | 1015.4 |
| 20260903065337 | 79 | 360 | 0.0 | 0.0 | 0.00 | 0.00 | 0.00 | 68 | 1015.4 |
| 20260903065236 | 79 | 360 | 0.0 | 0.0 | 0.00 | 0.00 | 0.00 | 68 | 1015.4 |
| 20260903065132 | 79 | 360 | 0.0 | 0.0 | 0.00 | 0.00 | 0.00 | 68 | 1015.4 |
| 20260903065031 | 79 | 360 | 0.0 | 0.0 | 0.00 | 0.00 | 0.00 | 68 | 1015.4 |
| 20260903064950 | 79 | 360 | 0.0 | 0.0 | 0.00 | 0.00 | 0.00 | 68 | 1015.4 |
| 20260903064827 | 79 | 360 | 0.0 | 0.0 | 0.00 | 0.00 | 0.00 | 68 | 1015.4 |
| 20260903064737 | 79 | 360 | 0.0 | 0.0 | 0.00 | 0.00 | 0.00 | 68 | 1015.4 |
| 20260903064649 | 79 | 360 | 0.0 | 0.0 | 0.00 | 0.00 | 0.00 | 68 | 1015.4 |
| 20260903064548 | 79 | 359 | 0.0 | 0.0 | 0.00 | 0.00 | 0.00 | 68 | 1015.4 |
| 20260903064425 | 79 | 359 | 0.0 | 0.0 | 0.00 | 0.00 | 0.00 | 68 | 1015.4 |
| 20260903064325 | 79 | 360 | 0.0 | 0.0 | 0.00 | 0.00 | 0.00 | 68 | 1015.4 |
| 20260903064243 | 79 | 360 | 0.0 | 0.0 | 0.00 | 0.00 | 0.00 | 68 | 1015.4 |
| 20260903064202 | 79 | 360 | 0.0 | 0.0 | 0.00 | 0.00 | 0.00 | 68 | 1015.4 |
| 20260903064040 | 79 | 360 | 0.0 | 0.0 | 0.00 | 0.00 | 0.00 | 68 | 1015.4 |
| 20260903063937 | 79 | 360 | 0.0 | 0.0 | 0.00 | 0.00 | 0.00 | 68 | 1015.4 |
| 20260903063840 | 79 | 359 | 0.0 | 0.0 | 0.00 | 0.00 | 0.00 | 68 | 1015.4 |
| 20260903063739 | 79 | 360 | 0.0 | 0.0 | 0.00 | 0.00 | 0.00 | 68 | 1015.4 |
| 20260903063638 | 79 | 360 | 0.0 | 0.0 | 0.00 | 0.00 | 0.00 | 68 | 1015.4 |
| 20260903063536 | 79 | 360 | 0.0 | 0.0 | 0.00 | 0.00 | 0.00 | 68 | 1015.4 |
| 20260903063434 | 79 | 360 | 0.0 | 0.0 | 0.00 | 0.00 | 0.00 | 68 | 1015.4 |
| 20260903063333 | 79 | 359 | 0.0 | 0.0 | 0.00 | 0.00 | 0.00 | 68 | 1015.4 |
| 20260903063251 | 79 | 357 | 0.0 | 0.0 | 0.00 | 0.00 | 0.00 | 68 | 1015.4 |
| 20260903063221 | 79 | 360 | 0.0 | 0.0 | 0.00 | 0.00 | 0.00 | 68 | 1015.4 |
| 20260903063041 | 79 | 357 | 0.0 | 1.0 | 0.00 | 0.00 | 0.00 | 68 | 1015.4 |
| 20260903062959 | 79 | 360 | 0.0 | 1.0 | 0.00 | 0.00 | 0.00 | 68 | 1015.4 |
| 20260903062835 | 79 | 360 | 0.0 | 2.0 | 0.00 | 0.00 | 0.00 | 68 | 1015.4 |
| 20260903062753 | 79 | 360 | 0.0 | 2.0 | 0.00 | 0.00 | 0.00 | 68 | 1015.5 |
| 20260903062631 | 79 | 360 | 0.0 | 2.0 | 0.00 | 0.00 | 0.00 | 68 | 1015.5 |
| 20260903062530 | 79 | 360 | 0.0 | 2.0 | 0.00 | 0.00 | 0.00 | 68 | 1015.5 |
| 20260903062428 | 79 | 359 | 0.0 | 2.0 | 0.00 | 0.00 | 0.00 | 68 | 1015.5 |
| 20260903062327 | 79 | 360 | 0.0 | 2.0 | 0.00 | 0.00 | 0.00 | 69 | 1015.5 |
| 20260903062230 | 79 | 360 | 1.0 | 2.0 | 0.00 | 0.00 | 0.00 | 69 | 1015.5 |
| 20260903062130 | 79 | 360 | 1.0 | 2.0 | 0.00 | 0.00 | 0.00 | 68 | 1015.5 |
| 20260903062028 | 79 | 360 | 1.0 | 2.0 | 0.00 | 0.00 | 0.00 | 68 | 1015.5 |
| 20260903061928 | 79 | 360 | 1.0 | 2.0 | 0.00 | 0.00 | 0.00 | 68 | 1015.5 |
| 20260903061828 | 79 | 356 | 1.0 | 2.0 | 0.00 | 0.00 | 0.00 | 68 | 1015.5 |
| 20260903061751 | 79 | 359 | 1.0 | 2.0 | 0.00 | 0.00 | 0.00 | 69 | 1015.5 |
| 20260903061700 | 79 | 359 | 1.0 | 2.0 | 0.00 | 0.00 | 0.00 | 69 | 1015.5 |
| 20260903061601 | 79 | 360 | 1.0 | 2.0 | 0.00 | 0.00 | 0.00 | 69 | 1015.5 |
| 20260903061422 | 79 | 360 | 2.0 | 2.0 | 0.00 | 0.00 | 0.00 | 68 | 1015.5 |
| 20260903061343 | 79 | 360 | 1.0 | 2.0 | 0.00 | 0.00 | 0.00 | 68 | 1015.5 |
| 20260903061241 | 79 | 360 | 1.0 | 2.0 | 0.00 | 0.00 | 0.00 | 68 | 1015.4 |
| 20260903061139 | 79 | 360 | 2.0 | 2.0 | 0.00 | 0.00 | 0.00 | 68 | 1015.4 |
| 20260903061038 | 80 | 359 | 2.0 | 2.0 | 0.00 | 0.00 | 0.00 | 68 | 1015.4 |
| 20260903060936 | 80 | 359 | 2.0 | 2.0 | 0.00 | 0.00 | 0.00 | 68 | 1015.4 |
| 20260903060834 | 80 | 360 | 2.0 | 2.0 | 0.00 | 0.00 | 0.00 | 68 | 1015.4 |
| 20260903060738 | 80 | 360 | 2.0 | 2.0 | 0.00 | 0.00 | 0.00 | 68 | 1015.4 |
| 20260903060657 | 80 | 360 | 1.0 | 2.0 | 0.00 | 0.00 | 0.00 | 68 | 1015.4 |
| 20260903060535 | 80 | 357 | 1.0 | 2.0 | 0.00 | 0.00 | 0.00 | 69 | 1015.4 |
| 20260903060433 | 80 | 360 | 1.0 | 2.0 | 0.00 | 0.00 | 0.00 | 69 | 1015.4 |
| 20260903060332 | 80 | 360 | 1.0 | 3.0 | 0.00 | 0.00 | 0.00 | 69 | 1015.4 |
| 20260903060252 | 80 | 360 | 2.0 | 3.0 | 0.00 | 0.00 | 0.00 | 69 | 1015.4 |
| 20260903060221 | 80 | 360 | 1.0 | 3.0 | 0.00 | 0.00 | 0.00 | 69 | 1015.4 |
| 20260903060037 | 80 | 360 | 2.0 | 3.0 | 0.00 | 0.00 | 0.00 | 69 | 1015.4 |
| 20260903055939 | 80 | 360 | 2.0 | 3.0 | 0.00 | 0.00 | 0.00 | 69 | 1015.4 |
| 20260903055838 | 80 | 359 | 2.0 | 3.0 | 0.00 | 0.00 | 0.00 | 69 | 1015.4 |
| 20260903055757 | 80 | 360 | 1.0 | 3.0 | 0.00 | 0.00 | 0.00 | 69 | 1015.5 |
| 20260903055635 | 80 | 359 | 1.0 | 3.0 | 0.00 | 0.00 | 0.00 | 68 | 1015.5 |
| 20260903055534 | 80 | 360 | 2.0 | 3.0 | 0.00 | 0.00 | 0.00 | 68 | 1015.5 |
| 20260903055432 | 80 | 359 | 2.0 | 2.0 | 0.00 | 0.00 | 0.00 | 68 | 1015.5 |
| 20260903055332 | 80 | 360 | 2.0 | 2.0 | 0.00 | 0.00 | 0.00 | 68 | 1015.5 |
| 20260903055234 | 80 | 359 | 2.0 | 2.0 | 0.00 | 0.00 | 0.00 | 68 | 1015.5 |
| 20260903055133 | 80 | 356 | 1.0 | 2.0 | 0.00 | 0.00 | 0.00 | 68 | 1015.5 |
| 20260903055031 | 80 | 360 | 1.0 | 3.0 | 0.00 | 0.00 | 0.00 | 69 | 1015.5 |
| 20260903054930 | 80 | 359 | 2.0 | 3.0 | 0.00 | 0.00 | 0.00 | 67 | 1015.5 |
| 20260903054831 | 80 | 360 | 2.0 | 3.0 | 0.00 | 0.00 | 0.00 | 67 | 1015.5 |
| 20260903054729 | 80 | 359 | 2.0 | 3.0 | 0.00 | 0.00 | 0.00 | 68 | 1015.5 |
| 20260903054700 | 80 | 357 | 2.0 | 3.0 | 0.00 | 0.00 | 0.00 | 68 | 1015.5 |
| 20260903054558 | 80 | 360 | 2.0 | 3.0 | 0.00 | 0.00 | 0.00 | 68 | 1015.5 |
| 20260903054439 | 80 | 360 | 1.0 | 3.0 | 0.00 | 0.00 | 0.00 | 68 | 1015.5 |
| 20260903054338 | 80 | 359 | 1.0 | 3.0 | 0.00 | 0.00 | 0.00 | 68 | 1015.5 |
| 20260903054235 | 80 | 360 | 2.0 | 3.0 | 0.00 | 0.00 | 0.00 | 68 | 1015.6 |
| 20260903054134 | 80 | 360 | 2.0 | 3.0 | 0.00 | 0.00 | 0.00 | 68 | 1015.6 |
| 20260903054034 | 80 | 325 | 2.0 | 3.0 | 0.00 | 0.00 | 0.00 | 69 | 1015.6 |
| 20260903053931 | 80 | 360 | 2.0 | 3.0 | 0.00 | 0.00 | 0.00 | 68 | 1015.6 |
| 20260903053829 | 80 | 6 | 2.0 | 3.0 | 0.00 | 0.00 | 0.00 | 69 | 1015.6 |
| 20260903053732 | 80 | 13 | 2.0 | 3.0 | 0.00 | 0.00 | 0.00 | 68 | 1015.6 |
| 20260903053632 | 80 | 31 | 2.0 | 3.0 | 0.00 | 0.00 | 0.00 | 68 | 1015.6 |
| 20260903053530 | 80 | 31 | 2.0 | 3.0 | 0.00 | 0.00 | 0.00 | 68 | 1015.6 |
| 20260903053428 | 80 | 31 | 2.0 | 3.0 | 0.00 | 0.00 | 0.00 | 68 | 1015.6 |
| 20260903053326 | 80 | 32 | 1.0 | 2.0 | 0.00 | 0.00 | 0.00 | 69 | 1015.6 |
| 20260903053225 | 80 | 34 | 1.0 | 2.0 | 0.00 | 0.00 | 0.00 | 69 | 1015.6 |
| 20260903053155 | 80 | 34 | 1.0 | 2.0 | 0.00 | 0.00 | 0.00 | 68 | 1015.6 |
| 20260903053059 | 80 | 34 | 1.0 | 2.0 | 0.00 | 0.00 | 0.00 | 67 | 1015.6 |
| 20260903052937 | 80 | 32 | 1.0 | 2.0 | 0.00 | 0.00 | 0.00 | 66 | 1015.6 |
| 20260903052834 | 80 | 32 | 1.0 | 2.0 | 0.00 | 0.00 | 0.00 | 66 | 1015.6 |
| 20260903052732 | 80 | 34 | 1.0 | 2.0 | 0.00 | 0.00 | 0.00 | 66 | 1015.6 |
| 20260903052630 | 80 | 32 | 1.0 | 3.0 | 0.00 | 0.00 | 0.00 | 66 | 1015.6 |
| 20260903052531 | 80 | 34 | 1.0 | 3.0 | 0.00 | 0.00 | 0.00 | 66 | 1015.6 |
| 20260903052429 | 80 | 34 | 1.0 | 3.0 | 0.00 | 0.00 | 0.00 | 66 | 1015.6 |
| 20260903052332 | 80 | 32 | 1.0 | 3.0 | 0.00 | 0.00 | 0.00 | 66 | 1015.6 |
| 20260903052231 | 80 | 31 | 2.0 | 3.0 | 0.00 | 0.00 | 0.00 | 66 | 1015.6 |
| 20260903052130 | 80 | 32 | 2.0 | 3.0 | 0.00 | 0.00 | 0.00 | 67 | 1015.6 |
| 20260903052030 | 80 | 34 | 2.0 | 3.0 | 0.00 | 0.00 | 0.00 | 67 | 1015.6 |
| 20260903051928 | 80 | 32 | 2.0 | 3.0 | 0.00 | 0.00 | 0.00 | 67 | 1015.6 |
| 20260903051827 | 80 | 30 | 2.0 | 3.0 | 0.00 | 0.00 | 0.00 | 67 | 1015.6 |
| 20260903051737 | 80 | 34 | 2.0 | 3.0 | 0.00 | 0.00 | 0.00 | 67 | 1015.6 |
| 20260903051650 | 80 | 34 | 3.0 | 3.0 | 0.00 | 0.00 | 0.00 | 68 | 1015.6 |
| 20260903051528 | 80 | 34 | 2.0 | 3.0 | 0.00 | 0.00 | 0.00 | 68 | 1015.6 |
| 20260903051427 | 80 | 34 | 2.0 | 3.0 | 0.00 | 0.00 | 0.00 | 67 | 1015.6 |
| 20260903051325 | 80 | 32 | 3.0 | 3.0 | 0.00 | 0.00 | 0.00 | 67 | 1015.6 |
| 20260903051226 | 80 | 34 | 2.0 | 3.0 | 0.00 | 0.00 | 0.00 | 67 | 1014.7 |
| 20260903051125 | 80 | 34 | 3.0 | 3.0 | 0.00 | 0.00 | 0.00 | 67 | 1014.7 |
| 20260903051044 | 80 | 34 | 2.0 | 3.0 | 0.00 | 0.00 | 0.00 | 68 | 1014.7 |
| 20260903050927 | 80 | 34 | 2.0 | 3.0 | 0.00 | 0.00 | 0.00 | 68 | 1014.7 |
| 20260903050825 | 80 | 35 | 2.0 | 3.0 | 0.00 | 0.00 | 0.00 | 68 | 1014.7 |
| 20260903050724 | 80 | 34 | 2.0 | 3.0 | 0.00 | 0.00 | 0.00 | 68 | 1014.7 |
| 20260903050641 | 80 | 32 | 1.0 | 2.0 | 0.00 | 0.00 | 0.00 | 68 | 1014.7 |
| 20260903050601 | 80 | 34 | 0.0 | 2.0 | 0.00 | 0.00 | 0.00 | 68 | 1014.7 |
| 20260903050438 | 80 | 35 | 1.0 | 2.0 | 0.00 | 0.00 | 0.00 | 66 | 1014.7 |
| 20260903050336 | 80 | 35 | 1.0 | 2.0 | 0.00 | 0.00 | 0.00 | 65 | 1014.7 |
| 20260903050255 | 80 | 34 | 2.0 | 2.0 | 0.00 | 0.00 | 0.00 | 65 | 1014.7 |
| 20260903050207 | 80 | 34 | 1.0 | 2.0 | 0.00 | 0.00 | 0.00 | 65 | 1014.7 |
| 20260903050043 | 80 | 32 | 1.0 | 2.0 | 0.00 | 0.00 | 0.00 | 65 | 1014.7 |
| 20260903045941 | 80 | 34 | 1.0 | 3.0 | 0.00 | 0.00 | 0.00 | 65 | 1014.7 |
| 20260903045859 | 80 | 31 | 0.0 | 3.0 | 0.00 | 0.00 | 0.00 | 65 | 1014.7 |
| 20260903045736 | 80 | 34 | 0.0 | 3.0 | 0.00 | 0.00 | 0.00 | 65 | 1015.5 |
| 20260903045634 | 80 | 34 | 0.0 | 3.0 | 0.00 | 0.00 | 0.00 | 65 | 1015.5 |
| 20260903045533 | 80 | 34 | 0.0 | 3.0 | 0.00 | 0.00 | 0.00 | 65 | 1015.5 |
| 20260903045432 | 80 | 34 | 0.0 | 3.0 | 0.00 | 0.00 | 0.00 | 65 | 1015.5 |
| 20260903045335 | 80 | 34 | 1.0 | 3.0 | 0.00 | 0.00 | 0.00 | 65 | 1015.5 |
| 20260903045235 | 80 | 35 | 1.0 | 3.0 | 0.00 | 0.00 | 0.00 | 65 | 1015.5 |
| 20260903045152 | 80 | 32 | 1.0 | 3.0 | 0.00 | 0.00 | 0.00 | 65 | 1015.5 |
| 20260903045033 | 80 | 34 | 1.0 | 3.0 | 0.00 | 0.00 | 0.00 | 65 | 1015.5 |
| 20260903044932 | 80 | 34 | 0.0 | 3.0 | 0.00 | 0.00 | 0.00 | 65 | 1015.5 |
| 20260903044831 | 80 | 34 | 1.0 | 3.0 | 0.00 | 0.00 | 0.00 | 66 | 1015.5 |
| 20260903044740 | 80 | 34 | 1.0 | 3.0 | 0.00 | 0.00 | 0.00 | 66 | 1015.5 |
| 20260903044648 | 80 | 35 | 0.0 | 3.0 | 0.00 | 0.00 | 0.00 | 66 | 1015.5 |
| 20260903044550 | 80 | 34 | 0.0 | 3.0 | 0.00 | 0.00 | 0.00 | 66 | 1015.5 |
| 20260903044426 | 80 | 34 | 0.0 | 3.0 | 0.00 | 0.00 | 0.00 | 66 | 1015.5 |
| 20260903044346 | 80 | 34 | 0.0 | 3.0 | 0.00 | 0.00 | 0.00 | 66 | 1015.5 |
| 20260903044244 | 80 | 34 | 1.0 | 3.0 | 0.00 | 0.00 | 0.00 | 66 | 1014.7 |
| 20260903044142 | 80 | 34 | 1.0 | 3.0 | 0.00 | 0.00 | 0.00 | 67 | 1014.7 |
| 20260903044040 | 80 | 34 | 2.0 | 3.0 | 0.00 | 0.00 | 0.00 | 66 | 1014.7 |
| 20260903043939 | 80 | 34 | 2.0 | 3.0 | 0.00 | 0.00 | 0.00 | 65 | 1014.7 |
| 20260903043856 | 80 | 34 | 1.0 | 1.0 | 0.00 | 0.00 | 0.00 | 66 | 1014.7 |
| 20260903043738 | 80 | 34 | 0.0 | 1.0 | 0.00 | 0.00 | 0.00 | 66 | 1014.7 |
| 20260903043635 | 80 | 35 | 0.0 | 2.0 | 0.00 | 0.00 | 0.00 | 65 | 1014.7 |
| 20260903043534 | 80 | 34 | 0.0 | 2.0 | 0.00 | 0.00 | 0.00 | 65 | 1014.7 |
| 20260903043453 | 80 | 32 | 0.0 | 2.0 | 0.00 | 0.00 | 0.00 | 65 | 1014.7 |
| 20260903043330 | 80 | 34 | 0.0 | 2.0 | 0.00 | 0.00 | 0.00 | 65 | 1014.7 |
| 20260903043259 | 80 | 32 | 0.0 | 2.0 | 0.00 | 0.00 | 0.00 | 65 | 1014.7 |
| 20260903043147 | 80 | 32 | 0.0 | 2.0 | 0.00 | 0.00 | 0.00 | 65 | 1014.7 |
| 20260903043043 | 80 | 34 | 0.0 | 2.0 | 0.00 | 0.00 | 0.00 | 65 | 1014.7 |
| 20260903042925 | 80 | 34 | 0.0 | 2.0 | 0.00 | 0.00 | 0.00 | 65 | 1014.7 |
| 20260903042824 | 80 | 34 | 1.0 | 2.0 | 0.00 | 0.00 | 0.00 | 65 | 1014.7 |
| 20260903042743 | 80 | 34 | 1.0 | 2.0 | 0.00 | 0.00 | 0.00 | 65 | 1014.6 |
| 20260903042643 | 80 | 31 | 1.0 | 2.0 | 0.00 | 0.00 | 0.00 | 65 | 1014.6 |
| 20260903042541 | 80 | 32 | 1.0 | 2.0 | 0.00 | 0.00 | 0.00 | 65 | 1014.6 |
| 20260903042439 | 80 | 34 | 1.0 | 3.0 | 0.00 | 0.00 | 0.00 | 65 | 1014.6 |
| 20260903042358 | 80 | 34 | 2.0 | 3.0 | 0.00 | 0.00 | 0.00 | 65 | 1014.6 |
| 20260903042236 | 80 | 34 | 1.0 | 3.0 | 0.00 | 0.00 | 0.00 | 65 | 1014.6 |
| 20260903042137 | 80 | 34 | 1.0 | 3.0 | 0.00 | 0.00 | 0.00 | 65 | 1014.6 |
| 20260903042056 | 80 | 34 | 1.0 | 3.0 | 0.00 | 0.00 | 0.00 | 65 | 1014.6 |
| 20260903041953 | 80 | 35 | 2.0 | 3.0 | 0.00 | 0.00 | 0.00 | 65 | 1014.6 |
| 20260903041833 | 80 | 35 | 2.0 | 3.0 | 0.00 | 0.00 | 0.00 | 65 | 1014.6 |
| 20260903041753 | 80 | 34 | 1.0 | 3.0 | 0.00 | 0.00 | 0.00 | 65 | 1014.6 |
| 20260903041701 | 80 | 31 | 1.0 | 3.0 | 0.00 | 0.00 | 0.00 | 65 | 1014.6 |
| 20260903041537 | 80 | 34 | 2.0 | 3.0 | 0.00 | 0.00 | 0.00 | 65 | 1014.6 |
| 20260903041437 | 80 | 32 | 2.0 | 2.0 | 0.00 | 0.00 | 0.00 | 65 | 1014.6 |
| 20260903041340 | 80 | 32 | 2.0 | 2.0 | 0.00 | 0.00 | 0.00 | 65 | 1014.6 |
| 20260903041240 | 80 | 34 | 1.0 | 2.0 | 0.00 | 0.00 | 0.00 | 65 | 1014.6 |
| 20260903041140 | 80 | 34 | 1.0 | 2.0 | 0.00 | 0.00 | 0.00 | 65 | 1014.6 |
| 20260903041040 | 80 | 32 | 1.0 | 2.0 | 0.00 | 0.00 | 0.00 | 64 | 1014.6 |
| 20260903040937 | 80 | 34 | 2.0 | 2.0 | 0.00 | 0.00 | 0.00 | 64 | 1014.6 |
| 20260903040836 | 80 | 34 | 2.0 | 2.0 | 0.00 | 0.00 | 0.00 | 64 | 1014.6 |
| 20260903040755 | 80 | 31 | 1.0 | 2.0 | 0.00 | 0.00 | 0.00 | 64 | 1014.6 |
| 20260903040652 | 80 | 34 | 1.0 | 2.0 | 0.00 | 0.00 | 0.00 | 64 | 1014.6 |
| 20260903040534 | 80 | 34 | 1.0 | 2.0 | 0.00 | 0.00 | 0.00 | 64 | 1014.6 |
| 20260903040432 | 80 | 34 | 1.0 | 2.0 | 0.00 | 0.00 | 0.00 | 64 | 1014.6 |
| 20260903040334 | 80 | 32 | 1.0 | 2.0 | 0.00 | 0.00 | 0.00 | 64 | 1014.6 |
| 20260903040243 | 80 | 34 | 1.0 | 2.0 | 0.00 | 0.00 | 0.00 | 64 | 1014.6 |
| 20260903040152 | 80 | 35 | 1.0 | 2.0 | 0.00 | 0.00 | 0.00 | 64 | 1014.6 |
| 20260903040029 | 81 | 34 | 1.0 | 2.0 | 0.00 | 0.00 | 0.00 | 64 | 1014.6 |
| 20260903035948 | 81 | 32 | 1.0 | 2.0 | 0.00 | 0.00 | 0.00 | 64 | 1014.6 |
| 20260903035905 | 81 | 35 | 1.0 | 2.0 | 0.00 | 0.00 | 0.00 | 64 | 1014.6 |
| 20260903035744 | 81 | 32 | 1.0 | 2.0 | 0.00 | 0.00 | 0.00 | 64 | 1015.7 |
| 20260903035642 | 81 | 34 | 1.0 | 2.0 | 0.00 | 0.00 | 0.00 | 64 | 1015.7 |
| 20260903035601 | 81 | 32 | 1.0 | 2.0 | 0.00 | 0.00 | 0.00 | 64 | 1015.7 |
| 20260903035437 | 81 | 31 | 1.0 | 2.0 | 0.00 | 0.00 | 0.00 | 64 | 1015.7 |
| 20260903035336 | 81 | 35 | 2.0 | 2.0 | 0.00 | 0.00 | 0.00 | 64 | 1015.7 |
| 20260903035234 | 81 | 34 | 1.0 | 2.0 | 0.00 | 0.00 | 0.00 | 64 | 1015.7 |
| 20260903035132 | 81 | 30 | 1.0 | 2.0 | 0.00 | 0.00 | 0.00 | 64 | 1015.7 |
| 20260903035051 | 81 | 32 | 1.0 | 2.0 | 0.00 | 0.00 | 0.00 | 65 | 1015.7 |
| 20260903034949 | 81 | 35 | 1.0 | 2.0 | 0.00 | 0.00 | 0.00 | 65 | 1015.7 |
| 20260903034831 | 81 | 30 | 1.0 | 2.0 | 0.00 | 0.00 | 0.00 | 65 | 1015.7 |
| 20260903034739 | 81 | 34 | 1.0 | 2.0 | 0.00 | 0.00 | 0.00 | 65 | 1015.7 |
| 20260903034648 | 81 | 35 | 1.0 | 2.0 | 0.00 | 0.00 | 0.00 | 65 | 1015.7 |
| 20260903034546 | 81 | 34 | 2.0 | 2.0 | 0.00 | 0.00 | 0.00 | 65 | 1015.7 |
| 20260903034443 | 81 | 34 | 2.0 | 2.0 | 0.00 | 0.00 | 0.00 | 65 | 1015.7 |
| 20260903034342 | 81 | 34 | 1.0 | 2.0 | 0.00 | 0.00 | 0.00 | 65 | 1015.7 |
| 20260903034240 | 81 | 34 | 1.0 | 2.0 | 0.00 | 0.00 | 0.00 | 65 | 1014.9 |
| 20260903034138 | 81 | 35 | 2.0 | 2.0 | 0.00 | 0.00 | 0.00 | 65 | 1014.9 |
| 20260903034042 | 81 | 32 | 2.0 | 2.0 | 0.00 | 0.00 | 0.00 | 65 | 1014.9 |
| 20260903033941 | 81 | 34 | 2.0 | 2.0 | 0.00 | 0.00 | 0.00 | 65 | 1014.9 |
| 20260903033839 | 81 | 31 | 2.0 | 2.0 | 0.00 | 0.00 | 0.00 | 65 | 1014.9 |
| 20260903033757 | 81 | 35 | 1.0 | 2.0 | 0.00 | 0.00 | 0.00 | 65 | 1014.9 |
| 20260903033633 | 81 | 34 | 1.0 | 2.0 | 0.00 | 0.00 | 0.00 | 65 | 1014.9 |
| 20260903033533 | 81 | 34 | 1.0 | 2.0 | 0.00 | 0.00 | 0.00 | 65 | 1014.9 |
| 20260903033452 | 81 | 34 | 2.0 | 2.0 | 0.00 | 0.00 | 0.00 | 65 | 1014.9 |
| 20260903033350 | 81 | 34 | 2.0 | 2.0 | 0.00 | 0.00 | 0.00 | 64 | 1014.9 |
| 20260903033242 | 81 | 31 | 1.0 | 2.0 | 0.00 | 0.00 | 0.00 | 64 | 1014.9 |
| 20260903033152 | 81 | 34 | 1.0 | 2.0 | 0.00 | 0.00 | 0.00 | 64 | 1014.9 |
| 20260903033029 | 81 | 34 | 1.0 | 2.0 | 0.00 | 0.00 | 0.00 | 64 | 1014.9 |
| 20260903032927 | 81 | 34 | 1.0 | 2.0 | 0.00 | 0.00 | 0.00 | 64 | 1014.9 |
| 20260903032826 | 81 | 34 | 0.0 | 2.0 | 0.00 | 0.00 | 0.00 | 64 | 1014.9 |
| 20260903032724 | 81 | 34 | 0.0 | 2.0 | 0.00 | 0.00 | 0.00 | 64 | 1015.9 |
| 20260903032624 | 81 | 34 | 0.0 | 2.0 | 0.00 | 0.00 | 0.00 | 64 | 1015.9 |
| 20260903032527 | 81 | 34 | 0.0 | 2.0 | 0.00 | 0.00 | 0.00 | 64 | 1015.9 |
| 20260903032425 | 81 | 35 | 0.0 | 2.0 | 0.00 | 0.00 | 0.00 | 64 | 1015.9 |
| 20260903032344 | 81 | 35 | 1.0 | 2.0 | 0.00 | 0.00 | 0.00 | 64 | 1015.9 |
| 20260903032305 | 81 | 35 | 1.0 | 2.0 | 0.00 | 0.00 | 0.00 | 64 | 1015.9 |
| 20260903032201 | 81 | 32 | 1.0 | 2.0 | 0.00 | 0.00 | 0.00 | 64 | 1015.9 |
| 20260903032058 | 81 | 34 | 1.0 | 3.0 | 0.00 | 0.00 | 0.00 | 64 | 1015.9 |
| 20260903031935 | 81 | 34 | 1.0 | 3.0 | 0.00 | 0.00 | 0.00 | 64 | 1015.9 |
| 20260903031833 | 81 | 32 | 1.0 | 3.0 | 0.00 | 0.00 | 0.00 | 64 | 1015.9 |
| 20260903031741 | 81 | 34 | 1.0 | 3.0 | 0.00 | 0.00 | 0.00 | 64 | 1015.9 |
| 20260903031655 | 81 | 34 | 0.0 | 3.0 | 0.00 | 0.00 | 0.00 | 64 | 1015.9 |
| 20260903031532 | 81 | 34 | 0.0 | 3.0 | 0.00 | 0.00 | 0.00 | 64 | 1015.9 |
| 20260903031429 | 81 | 34 | 1.0 | 3.0 | 0.00 | 0.00 | 0.00 | 64 | 1015.9 |
| 20260903031348 | 81 | 34 | 1.0 | 3.0 | 0.00 | 0.00 | 0.00 | 64 | 1015.9 |
| 20260903031224 | 81 | 34 | 2.0 | 3.0 | 0.00 | 0.00 | 0.00 | 64 | 1015.1 |
| 20260903031143 | 81 | 34 | 2.0 | 3.0 | 0.00 | 0.00 | 0.00 | 64 | 1015.1 |
| 20260903031041 | 81 | 34 | 1.0 | 3.0 | 0.00 | 0.00 | 0.00 | 64 | 1015.1 |
| 20260903030939 | 81 | 35 | 2.0 | 3.0 | 0.00 | 0.00 | 0.00 | 64 | 1015.1 |
| 20260903030857 | 81 | 34 | 2.0 | 3.0 | 0.00 | 0.00 | 0.00 | 63 | 1015.1 |
| 20260903030759 | 81 | 35 | 2.0 | 3.0 | 0.00 | 0.00 | 0.00 | 63 | 1015.1 |
| 20260903030636 | 81 | 31 | 2.0 | 2.0 | 0.00 | 0.00 | 0.00 | 63 | 1015.1 |
| 20260903030534 | 81 | 34 | 2.0 | 2.0 | 0.00 | 0.00 | 0.00 | 63 | 1015.1 |
| 20260903030430 | 81 | 34 | 2.0 | 2.0 | 0.00 | 0.00 | 0.00 | 63 | 1015.1 |
| 20260903030350 | 81 | 34 | 2.0 | 2.0 | 0.00 | 0.00 | 0.00 | 63 | 1015.1 |
| 20260903030238 | 81 | 34 | 1.0 | 2.0 | 0.00 | 0.00 | 0.00 | 63 | 1015.1 |
| 20260903030148 | 81 | 34 | 1.0 | 2.0 | 0.00 | 0.00 | 0.00 | 63 | 1015.1 |
| 20260903030025 | 81 | 34 | 1.0 | 2.0 | 0.00 | 0.00 | 0.00 | 63 | 1015.1 |
| 20260903025929 | 81 | 34 | 2.0 | 2.0 | 0.00 | 0.00 | 0.00 | 63 | 1015.1 |
| 20260903025846 | 81 | 34 | 2.0 | 2.0 | 0.00 | 0.00 | 0.00 | 63 | 1015.1 |
| 20260903025743 | 81 | 34 | 2.0 | 2.0 | 0.00 | 0.00 | 0.00 | 63 | 1015.0 |
| 20260903025642 | 81 | 32 | 1.0 | 2.0 | 0.00 | 0.00 | 0.00 | 63 | 1015.0 |
| 20260903025541 | 81 | 34 | 1.0 | 2.0 | 0.00 | 0.00 | 0.00 | 63 | 1015.0 |
| 20260903025500 | 81 | 34 | 1.0 | 2.0 | 0.00 | 0.00 | 0.00 | 63 | 1015.0 |
| 20260903025337 | 81 | 35 | 1.0 | 2.0 | 0.00 | 0.00 | 0.00 | 63 | 1015.0 |
| 20260903025235 | 81 | 34 | 1.0 | 2.0 | 0.00 | 0.00 | 0.00 | 63 | 1015.0 |
| 20260903025137 | 81 | 34 | 1.0 | 2.0 | 0.00 | 0.00 | 0.00 | 63 | 1015.0 |
| 20260903025036 | 81 | 35 | 1.0 | 2.0 | 0.00 | 0.00 | 0.00 | 63 | 1015.0 |
| 20260903024933 | 81 | 35 | 2.0 | 2.0 | 0.00 | 0.00 | 0.00 | 63 | 1015.0 |
| 20260903024832 | 81 | 34 | 2.0 | 2.0 | 0.00 | 0.00 | 0.00 | 63 | 1015.0 |
| 20260903024742 | 81 | 34 | 2.0 | 2.0 | 0.00 | 0.00 | 0.00 | 63 | 1015.0 |
| 20260903024651 | 81 | 34 | 2.0 | 2.0 | 0.00 | 0.00 | 0.00 | 62 | 1015.0 |
| 20260903024549 | 81 | 35 | 2.0 | 2.0 | 0.00 | 0.00 | 0.00 | 63 | 1015.0 |
| 20260903024425 | 81 | 34 | 2.0 | 2.0 | 0.00 | 0.00 | 0.00 | 63 | 1015.0 |
| 20260903024328 | 81 | 32 | 1.0 | 2.0 | 0.00 | 0.00 | 0.00 | 63 | 1015.0 |
| 20260903024247 | 81 | 30 | 2.0 | 3.0 | 0.00 | 0.00 | 0.00 | 63 | 1015.0 |
| 20260903024205 | 81 | 34 | 2.0 | 3.0 | 0.00 | 0.00 | 0.00 | 63 | 1015.0 |
| 20260903024041 | 81 | 32 | 1.0 | 3.0 | 0.00 | 0.00 | 0.00 | 63 | 1015.0 |
| 20260903023938 | 81 | 32 | 1.0 | 3.0 | 0.00 | 0.00 | 0.00 | 64 | 1015.0 |
| 20260903023835 | 81 | 32 | 1.0 | 3.0 | 0.00 | 0.00 | 0.00 | 64 | 1015.0 |
| 20260903023733 | 81 | 34 | 1.0 | 3.0 | 0.00 | 0.00 | 0.00 | 64 | 1015.0 |
| 20260903023632 | 81 | 34 | 1.0 | 3.0 | 0.00 | 0.00 | 0.00 | 64 | 1015.0 |
| 20260903023535 | 81 | 30 | 2.0 | 3.0 | 0.00 | 0.00 | 0.00 | 64 | 1015.0 |
| 20260903023434 | 81 | 34 | 2.0 | 3.0 | 0.00 | 0.00 | 0.00 | 64 | 1015.0 |
| 20260903023331 | 81 | 34 | 2.0 | 3.0 | 0.00 | 0.00 | 0.00 | 64 | 1015.0 |
| 20260903023242 | 81 | 32 | 2.0 | 3.0 | 0.00 | 0.00 | 0.00 | 64 | 1015.0 |
| 20260903023152 | 81 | 34 | 2.0 | 3.0 | 0.00 | 0.00 | 0.00 | 64 | 1015.0 |
| 20260903023028 | 81 | 34 | 2.0 | 3.0 | 0.00 | 0.00 | 0.00 | 64 | 1015.0 |
| 20260903022927 | 81 | 32 | 2.0 | 2.0 | 0.00 | 0.00 | 0.00 | 64 | 1015.0 |
| 20260903022850 | 81 | 34 | 2.0 | 2.0 | 0.00 | 0.00 | 0.00 | 64 | 1015.0 |
| 20260903022809 | 81 | 30 | 2.0 | 2.0 | 0.00 | 0.00 | 0.00 | 63 | 1015.0 |
| 20260903022644 | 81 | 34 | 1.0 | 2.0 | 0.00 | 0.00 | 0.00 | 63 | 1015.0 |
| 20260903022603 | 81 | 34 | 1.0 | 2.0 | 0.00 | 0.00 | 0.00 | 63 | 1015.0 |
| 20260903022440 | 81 | 34 | 1.0 | 2.0 | 0.00 | 0.00 | 0.00 | 63 | 1015.0 |
| 20260903022338 | 81 | 31 | 0.0 | 2.0 | 0.00 | 0.00 | 0.00 | 64 | 1015.0 |
| 20260903022237 | 81 | 32 | 0.0 | 0.0 | 0.00 | 0.00 | 0.00 | 64 | 1015.0 |
| 20260903022136 | 81 | 32 | 0.0 | 0.0 | 0.00 | 0.00 | 0.00 | 64 | 1015.0 |
| 20260903022039 | 82 | 32 | 0.0 | 0.0 | 0.00 | 0.00 | 0.00 | 64 | 1015.0 |
| 20260903021937 | 82 | 34 | 0.0 | 0.0 | 0.00 | 0.00 | 0.00 | 64 | 1015.0 |
| 20260903021836 | 82 | 32 | 0.0 | 0.0 | 0.00 | 0.00 | 0.00 | 64 | 1015.0 |
| 20260903021735 | 82 | 34 | 0.0 | 0.0 | 0.00 | 0.00 | 0.00 | 64 | 1015.0 |
| 20260903021704 | 82 | 32 | 0.0 | 0.0 | 0.00 | 0.00 | 0.00 | 63 | 1015.0 |
| 20260903021540 | 82 | 32 | 0.0 | 0.0 | 0.00 | 0.00 | 0.00 | 63 | 1015.0 |
| 20260903021440 | 82 | 34 | 0.0 | 0.0 | 0.00 | 0.00 | 0.00 | 63 | 1015.0 |
| 20260903021342 | 82 | 34 | 0.0 | 0.0 | 0.00 | 0.00 | 0.00 | 63 | 1015.0 |
| 20260903021241 | 82 | 31 | 0.0 | 0.0 | 0.00 | 0.00 | 0.00 | 64 | 1015.1 |
| 20260903021139 | 82 | 34 | 0.0 | 0.0 | 0.00 | 0.00 | 0.00 | 64 | 1015.1 |
| 20260903021058 | 82 | 34 | 0.0 | 0.0 | 0.00 | 0.00 | 0.00 | 64 | 1015.1 |
| 20260903020934 | 82 | 31 | 0.0 | 0.0 | 0.00 | 0.00 | 0.00 | 63 | 1015.1 |
| 20260903020832 | 82 | 30 | 0.0 | 0.0 | 0.00 | 0.00 | 0.00 | 63 | 1015.1 |
| 20260903020731 | 82 | 34 | 0.0 | 0.0 | 0.00 | 0.00 | 0.00 | 63 | 1015.1 |
| 20260903020635 | 82 | 34 | 0.0 | 0.0 | 0.00 | 0.00 | 0.00 | 63 | 1015.1 |
| 20260903020532 | 82 | 34 | 0.0 | 0.0 | 0.00 | 0.00 | 0.00 | 63 | 1015.1 |
| 20260903020434 | 82 | 34 | 0.0 | 0.0 | 0.00 | 0.00 | 0.00 | 63 | 1015.1 |
| 20260903020332 | 82 | 34 | 0.0 | 0.0 | 0.00 | 0.00 | 0.00 | 63 | 1015.1 |
| 20260903020251 | 82 | 34 | 0.0 | 0.0 | 0.00 | 0.00 | 0.00 | 63 | 1015.1 |
| 20260903020221 | 82 | 32 | 0.0 | 0.0 | 0.00 | 0.00 | 0.00 | 63 | 1015.1 |
| 20260903020038 | 82 | 31 | 0.0 | 0.0 | 0.00 | 0.00 | 0.00 | 63 | 1015.1 |
| 20260903015936 | 82 | 32 | 0.0 | 0.0 | 0.00 | 0.00 | 0.00 | 63 | 1015.1 |
| 20260903015839 | 82 | 34 | 0.0 | 0.0 | 0.00 | 0.00 | 0.00 | 63 | 1015.1 |
| 20260903015738 | 82 | 32 | 0.0 | 0.0 | 0.00 | 0.00 | 0.00 | 63 | 1014.9 |
| 20260903015638 | 82 | 31 | 0.0 | 0.0 | 0.00 | 0.00 | 0.00 | 63 | 1014.9 |
| 20260903015536 | 82 | 32 | 0.0 | 0.0 | 0.00 | 0.00 | 0.00 | 63 | 1014.9 |
| 20260903015433 | 82 | 34 | 0.0 | 0.0 | 0.00 | 0.00 | 0.00 | 63 | 1014.9 |
| 20260903015331 | 82 | 32 | 0.0 | 0.0 | 0.00 | 0.00 | 0.00 | 62 | 1014.9 |
| 20260903015234 | 82 | 34 | 0.0 | 0.0 | 0.00 | 0.00 | 0.00 | 63 | 1014.9 |
| 20260903015133 | 82 | 34 | 0.0 | 0.0 | 0.00 | 0.00 | 0.00 | 62 | 1014.9 |
| 20260903015031 | 82 | 34 | 0.0 | 0.0 | 0.00 | 0.00 | 0.00 | 62 | 1014.9 |
| 20260903014928 | 82 | 32 | 0.0 | 0.0 | 0.00 | 0.00 | 0.00 | 63 | 1014.9 |
| 20260903014826 | 82 | 32 | 0.0 | 1.0 | 0.00 | 0.00 | 0.00 | 63 | 1014.9 |
| 20260903014736 | 82 | 32 | 0.0 | 2.0 | 0.00 | 0.00 | 0.00 | 63 | 1014.9 |
| 20260903014645 | 82 | 31 | 0.0 | 2.0 | 0.00 | 0.00 | 0.00 | 63 | 1014.9 |
| 20260903014542 | 82 | 34 | 0.0 | 2.0 | 0.00 | 0.00 | 0.00 | 63 | 1014.9 |
| 20260903014444 | 82 | 34 | 0.0 | 2.0 | 0.00 | 0.00 | 0.00 | 63 | 1014.9 |
| 20260903014342 | 82 | 34 | 0.0 | 2.0 | 0.00 | 0.00 | 0.00 | 63 | 1014.9 |
| 20260903014241 | 82 | 34 | 0.0 | 2.0 | 0.00 | 0.00 | 0.00 | 63 | 1014.8 |
| 20260903014139 | 82 | 31 | 0.0 | 2.0 | 0.00 | 0.00 | 0.00 | 62 | 1014.8 |
| 20260903014059 | 82 | 30 | 0.0 | 2.0 | 0.00 | 0.00 | 0.00 | 62 | 1014.8 |
| 20260903013956 | 82 | 34 | 1.0 | 2.0 | 0.00 | 0.00 | 0.00 | 62 | 1014.8 |
| 20260903013833 | 82 | 32 | 1.0 | 2.0 | 0.00 | 0.00 | 0.00 | 62 | 1014.8 |
| 20260903013731 | 82 | 34 | 1.0 | 2.0 | 0.00 | 0.00 | 0.00 | 62 | 1014.8 |
| 20260903013634 | 82 | 32 | 1.0 | 2.0 | 0.00 | 0.00 | 0.00 | 62 | 1014.8 |
| 20260903013533 | 82 | 30 | 0.0 | 2.0 | 0.00 | 0.00 | 0.00 | 62 | 1014.8 |
| 20260903013431 | 82 | 34 | 0.0 | 1.0 | 0.00 | 0.00 | 0.00 | 62 | 1014.8 |
| 20260903013331 | 82 | 34 | 0.0 | 1.0 | 0.00 | 0.00 | 0.00 | 62 | 1014.8 |
| 20260903013241 | 82 | 32 | 0.0 | 1.0 | 0.00 | 0.00 | 0.00 | 62 | 1014.8 |
| 20260903013150 | 82 | 32 | 0.0 | 1.0 | 0.00 | 0.00 | 0.00 | 62 | 1014.8 |
| 20260903013027 | 82 | 32 | 0.0 | 2.0 | 0.00 | 0.00 | 0.00 | 62 | 1014.8 |
| 20260903012929 | 82 | 31 | 0.0 | 2.0 | 0.00 | 0.00 | 0.00 | 62 | 1014.8 |
| 20260903012847 | 82 | 34 | 0.0 | 2.0 | 0.00 | 0.00 | 0.00 | 62 | 1014.8 |
| 20260903012726 | 82 | 34 | 0.0 | 2.0 | 0.00 | 0.00 | 0.00 | 62 | 1014.5 |
| 20260903012644 | 82 | 34 | 0.0 | 2.0 | 0.00 | 0.00 | 0.00 | 62 | 1014.5 |
| 20260903012542 | 82 | 32 | 0.0 | 2.0 | 0.00 | 0.00 | 0.00 | 61 | 1014.5 |
| 20260903012440 | 82 | 31 | 0.0 | 2.0 | 0.00 | 0.00 | 0.00 | 61 | 1014.5 |
| 20260903012339 | 82 | 34 | 0.0 | 2.0 | 0.00 | 0.00 | 0.00 | 61 | 1014.5 |
| 20260903012242 | 82 | 32 | 1.0 | 2.0 | 0.00 | 0.00 | 0.00 | 61 | 1014.5 |
| 20260903012201 | 82 | 34 | 1.0 | 2.0 | 0.00 | 0.00 | 0.00 | 60 | 1014.5 |
| 20260903012039 | 82 | 32 | 1.0 | 1.0 | 0.00 | 0.00 | 0.00 | 61 | 1014.5 |
| 20260903011957 | 82 | 32 | 1.0 | 2.0 | 0.00 | 0.00 | 0.00 | 62 | 1014.5 |
| 20260903011833 | 82 | 34 | 0.0 | 2.0 | 0.00 | 0.00 | 0.00 | 62 | 1014.5 |
| 20260903011732 | 82 | 31 | 0.0 | 2.0 | 0.00 | 0.00 | 0.00 | 62 | 1014.5 |
| 20260903011702 | 82 | 32 | 0.0 | 2.0 | 0.00 | 0.00 | 0.00 | 61 | 1014.5 |
| 20260903011539 | 83 | 31 | 0.0 | 2.0 | 0.00 | 0.00 | 0.00 | 60 | 1014.5 |
| 20260903011437 | 83 | 34 | 0.0 | 2.0 | 0.00 | 0.00 | 0.00 | 59 | 1014.5 |
| 20260903011341 | 83 | 34 | 1.0 | 2.0 | 0.00 | 0.00 | 0.00 | 59 | 1014.5 |
| 20260903011238 | 83 | 34 | 1.0 | 2.0 | 0.00 | 0.00 | 0.00 | 59 | 1014.5 |
| 20260903011139 | 83 | 34 | 1.0 | 2.0 | 0.00 | 0.00 | 0.00 | 59 | 1014.5 |
| 20260903011057 | 83 | 34 | 1.0 | 2.0 | 0.00 | 0.00 | 0.00 | 59 | 1014.5 |
| 20260903010935 | 83 | 32 | 1.0 | 2.0 | 0.00 | 0.00 | 0.00 | 59 | 1014.5 |
| 20260903010831 | 83 | 34 | 1.0 | 2.0 | 0.00 | 0.00 | 0.00 | 59 | 1014.5 |
| 20260903010750 | 83 | 34 | 1.0 | 2.0 | 0.00 | 0.00 | 0.00 | 59 | 1014.5 |
| 20260903010626 | 83 | 34 | 1.0 | 2.0 | 0.00 | 0.00 | 0.00 | 59 | 1014.5 |
| 20260903010529 | 83 | 34 | 1.0 | 2.0 | 0.00 | 0.00 | 0.00 | 59 | 1014.5 |
| 20260903010427 | 83 | 32 | 1.0 | 2.0 | 0.00 | 0.00 | 0.00 | 60 | 1014.5 |
| 20260903010330 | 83 | 34 | 1.0 | 2.0 | 0.00 | 0.00 | 0.00 | 59 | 1014.5 |
| 20260903010300 | 83 | 34 | 1.0 | 2.0 | 0.00 | 0.00 | 0.00 | 59 | 1014.5 |
| 20260903010150 | 83 | 34 | 1.0 | 2.0 | 0.00 | 0.00 | 0.00 | 59 | 1014.5 |
| 20260903010026 | 83 | 32 | 1.0 | 2.0 | 0.00 | 0.00 | 0.00 | 59 | 1014.5 |
| 20260903005925 | 83 | 34 | 1.0 | 2.0 | 0.00 | 0.00 | 0.00 | 59 | 1014.5 |
| 20260903005828 | 83 | 34 | 1.0 | 2.0 | 0.00 | 0.00 | 0.00 | 59 | 1014.5 |
| 20260903005728 | 83 | 32 | 1.0 | 3.0 | 0.00 | 0.00 | 0.00 | 59 | 1014.4 |
| 20260903005626 | 83 | 31 | 1.0 | 3.0 | 0.00 | 0.00 | 0.00 | 59 | 1014.4 |
| 20260903005526 | 83 | 34 | 2.0 | 3.0 | 0.00 | 0.00 | 0.00 | 59 | 1014.4 |
| 20260903005424 | 83 | 34 | 2.0 | 3.0 | 0.00 | 0.00 | 0.00 | 59 | 1014.4 |
| 20260903005342 | 83 | 32 | 2.0 | 3.0 | 0.00 | 0.00 | 0.00 | 58 | 1014.4 |
| 20260903005301 | 83 | 30 | 1.0 | 3.0 | 0.00 | 0.00 | 0.00 | 59 | 1014.4 |
| 20260903005158 | 83 | 32 | 1.0 | 3.0 | 0.00 | 0.00 | 0.00 | 59 | 1014.4 |
| 20260903005056 | 83 | 34 | 2.0 | 3.0 | 0.00 | 0.00 | 0.00 | 59 | 1014.4 |
| 20260903004938 | 83 | 34 | 2.0 | 3.0 | 0.00 | 0.00 | 0.00 | 59 | 1014.4 |
| 20260903004837 | 83 | 32 | 2.0 | 3.0 | 0.00 | 0.00 | 0.00 | 59 | 1014.4 |
| 20260903004735 | 83 | 34 | 2.0 | 3.0 | 0.00 | 0.00 | 0.00 | 59 | 1014.4 |
| 20260903004705 | 83 | 34 | 2.0 | 3.0 | 0.00 | 0.00 | 0.00 | 60 | 1014.4 |
| 20260903004541 | 83 | 32 | 2.0 | 3.0 | 0.00 | 0.00 | 0.00 | 59 | 1014.4 |
| 20260903004440 | 83 | 34 | 2.0 | 3.0 | 0.00 | 0.00 | 0.00 | 59 | 1014.4 |
| 20260903004340 | 83 | 34 | 2.0 | 3.0 | 0.00 | 0.00 | 0.00 | 59 | 1014.4 |
| 20260903004243 | 83 | 34 | 2.0 | 3.0 | 0.00 | 0.00 | 0.00 | 59 | 1014.4 |
| 20260903004142 | 83 | 34 | 2.0 | 3.0 | 0.00 | 0.00 | 0.00 | 59 | 1014.4 |
| 20260903004041 | 83 | 34 | 2.0 | 3.0 | 0.00 | 0.00 | 0.00 | 59 | 1014.4 |
| 20260903003959 | 84 | 32 | 1.0 | 3.0 | 0.00 | 0.00 | 0.00 | 59 | 1014.4 |
| 20260903003836 | 84 | 32 | 2.0 | 3.0 | 0.00 | 0.00 | 0.00 | 59 | 1014.4 |
| 20260903003734 | 84 | 30 | 2.0 | 3.0 | 0.00 | 0.00 | 0.00 | 59 | 1014.4 |
| 20260903003633 | 84 | 34 | 2.0 | 3.0 | 0.00 | 0.00 | 0.00 | 59 | 1014.4 |
| 20260903003536 | 84 | 34 | 2.0 | 3.0 | 0.00 | 0.00 | 0.00 | 59 | 1014.4 |
| 20260903003433 | 84 | 34 | 2.0 | 3.0 | 0.00 | 0.00 | 0.00 | 59 | 1014.4 |
| 20260903003353 | 84 | 32 | 2.0 | 3.0 | 0.00 | 0.00 | 0.00 | 59 | 1014.4 |
| 20260903003202 | 84 | 34 | 2.0 | 2.0 | 0.00 | 0.00 | 0.00 | 59 | 1014.4 |
| 20260903003039 | 84 | 34 | 2.0 | 2.0 | 0.00 | 0.00 | 0.00 | 59 | 1014.4 |
| 20260903002938 | 84 | 34 | 2.0 | 2.0 | 0.00 | 0.00 | 0.00 | 59 | 1014.4 |
| 20260903002837 | 84 | 34 | 2.0 | 2.0 | 0.00 | 0.00 | 0.00 | 59 | 1014.4 |
| 20260903002740 | 84 | 34 | 2.0 | 2.0 | 0.00 | 0.00 | 0.00 | 59 | 1014.2 |
| 20260903002638 | 84 | 34 | 2.0 | 2.0 | 0.00 | 0.00 | 0.00 | 59 | 1014.2 |
| 20260903002537 | 84 | 34 | 1.0 | 2.0 | 0.00 | 0.00 | 0.00 | 59 | 1014.2 |
| 20260903002435 | 84 | 32 | 1.0 | 2.0 | 0.00 | 0.00 | 0.00 | 59 | 1014.2 |
| 20260903002357 | 84 | 34 | 1.0 | 2.0 | 0.00 | 0.00 | 0.00 | 59 | 1014.2 |
| 20260903002233 | 84 | 32 | 1.0 | 2.0 | 0.00 | 0.00 | 0.00 | 59 | 1014.2 |
| 20260903002133 | 84 | 34 | 1.0 | 2.0 | 0.00 | 0.00 | 0.00 | 59 | 1014.2 |
| 20260903002035 | 84 | 32 | 1.0 | 2.0 | 0.00 | 0.00 | 0.00 | 59 | 1014.2 |
| 20260903001935 | 84 | 34 | 1.0 | 2.0 | 0.00 | 0.00 | 0.00 | 59 | 1014.2 |
| 20260903001832 | 84 | 34 | 2.0 | 2.0 | 0.00 | 0.00 | 0.00 | 59 | 1014.2 |
| 20260903001731 | 84 | 34 | 2.0 | 2.0 | 0.00 | 0.00 | 0.00 | 59 | 1014.2 |
| 20260903001701 | 84 | 32 | 2.0 | 3.0 | 0.00 | 0.00 | 0.00 | 59 | 1014.2 |
| 20260903001538 | 84 | 34 | 1.0 | 3.0 | 0.00 | 0.00 | 0.00 | 59 | 1014.2 |
| 20260903001458 | 85 | 31 | 1.0 | 3.0 | 0.00 | 0.00 | 0.00 | 59 | 1014.2 |
| 20260903001341 | 85 | 34 | 1.0 | 3.0 | 0.00 | 0.00 | 0.00 | 60 | 1014.2 |
| 20260903001259 | 85 | 35 | 2.0 | 3.0 | 0.00 | 0.00 | 0.00 | 60 | 1014.2 |
| 20260903001136 | 85 | 34 | 2.0 | 3.0 | 0.00 | 0.00 | 0.00 | 60 | 1014.2 |
| 20260903001034 | 85 | 31 | 2.0 | 3.0 | 0.00 | 0.00 | 0.00 | 60 | 1014.2 |
| 20260903000933 | 85 | 32 | 2.0 | 3.0 | 0.00 | 0.00 | 0.00 | 60 | 1014.2 |
| 20260903000832 | 85 | 34 | 2.0 | 3.0 | 0.00 | 0.00 | 0.00 | 60 | 1014.2 |
| 20260903000731 | 85 | 34 | 2.0 | 3.0 | 0.00 | 0.00 | 0.00 | 60 | 1014.2 |
| 20260903000633 | 85 | 30 | 1.0 | 3.0 | 0.00 | 0.00 | 0.00 | 60 | 1014.2 |
| 20260903000532 | 85 | 35 | 2.0 | 3.0 | 0.00 | 0.00 | 0.00 | 60 | 1014.2 |
| 20260903000432 | 85 | 34 | 2.0 | 3.0 | 0.00 | 0.00 | 0.00 | 60 | 1014.2 |
| 20260903000329 | 85 | 34 | 1.0 | 3.0 | 0.00 | 0.00 | 0.00 | 60 | 1014.2 |
| 20260903000240 | 85 | 34 | 1.0 | 3.0 | 0.00 | 0.00 | 0.00 | 60 | 1014.2 |
| 20260903000148 | 85 | 34 | 2.0 | 3.0 | 0.00 | 0.00 | 0.00 | 60 | 1014.2 |
| 20260903000025 | 85 | 32 | 2.0 | 3.0 | 0.00 | 0.00 | 0.00 | 59 | 1014.2 |
| 20260902235927 | 85 | 34 | 2.0 | 3.0 | 0.00 | 0.00 | 0.00 | 59 | 1014.2 |
| 20260902235846 | 85 | 34 | 2.0 | 3.0 | 0.00 | 0.00 | 0.00 | 59 | 1014.2 |
| 20260902235804 | 85 | 34 | 2.0 | 3.0 | 0.00 | 0.00 | 0.00 | 59 | 1014.1 |
| 20260902235642 | 85 | 34 | 2.0 | 3.0 | 0.00 | 0.00 | 0.00 | 59 | 1014.1 |
| 20260902235540 | 85 | 34 | 2.0 | 3.0 | 0.00 | 0.00 | 0.00 | 59 | 1014.1 |
| 20260902235438 | 85 | 34 | 2.0 | 2.0 | 0.00 | 0.00 | 0.00 | 60 | 1014.1 |
| 20260902235336 | 85 | 34 | 1.0 | 2.0 | 0.00 | 0.00 | 0.00 | 60 | 1014.1 |
| 20260902235255 | 85 | 34 | 2.0 | 2.0 | 0.00 | 0.00 | 0.00 | 60 | 1014.1 |
| 20260902235154 | 85 | 35 | 1.0 | 2.0 | 0.00 | 0.00 | 0.00 | 60 | 1014.1 |
| 20260902235035 | 86 | 34 | 1.0 | 2.0 | 0.00 | 0.00 | 0.00 | 59 | 1014.1 |
| 20260902234935 | 86 | 32 | 1.0 | 2.0 | 0.00 | 0.00 | 0.00 | 59 | 1014.1 |
| 20260902234835 | 86 | 35 | 1.0 | 2.0 | 0.00 | 0.00 | 0.00 | 59 | 1014.1 |
| 20260902234734 | 86 | 35 | 1.0 | 3.0 | 0.00 | 0.00 | 0.00 | 59 | 1014.1 |
| 20260902234703 | 86 | 34 | 2.0 | 3.0 | 0.00 | 0.00 | 0.00 | 59 | 1014.1 |
| 20260902234542 | 86 | 34 | 2.0 | 3.0 | 0.00 | 0.00 | 0.00 | 59 | 1014.1 |
| 20260902234501 | 86 | 34 | 2.0 | 3.0 | 0.00 | 0.00 | 0.00 | 59 | 1014.1 |
| 20260902234342 | 86 | 31 | 1.0 | 3.0 | 0.00 | 0.00 | 0.00 | 59 | 1014.1 |
| 20260902234240 | 86 | 34 | 1.0 | 3.0 | 0.00 | 0.00 | 0.00 | 59 | 1014.2 |
| 20260902234139 | 86 | 34 | 2.0 | 3.0 | 0.00 | 0.00 | 0.00 | 59 | 1014.2 |
| 20260902234038 | 86 | 35 | 1.0 | 3.0 | 0.00 | 0.00 | 0.00 | 59 | 1014.2 |
| 20260902233937 | 86 | 34 | 2.0 | 3.0 | 0.00 | 0.00 | 0.00 | 59 | 1014.2 |
| 20260902233834 | 86 | 34 | 2.0 | 3.0 | 0.00 | 0.00 | 0.00 | 59 | 1014.2 |
| 20260902233732 | 86 | 34 | 2.0 | 3.0 | 0.00 | 0.00 | 0.00 | 59 | 1014.2 |
| 20260902233635 | 86 | 35 | 2.0 | 3.0 | 0.00 | 0.00 | 0.00 | 59 | 1014.2 |
| 20260902233533 | 86 | 32 | 2.0 | 3.0 | 0.00 | 0.00 | 0.00 | 59 | 1014.2 |
| 20260902233433 | 86 | 32 | 2.0 | 3.0 | 0.00 | 0.00 | 0.00 | 58 | 1014.2 |
| 20260902233330 | 86 | 34 | 2.0 | 3.0 | 0.00 | 0.00 | 0.00 | 58 | 1014.2 |